<?xml version="1.0" encoding="UTF-8"?>
<gpx version="1.1" creator="2bulu-scraper" xmlns="http://www.topografix.com/GPX/1/1">
  <metadata><name>兴文凌霄城大环线</name><desc>source: 2bulu.com trackId=75722043; exported 2026-08-30T14:28:53.358Z</desc></metadata>

  <trk><name>兴文凌霄城大环线</name>
      <trkseg>
        <trkpt lat="28.2958525" lon="105.0328524"><ele>377.93</ele><time>2025-12-05T17:37:20.000Z</time></trkpt>
        <trkpt lat="28.2958399" lon="105.0329613"><ele>377.93</ele><time>2025-12-05T17:37:32.000Z</time></trkpt>
        <trkpt lat="28.2958348" lon="105.0330925"><ele>377.73</ele><time>2025-12-05T17:37:39.000Z</time></trkpt>
        <trkpt lat="28.2958342" lon="105.0332317"><ele>377.18</ele><time>2025-12-05T17:37:51.000Z</time></trkpt>
        <trkpt lat="28.2958198" lon="105.0333566"><ele>377.43</ele><time>2025-12-05T17:38:01.000Z</time></trkpt>
        <trkpt lat="28.2958066" lon="105.0334202"><ele>377.98</ele><time>2025-12-05T17:38:07.000Z</time></trkpt>
        <trkpt lat="28.2957695" lon="105.0335164"><ele>377.7</ele><time>2025-12-05T17:38:21.000Z</time></trkpt>
        <trkpt lat="28.2957208" lon="105.0336305"><ele>376.34</ele><time>2025-12-05T17:38:29.000Z</time></trkpt>
        <trkpt lat="28.2956636" lon="105.0337422"><ele>375.02</ele><time>2025-12-05T17:38:37.000Z</time></trkpt>
        <trkpt lat="28.2956111" lon="105.0338398"><ele>374.56</ele><time>2025-12-05T17:38:45.000Z</time></trkpt>
        <trkpt lat="28.2956418" lon="105.0338566"><ele>373.94</ele><time>2025-12-05T17:38:49.000Z</time></trkpt>
        <trkpt lat="28.2956076" lon="105.0339102"><ele>372.56</ele><time>2025-12-05T17:38:57.000Z</time></trkpt>
        <trkpt lat="28.2955624" lon="105.0340075"><ele>375.07</ele><time>2025-12-05T17:39:05.000Z</time></trkpt>
        <trkpt lat="28.2955319" lon="105.0341321"><ele>376.25</ele><time>2025-12-05T17:39:14.000Z</time></trkpt>
        <trkpt lat="28.29552" lon="105.0342558"><ele>377.19</ele><time>2025-12-05T17:39:24.000Z</time></trkpt>
        <trkpt lat="28.2955151" lon="105.034388"><ele>376.99</ele><time>2025-12-05T17:39:32.000Z</time></trkpt>
        <trkpt lat="28.295489" lon="105.034512"><ele>375.95</ele><time>2025-12-05T17:39:42.000Z</time></trkpt>
        <trkpt lat="28.2954371" lon="105.034613"><ele>374.56</ele><time>2025-12-05T17:39:52.000Z</time></trkpt>
        <trkpt lat="28.2954142" lon="105.0346381"><ele>374.24</ele><time>2025-12-05T17:39:54.000Z</time></trkpt>
        <trkpt lat="28.2953517" lon="105.0347304"><ele>374.02</ele><time>2025-12-05T17:40:18.000Z</time></trkpt>
        <trkpt lat="28.2952634" lon="105.0347959"><ele>374.95</ele><time>2025-12-05T17:40:24.000Z</time></trkpt>
        <trkpt lat="28.295179" lon="105.0348595"><ele>375.56</ele><time>2025-12-05T17:40:30.000Z</time></trkpt>
        <trkpt lat="28.2950899" lon="105.0349447"><ele>375.74</ele><time>2025-12-05T17:40:38.000Z</time></trkpt>
        <trkpt lat="28.2950113" lon="105.0350236"><ele>375.14</ele><time>2025-12-05T17:40:44.000Z</time></trkpt>
        <trkpt lat="28.2949703" lon="105.0351216"><ele>374.88</ele><time>2025-12-05T17:40:52.000Z</time></trkpt>
        <trkpt lat="28.2949378" lon="105.0352349"><ele>374.31</ele><time>2025-12-05T17:41:02.000Z</time></trkpt>
        <trkpt lat="28.2949013" lon="105.0353341"><ele>373.87</ele><time>2025-12-05T17:41:10.000Z</time></trkpt>
        <trkpt lat="28.2948481" lon="105.0354353"><ele>373.96</ele><time>2025-12-05T17:41:20.000Z</time></trkpt>
        <trkpt lat="28.2947828" lon="105.0355248"><ele>373.98</ele><time>2025-12-05T17:41:28.000Z</time></trkpt>
        <trkpt lat="28.2947154" lon="105.0356111"><ele>373.65</ele><time>2025-12-05T17:41:36.000Z</time></trkpt>
        <trkpt lat="28.2946503" lon="105.0356867"><ele>373.47</ele><time>2025-12-05T17:41:44.000Z</time></trkpt>
        <trkpt lat="28.2945869" lon="105.0357609"><ele>372.79</ele><time>2025-12-05T17:41:52.000Z</time></trkpt>
        <trkpt lat="28.2945205" lon="105.0358404"><ele>372.46</ele><time>2025-12-05T17:42:00.000Z</time></trkpt>
        <trkpt lat="28.2944717" lon="105.0359341"><ele>371.87</ele><time>2025-12-05T17:42:08.000Z</time></trkpt>
        <trkpt lat="28.2944543" lon="105.0360461"><ele>371.75</ele><time>2025-12-05T17:42:16.000Z</time></trkpt>
        <trkpt lat="28.2944612" lon="105.0361581"><ele>372.39</ele><time>2025-12-05T17:42:24.000Z</time></trkpt>
        <trkpt lat="28.2944485" lon="105.0362793"><ele>373.38</ele><time>2025-12-05T17:42:34.000Z</time></trkpt>
        <trkpt lat="28.2943999" lon="105.0363742"><ele>374.28</ele><time>2025-12-05T17:42:42.000Z</time></trkpt>
        <trkpt lat="28.2943238" lon="105.0364558"><ele>374.88</ele><time>2025-12-05T17:42:50.000Z</time></trkpt>
        <trkpt lat="28.2942393" lon="105.0365306"><ele>375.35</ele><time>2025-12-05T17:42:58.000Z</time></trkpt>
        <trkpt lat="28.294155" lon="105.0366016"><ele>375.63</ele><time>2025-12-05T17:43:06.000Z</time></trkpt>
        <trkpt lat="28.2940672" lon="105.0366685"><ele>376.15</ele><time>2025-12-05T17:43:14.000Z</time></trkpt>
        <trkpt lat="28.2939835" lon="105.0367332"><ele>376.8</ele><time>2025-12-05T17:43:22.000Z</time></trkpt>
        <trkpt lat="28.2939108" lon="105.0367999"><ele>378.93</ele><time>2025-12-05T17:43:30.000Z</time></trkpt>
        <trkpt lat="28.2938245" lon="105.0368482"><ele>380.38</ele><time>2025-12-05T17:43:38.000Z</time></trkpt>
        <trkpt lat="28.2937455" lon="105.0369153"><ele>382.63</ele><time>2025-12-05T17:43:46.000Z</time></trkpt>
        <trkpt lat="28.2936768" lon="105.0369984"><ele>383.85</ele><time>2025-12-05T17:43:54.000Z</time></trkpt>
        <trkpt lat="28.2936147" lon="105.0370988"><ele>384.71</ele><time>2025-12-05T17:44:02.000Z</time></trkpt>
        <trkpt lat="28.2935434" lon="105.0371902"><ele>385.25</ele><time>2025-12-05T17:44:10.000Z</time></trkpt>
        <trkpt lat="28.2934523" lon="105.0372523"><ele>385.7</ele><time>2025-12-05T17:44:18.000Z</time></trkpt>
        <trkpt lat="28.2933632" lon="105.0373039"><ele>386.24</ele><time>2025-12-05T17:44:26.000Z</time></trkpt>
        <trkpt lat="28.2932597" lon="105.0373449"><ele>386.64</ele><time>2025-12-05T17:44:34.000Z</time></trkpt>
        <trkpt lat="28.2931401" lon="105.0373968"><ele>386.85</ele><time>2025-12-05T17:44:42.000Z</time></trkpt>
        <trkpt lat="28.2930239" lon="105.0374361"><ele>387.74</ele><time>2025-12-05T17:44:50.000Z</time></trkpt>
        <trkpt lat="28.2929262" lon="105.0374911"><ele>388.57</ele><time>2025-12-05T17:44:58.000Z</time></trkpt>
        <trkpt lat="28.2928385" lon="105.0375523"><ele>389.43</ele><time>2025-12-05T17:45:06.000Z</time></trkpt>
        <trkpt lat="28.2927469" lon="105.0376105"><ele>389.5</ele><time>2025-12-05T17:45:14.000Z</time></trkpt>
        <trkpt lat="28.2926566" lon="105.0376716"><ele>389.08</ele><time>2025-12-05T17:45:22.000Z</time></trkpt>
        <trkpt lat="28.2925644" lon="105.0377049"><ele>389.43</ele><time>2025-12-05T17:45:30.000Z</time></trkpt>
        <trkpt lat="28.2924573" lon="105.0377305"><ele>389.51</ele><time>2025-12-05T17:45:38.000Z</time></trkpt>
        <trkpt lat="28.2923458" lon="105.0377494"><ele>388.97</ele><time>2025-12-05T17:45:46.000Z</time></trkpt>
        <trkpt lat="28.2922356" lon="105.0377647"><ele>388.41</ele><time>2025-12-05T17:45:54.000Z</time></trkpt>
        <trkpt lat="28.2921298" lon="105.037786"><ele>387.84</ele><time>2025-12-05T17:46:02.000Z</time></trkpt>
        <trkpt lat="28.2920339" lon="105.0378163"><ele>386.8</ele><time>2025-12-05T17:46:10.000Z</time></trkpt>
        <trkpt lat="28.2919461" lon="105.037876"><ele>385.86</ele><time>2025-12-05T17:46:18.000Z</time></trkpt>
        <trkpt lat="28.2918663" lon="105.0379558"><ele>385.04</ele><time>2025-12-05T17:46:26.000Z</time></trkpt>
        <trkpt lat="28.291787" lon="105.0380411"><ele>384.58</ele><time>2025-12-05T17:46:34.000Z</time></trkpt>
        <trkpt lat="28.2916943" lon="105.0380954"><ele>384.28</ele><time>2025-12-05T17:46:42.000Z</time></trkpt>
        <trkpt lat="28.2915908" lon="105.0381243"><ele>384.21</ele><time>2025-12-05T17:46:50.000Z</time></trkpt>
        <trkpt lat="28.2914894" lon="105.0381551"><ele>384.13</ele><time>2025-12-05T17:46:58.000Z</time></trkpt>
        <trkpt lat="28.2913943" lon="105.0382019"><ele>383.97</ele><time>2025-12-05T17:47:06.000Z</time></trkpt>
        <trkpt lat="28.2912989" lon="105.0382498"><ele>384.28</ele><time>2025-12-05T17:47:14.000Z</time></trkpt>
        <trkpt lat="28.291213" lon="105.0383034"><ele>385.11</ele><time>2025-12-05T17:47:22.000Z</time></trkpt>
        <trkpt lat="28.2911315" lon="105.0383599"><ele>387.24</ele><time>2025-12-05T17:47:30.000Z</time></trkpt>
        <trkpt lat="28.2910455" lon="105.0384338"><ele>389.56</ele><time>2025-12-05T17:47:40.000Z</time></trkpt>
        <trkpt lat="28.2909763" lon="105.0385104"><ele>392.18</ele><time>2025-12-05T17:47:48.000Z</time></trkpt>
        <trkpt lat="28.2909176" lon="105.0385961"><ele>393.9</ele><time>2025-12-05T17:47:56.000Z</time></trkpt>
        <trkpt lat="28.2908597" lon="105.038687"><ele>394.84</ele><time>2025-12-05T17:48:04.000Z</time></trkpt>
        <trkpt lat="28.2907935" lon="105.0387718"><ele>395.34</ele><time>2025-12-05T17:48:12.000Z</time></trkpt>
        <trkpt lat="28.290736" lon="105.0388621"><ele>395.98</ele><time>2025-12-05T17:48:20.000Z</time></trkpt>
        <trkpt lat="28.2906754" lon="105.0389532"><ele>396.14</ele><time>2025-12-05T17:48:28.000Z</time></trkpt>
        <trkpt lat="28.2906115" lon="105.0390401"><ele>396.03</ele><time>2025-12-05T17:48:34.000Z</time></trkpt>
        <trkpt lat="28.2905401" lon="105.0391137"><ele>395.18</ele><time>2025-12-05T17:48:40.000Z</time></trkpt>
        <trkpt lat="28.2904504" lon="105.0391478"><ele>393.37</ele><time>2025-12-05T17:48:46.000Z</time></trkpt>
        <trkpt lat="28.29034" lon="105.0391503"><ele>392.18</ele><time>2025-12-05T17:48:54.000Z</time></trkpt>
        <trkpt lat="28.2902424" lon="105.0391291"><ele>389.73</ele><time>2025-12-05T17:49:00.000Z</time></trkpt>
        <trkpt lat="28.2901471" lon="105.0390989"><ele>388.23</ele><time>2025-12-05T17:49:06.000Z</time></trkpt>
        <trkpt lat="28.2900515" lon="105.0390621"><ele>387.98</ele><time>2025-12-05T17:49:14.000Z</time></trkpt>
        <trkpt lat="28.2899541" lon="105.039031"><ele>388.8</ele><time>2025-12-05T17:49:22.000Z</time></trkpt>
        <trkpt lat="28.2898508" lon="105.0389983"><ele>389.53</ele><time>2025-12-05T17:49:30.000Z</time></trkpt>
        <trkpt lat="28.2897473" lon="105.0389925"><ele>390.84</ele><time>2025-12-05T17:49:38.000Z</time></trkpt>
        <trkpt lat="28.2896454" lon="105.0390381"><ele>391.28</ele><time>2025-12-05T17:49:46.000Z</time></trkpt>
        <trkpt lat="28.2895483" lon="105.0390948"><ele>391.47</ele><time>2025-12-05T17:49:54.000Z</time></trkpt>
        <trkpt lat="28.2894523" lon="105.03916"><ele>391.44</ele><time>2025-12-05T17:50:02.000Z</time></trkpt>
        <trkpt lat="28.2893592" lon="105.0392245"><ele>391.05</ele><time>2025-12-05T17:50:10.000Z</time></trkpt>
        <trkpt lat="28.2892633" lon="105.0392629"><ele>391.67</ele><time>2025-12-05T17:50:18.000Z</time></trkpt>
        <trkpt lat="28.2891684" lon="105.0392924"><ele>392.59</ele><time>2025-12-05T17:50:26.000Z</time></trkpt>
        <trkpt lat="28.2890649" lon="105.0393275"><ele>392.77</ele><time>2025-12-05T17:50:34.000Z</time></trkpt>
        <trkpt lat="28.2889712" lon="105.0393862"><ele>392.84</ele><time>2025-12-05T17:50:42.000Z</time></trkpt>
        <trkpt lat="28.288867" lon="105.039427"><ele>391.98</ele><time>2025-12-05T17:50:50.000Z</time></trkpt>
        <trkpt lat="28.2887559" lon="105.0394436"><ele>392.31</ele><time>2025-12-05T17:50:58.000Z</time></trkpt>
        <trkpt lat="28.2886496" lon="105.0394574"><ele>393.08</ele><time>2025-12-05T17:51:06.000Z</time></trkpt>
        <trkpt lat="28.2885372" lon="105.0394619"><ele>393.95</ele><time>2025-12-05T17:51:14.000Z</time></trkpt>
        <trkpt lat="28.2884365" lon="105.0394776"><ele>395.17</ele><time>2025-12-05T17:51:22.000Z</time></trkpt>
        <trkpt lat="28.2883356" lon="105.0395108"><ele>396.15</ele><time>2025-12-05T17:51:30.000Z</time></trkpt>
        <trkpt lat="28.2882337" lon="105.0395659"><ele>396.36</ele><time>2025-12-05T17:51:38.000Z</time></trkpt>
        <trkpt lat="28.2881445" lon="105.0396478"><ele>396.76</ele><time>2025-12-05T17:51:46.000Z</time></trkpt>
        <trkpt lat="28.288074" lon="105.0397486"><ele>397.29</ele><time>2025-12-05T17:51:54.000Z</time></trkpt>
        <trkpt lat="28.2880272" lon="105.0398553"><ele>397.36</ele><time>2025-12-05T17:52:02.000Z</time></trkpt>
        <trkpt lat="28.2879798" lon="105.0399534"><ele>397.5</ele><time>2025-12-05T17:52:10.000Z</time></trkpt>
        <trkpt lat="28.2879231" lon="105.0400482"><ele>398.04</ele><time>2025-12-05T17:52:18.000Z</time></trkpt>
        <trkpt lat="28.2878475" lon="105.0401143"><ele>398.29</ele><time>2025-12-05T17:52:26.000Z</time></trkpt>
        <trkpt lat="28.2877424" lon="105.0401282"><ele>398.21</ele><time>2025-12-05T17:52:34.000Z</time></trkpt>
        <trkpt lat="28.2876377" lon="105.0401168"><ele>398.14</ele><time>2025-12-05T17:52:42.000Z</time></trkpt>
        <trkpt lat="28.2875407" lon="105.0401366"><ele>399.24</ele><time>2025-12-05T17:52:50.000Z</time></trkpt>
        <trkpt lat="28.2874503" lon="105.0401909"><ele>401.42</ele><time>2025-12-05T17:53:00.000Z</time></trkpt>
        <trkpt lat="28.2873733" lon="105.0402619"><ele>402.9</ele><time>2025-12-05T17:53:08.000Z</time></trkpt>
        <trkpt lat="28.2873028" lon="105.0403446"><ele>404.38</ele><time>2025-12-05T17:53:16.000Z</time></trkpt>
        <trkpt lat="28.287242" lon="105.0404322"><ele>405.18</ele><time>2025-12-05T17:53:24.000Z</time></trkpt>
        <trkpt lat="28.287187" lon="105.0405238"><ele>406.67</ele><time>2025-12-05T17:53:32.000Z</time></trkpt>
        <trkpt lat="28.28714" lon="105.0406171"><ele>407.91</ele><time>2025-12-05T17:53:40.000Z</time></trkpt>
        <trkpt lat="28.2870942" lon="105.0407192"><ele>408.69</ele><time>2025-12-05T17:53:48.000Z</time></trkpt>
        <trkpt lat="28.2870252" lon="105.0408122"><ele>408.73</ele><time>2025-12-05T17:53:56.000Z</time></trkpt>
        <trkpt lat="28.2869258" lon="105.0408646"><ele>408.94</ele><time>2025-12-05T17:54:04.000Z</time></trkpt>
        <trkpt lat="28.2868168" lon="105.0409"><ele>409.55</ele><time>2025-12-05T17:54:12.000Z</time></trkpt>
        <trkpt lat="28.2867187" lon="105.0409564"><ele>411.01</ele><time>2025-12-05T17:54:20.000Z</time></trkpt>
        <trkpt lat="28.2866336" lon="105.0410265"><ele>412.39</ele><time>2025-12-05T17:54:28.000Z</time></trkpt>
        <trkpt lat="28.2865564" lon="105.0411053"><ele>413.22</ele><time>2025-12-05T17:54:36.000Z</time></trkpt>
        <trkpt lat="28.2864806" lon="105.0411891"><ele>414.14</ele><time>2025-12-05T17:54:44.000Z</time></trkpt>
        <trkpt lat="28.2864036" lon="105.0412831"><ele>414.29</ele><time>2025-12-05T17:54:52.000Z</time></trkpt>
        <trkpt lat="28.2863379" lon="105.0413638"><ele>414.95</ele><time>2025-12-05T17:54:58.000Z</time></trkpt>
        <trkpt lat="28.2862594" lon="105.0414442"><ele>414.69</ele><time>2025-12-05T17:55:06.000Z</time></trkpt>
        <trkpt lat="28.2861779" lon="105.0415121"><ele>413.83</ele><time>2025-12-05T17:55:14.000Z</time></trkpt>
        <trkpt lat="28.2860904" lon="105.0415785"><ele>412.79</ele><time>2025-12-05T17:55:22.000Z</time></trkpt>
        <trkpt lat="28.2860013" lon="105.041631"><ele>411.97</ele><time>2025-12-05T17:55:30.000Z</time></trkpt>
        <trkpt lat="28.285917" lon="105.0416785"><ele>410.93</ele><time>2025-12-05T17:55:38.000Z</time></trkpt>
        <trkpt lat="28.285834" lon="105.0417371"><ele>410.3</ele><time>2025-12-05T17:55:46.000Z</time></trkpt>
        <trkpt lat="28.2857539" lon="105.0418033"><ele>410.04</ele><time>2025-12-05T17:55:54.000Z</time></trkpt>
        <trkpt lat="28.2856677" lon="105.0418652"><ele>410.03</ele><time>2025-12-05T17:56:02.000Z</time></trkpt>
        <trkpt lat="28.2855658" lon="105.041902"><ele>410.19</ele><time>2025-12-05T17:56:12.000Z</time></trkpt>
        <trkpt lat="28.2854675" lon="105.0419112"><ele>410.51</ele><time>2025-12-05T17:56:20.000Z</time></trkpt>
        <trkpt lat="28.2853689" lon="105.0419026"><ele>410.36</ele><time>2025-12-05T17:56:28.000Z</time></trkpt>
        <trkpt lat="28.28526" lon="105.0418885"><ele>410.13</ele><time>2025-12-05T17:56:36.000Z</time></trkpt>
        <trkpt lat="28.2851478" lon="105.0418724"><ele>410.06</ele><time>2025-12-05T17:56:44.000Z</time></trkpt>
        <trkpt lat="28.2850473" lon="105.0418677"><ele>411</ele><time>2025-12-05T17:56:52.000Z</time></trkpt>
        <trkpt lat="28.2849485" lon="105.0418879"><ele>410.48</ele><time>2025-12-05T17:57:00.000Z</time></trkpt>
        <trkpt lat="28.2848484" lon="105.041932"><ele>410.49</ele><time>2025-12-05T17:57:08.000Z</time></trkpt>
        <trkpt lat="28.2847449" lon="105.0419691"><ele>410.59</ele><time>2025-12-05T17:57:16.000Z</time></trkpt>
        <trkpt lat="28.2846308" lon="105.042001"><ele>411.03</ele><time>2025-12-05T17:57:24.000Z</time></trkpt>
        <trkpt lat="28.2845304" lon="105.042054"><ele>411.89</ele><time>2025-12-05T17:57:32.000Z</time></trkpt>
        <trkpt lat="28.2844389" lon="105.0421225"><ele>411.86</ele><time>2025-12-05T17:57:40.000Z</time></trkpt>
        <trkpt lat="28.2843575" lon="105.0421899"><ele>411.11</ele><time>2025-12-05T17:57:48.000Z</time></trkpt>
        <trkpt lat="28.284263" lon="105.0422385"><ele>410.32</ele><time>2025-12-05T17:57:56.000Z</time></trkpt>
        <trkpt lat="28.2841757" lon="105.0423067"><ele>409.63</ele><time>2025-12-05T17:58:04.000Z</time></trkpt>
        <trkpt lat="28.2840934" lon="105.042382"><ele>409.11</ele><time>2025-12-05T17:58:12.000Z</time></trkpt>
        <trkpt lat="28.284009" lon="105.0424591"><ele>408.51</ele><time>2025-12-05T17:58:20.000Z</time></trkpt>
        <trkpt lat="28.283928" lon="105.0425241"><ele>408.26</ele><time>2025-12-05T17:58:26.000Z</time></trkpt>
        <trkpt lat="28.2838445" lon="105.0426011"><ele>407.75</ele><time>2025-12-05T17:58:34.000Z</time></trkpt>
        <trkpt lat="28.2837635" lon="105.042676"><ele>407</ele><time>2025-12-05T17:58:42.000Z</time></trkpt>
        <trkpt lat="28.2836748" lon="105.0427436"><ele>407.1</ele><time>2025-12-05T17:58:50.000Z</time></trkpt>
        <trkpt lat="28.283578" lon="105.0428102"><ele>407.18</ele><time>2025-12-05T17:58:58.000Z</time></trkpt>
        <trkpt lat="28.2834796" lon="105.0428624"><ele>408.64</ele><time>2025-12-05T17:59:06.000Z</time></trkpt>
        <trkpt lat="28.2833868" lon="105.0429068"><ele>408.45</ele><time>2025-12-05T17:59:14.000Z</time></trkpt>
        <trkpt lat="28.2832973" lon="105.0429658"><ele>407.71</ele><time>2025-12-05T17:59:22.000Z</time></trkpt>
        <trkpt lat="28.2832148" lon="105.0430357"><ele>406.26</ele><time>2025-12-05T17:59:30.000Z</time></trkpt>
        <trkpt lat="28.2831218" lon="105.0431064"><ele>404.98</ele><time>2025-12-05T17:59:38.000Z</time></trkpt>
        <trkpt lat="28.2830242" lon="105.043171"><ele>403.8</ele><time>2025-12-05T17:59:46.000Z</time></trkpt>
        <trkpt lat="28.282921" lon="105.0432095"><ele>402.81</ele><time>2025-12-05T17:59:54.000Z</time></trkpt>
        <trkpt lat="28.2828055" lon="105.0432215"><ele>402.94</ele><time>2025-12-05T18:00:02.000Z</time></trkpt>
        <trkpt lat="28.2827049" lon="105.0432165"><ele>403.68</ele><time>2025-12-05T18:00:10.000Z</time></trkpt>
        <trkpt lat="28.2826079" lon="105.0432098"><ele>404.78</ele><time>2025-12-05T18:00:18.000Z</time></trkpt>
        <trkpt lat="28.282504" lon="105.0431846"><ele>405.97</ele><time>2025-12-05T18:00:26.000Z</time></trkpt>
        <trkpt lat="28.2824056" lon="105.0431639"><ele>406.87</ele><time>2025-12-05T18:00:34.000Z</time></trkpt>
        <trkpt lat="28.2823227" lon="105.0431178"><ele>407.31</ele><time>2025-12-05T18:00:42.000Z</time></trkpt>
        <trkpt lat="28.2822412" lon="105.0430739"><ele>408.84</ele><time>2025-12-05T18:00:50.000Z</time></trkpt>
        <trkpt lat="28.2821457" lon="105.0430172"><ele>410.54</ele><time>2025-12-05T18:01:00.000Z</time></trkpt>
        <trkpt lat="28.2820625" lon="105.0429591"><ele>410.98</ele><time>2025-12-05T18:01:08.000Z</time></trkpt>
        <trkpt lat="28.2819859" lon="105.0428898"><ele>411.35</ele><time>2025-12-05T18:01:16.000Z</time></trkpt>
        <trkpt lat="28.2819022" lon="105.0428288"><ele>411.14</ele><time>2025-12-05T18:01:24.000Z</time></trkpt>
        <trkpt lat="28.2818229" lon="105.0427607"><ele>410.53</ele><time>2025-12-05T18:01:32.000Z</time></trkpt>
        <trkpt lat="28.2817303" lon="105.0427181"><ele>409.7</ele><time>2025-12-05T18:01:40.000Z</time></trkpt>
        <trkpt lat="28.2816306" lon="105.0427171"><ele>409.68</ele><time>2025-12-05T18:01:48.000Z</time></trkpt>
        <trkpt lat="28.2815301" lon="105.0427725"><ele>410.09</ele><time>2025-12-05T18:01:56.000Z</time></trkpt>
        <trkpt lat="28.2814533" lon="105.0428606"><ele>410.91</ele><time>2025-12-05T18:02:04.000Z</time></trkpt>
        <trkpt lat="28.2814049" lon="105.0429604"><ele>412.64</ele><time>2025-12-05T18:02:12.000Z</time></trkpt>
        <trkpt lat="28.2813801" lon="105.0430835"><ele>413.55</ele><time>2025-12-05T18:02:22.000Z</time></trkpt>
        <trkpt lat="28.2813692" lon="105.0432012"><ele>414.38</ele><time>2025-12-05T18:02:30.000Z</time></trkpt>
        <trkpt lat="28.2813616" lon="105.0433136"><ele>415.12</ele><time>2025-12-05T18:02:38.000Z</time></trkpt>
        <trkpt lat="28.2813455" lon="105.0434224"><ele>415.51</ele><time>2025-12-05T18:02:46.000Z</time></trkpt>
        <trkpt lat="28.2813135" lon="105.043528"><ele>416.21</ele><time>2025-12-05T18:02:54.000Z</time></trkpt>
        <trkpt lat="28.2812662" lon="105.0436226"><ele>416.87</ele><time>2025-12-05T18:03:02.000Z</time></trkpt>
        <trkpt lat="28.2812057" lon="105.0437143"><ele>416.9</ele><time>2025-12-05T18:03:10.000Z</time></trkpt>
        <trkpt lat="28.2811643" lon="105.0438207"><ele>416.69</ele><time>2025-12-05T18:03:18.000Z</time></trkpt>
        <trkpt lat="28.281158" lon="105.0439398"><ele>416.76</ele><time>2025-12-05T18:03:26.000Z</time></trkpt>
        <trkpt lat="28.2811711" lon="105.0440621"><ele>417.59</ele><time>2025-12-05T18:03:34.000Z</time></trkpt>
        <trkpt lat="28.2811746" lon="105.044178"><ele>417.9</ele><time>2025-12-05T18:03:42.000Z</time></trkpt>
        <trkpt lat="28.2811656" lon="105.0442906"><ele>418.56</ele><time>2025-12-05T18:03:50.000Z</time></trkpt>
        <trkpt lat="28.281142" lon="105.0443808"><ele>420.77</ele><time>2025-12-05T18:03:58.000Z</time></trkpt>
        <trkpt lat="28.2811056" lon="105.0444737"><ele>422.02</ele><time>2025-12-05T18:04:14.000Z</time></trkpt>
        <trkpt lat="28.2810679" lon="105.0445784"><ele>423.88</ele><time>2025-12-05T18:04:20.000Z</time></trkpt>
        <trkpt lat="28.2810106" lon="105.0446758"><ele>423.62</ele><time>2025-12-05T18:04:28.000Z</time></trkpt>
        <trkpt lat="28.2809578" lon="105.0447803"><ele>423.6</ele><time>2025-12-05T18:04:36.000Z</time></trkpt>
        <trkpt lat="28.2809427" lon="105.0448987"><ele>423.36</ele><time>2025-12-05T18:04:46.000Z</time></trkpt>
        <trkpt lat="28.2809261" lon="105.0450095"><ele>422.18</ele><time>2025-12-05T18:04:54.000Z</time></trkpt>
        <trkpt lat="28.2808582" lon="105.0450965"><ele>422.17</ele><time>2025-12-05T18:05:02.000Z</time></trkpt>
        <trkpt lat="28.2807622" lon="105.0451509"><ele>423.21</ele><time>2025-12-05T18:05:10.000Z</time></trkpt>
        <trkpt lat="28.2806699" lon="105.0451983"><ele>424.54</ele><time>2025-12-05T18:05:18.000Z</time></trkpt>
        <trkpt lat="28.2805938" lon="105.0452669"><ele>425.58</ele><time>2025-12-05T18:05:24.000Z</time></trkpt>
        <trkpt lat="28.2805355" lon="105.0453671"><ele>425.55</ele><time>2025-12-05T18:05:32.000Z</time></trkpt>
        <trkpt lat="28.2805118" lon="105.0454831"><ele>425.55</ele><time>2025-12-05T18:05:40.000Z</time></trkpt>
        <trkpt lat="28.2804732" lon="105.0455911"><ele>425.03</ele><time>2025-12-05T18:05:48.000Z</time></trkpt>
        <trkpt lat="28.2804015" lon="105.0456728"><ele>424.7</ele><time>2025-12-05T18:05:56.000Z</time></trkpt>
        <trkpt lat="28.2803174" lon="105.0457363"><ele>425</ele><time>2025-12-05T18:06:04.000Z</time></trkpt>
        <trkpt lat="28.2802282" lon="105.0457904"><ele>426.3</ele><time>2025-12-05T18:06:12.000Z</time></trkpt>
        <trkpt lat="28.2801209" lon="105.0458165"><ele>428.32</ele><time>2025-12-05T18:06:18.000Z</time></trkpt>
        <trkpt lat="28.2800279" lon="105.045878"><ele>431.52</ele><time>2025-12-05T18:06:26.000Z</time></trkpt>
        <trkpt lat="28.2799302" lon="105.0459532"><ele>433.67</ele><time>2025-12-05T18:06:34.000Z</time></trkpt>
        <trkpt lat="28.2798309" lon="105.046022"><ele>434.14</ele><time>2025-12-05T18:06:42.000Z</time></trkpt>
        <trkpt lat="28.2797591" lon="105.046113"><ele>435.09</ele><time>2025-12-05T18:06:50.000Z</time></trkpt>
        <trkpt lat="28.2796909" lon="105.0462018"><ele>436.05</ele><time>2025-12-05T18:06:58.000Z</time></trkpt>
        <trkpt lat="28.2796386" lon="105.0462999"><ele>436.8</ele><time>2025-12-05T18:07:06.000Z</time></trkpt>
        <trkpt lat="28.2795804" lon="105.0463969"><ele>437.71</ele><time>2025-12-05T18:07:14.000Z</time></trkpt>
        <trkpt lat="28.2795156" lon="105.0464976"><ele>438.22</ele><time>2025-12-05T18:07:22.000Z</time></trkpt>
        <trkpt lat="28.279445" lon="105.0465859"><ele>438.06</ele><time>2025-12-05T18:07:30.000Z</time></trkpt>
        <trkpt lat="28.2793476" lon="105.0466364"><ele>438.27</ele><time>2025-12-05T18:07:38.000Z</time></trkpt>
        <trkpt lat="28.2792386" lon="105.0466652"><ele>439.3</ele><time>2025-12-05T18:07:46.000Z</time></trkpt>
        <trkpt lat="28.2791414" lon="105.0466778"><ele>440.56</ele><time>2025-12-05T18:07:52.000Z</time></trkpt>
        <trkpt lat="28.2790599" lon="105.0467403"><ele>442.65</ele><time>2025-12-05T18:08:00.000Z</time></trkpt>
        <trkpt lat="28.2790019" lon="105.0468437"><ele>444.14</ele><time>2025-12-05T18:08:08.000Z</time></trkpt>
        <trkpt lat="28.2789646" lon="105.046965"><ele>444.83</ele><time>2025-12-05T18:08:16.000Z</time></trkpt>
        <trkpt lat="28.2789457" lon="105.047087"><ele>444.95</ele><time>2025-12-05T18:08:24.000Z</time></trkpt>
        <trkpt lat="28.2789221" lon="105.0471952"><ele>444.3</ele><time>2025-12-05T18:08:34.000Z</time></trkpt>
        <trkpt lat="28.2789552" lon="105.0472903"><ele>445.29</ele><time>2025-12-05T18:08:44.000Z</time></trkpt>
        <trkpt lat="28.2789515" lon="105.0473883"><ele>447.06</ele><time>2025-12-05T18:08:56.000Z</time></trkpt>
        <trkpt lat="28.2788683" lon="105.0474085"><ele>448.05</ele><time>2025-12-05T18:09:06.000Z</time></trkpt>
        <trkpt lat="28.2787754" lon="105.0473615"><ele>448.95</ele><time>2025-12-05T18:09:14.000Z</time></trkpt>
        <trkpt lat="28.27868" lon="105.0473016"><ele>449.97</ele><time>2025-12-05T18:09:22.000Z</time></trkpt>
        <trkpt lat="28.2785795" lon="105.0472632"><ele>450.17</ele><time>2025-12-05T18:09:30.000Z</time></trkpt>
        <trkpt lat="28.2784814" lon="105.0472697"><ele>449.63</ele><time>2025-12-05T18:09:38.000Z</time></trkpt>
        <trkpt lat="28.2783997" lon="105.0473345"><ele>449.41</ele><time>2025-12-05T18:09:46.000Z</time></trkpt>
        <trkpt lat="28.278337" lon="105.0474204"><ele>449.96</ele><time>2025-12-05T18:09:54.000Z</time></trkpt>
        <trkpt lat="28.2782751" lon="105.0475084"><ele>450.05</ele><time>2025-12-05T18:10:04.000Z</time></trkpt>
        <trkpt lat="28.2781898" lon="105.0475789"><ele>448.1</ele><time>2025-12-05T18:10:12.000Z</time></trkpt>
        <trkpt lat="28.2780889" lon="105.0476314"><ele>447.37</ele><time>2025-12-05T18:10:20.000Z</time></trkpt>
        <trkpt lat="28.2779844" lon="105.0476564"><ele>447.18</ele><time>2025-12-05T18:10:28.000Z</time></trkpt>
        <trkpt lat="28.2778764" lon="105.0476677"><ele>446.23</ele><time>2025-12-05T18:10:38.000Z</time></trkpt>
        <trkpt lat="28.2777818" lon="105.0477007"><ele>445.31</ele><time>2025-12-05T18:10:46.000Z</time></trkpt>
        <trkpt lat="28.2776935" lon="105.0477326"><ele>443.48</ele><time>2025-12-05T18:10:54.000Z</time></trkpt>
        <trkpt lat="28.2776011" lon="105.0477634"><ele>442.64</ele><time>2025-12-05T18:11:02.000Z</time></trkpt>
        <trkpt lat="28.2775152" lon="105.0477991"><ele>442.04</ele><time>2025-12-05T18:11:10.000Z</time></trkpt>
        <trkpt lat="28.277425" lon="105.04782"><ele>441.65</ele><time>2025-12-05T18:11:16.000Z</time></trkpt>
        <trkpt lat="28.2773324" lon="105.047812"><ele>440.11</ele><time>2025-12-05T18:11:22.000Z</time></trkpt>
        <trkpt lat="28.2772143" lon="105.047794"><ele>438.99</ele><time>2025-12-05T18:11:30.000Z</time></trkpt>
        <trkpt lat="28.2772344" lon="105.0477347"><ele>437.99</ele><time>2025-12-05T18:11:44.000Z</time></trkpt>
        <trkpt lat="28.2773382" lon="105.0477015"><ele>435.73</ele><time>2025-12-05T18:11:52.000Z</time></trkpt>
        <trkpt lat="28.2774485" lon="105.0476395"><ele>433.8</ele><time>2025-12-05T18:11:58.000Z</time></trkpt>
        <trkpt lat="28.2775588" lon="105.047572"><ele>432.26</ele><time>2025-12-05T18:12:06.000Z</time></trkpt>
        <trkpt lat="28.2776431" lon="105.0474964"><ele>429.82</ele><time>2025-12-05T18:12:16.000Z</time></trkpt>
        <trkpt lat="28.2776085" lon="105.0474225"><ele>427.9</ele><time>2025-12-05T18:12:24.000Z</time></trkpt>
        <trkpt lat="28.2775106" lon="105.0474211"><ele>426.76</ele><time>2025-12-05T18:12:32.000Z</time></trkpt>
        <trkpt lat="28.2773982" lon="105.0474088"><ele>426.28</ele><time>2025-12-05T18:12:42.000Z</time></trkpt>
        <trkpt lat="28.2772965" lon="105.0473834"><ele>424.46</ele><time>2025-12-05T18:12:50.000Z</time></trkpt>
        <trkpt lat="28.2771934" lon="105.0473545"><ele>421.71</ele><time>2025-12-05T18:12:56.000Z</time></trkpt>
        <trkpt lat="28.2771022" lon="105.0473115"><ele>420.54</ele><time>2025-12-05T18:13:02.000Z</time></trkpt>
        <trkpt lat="28.2770333" lon="105.0472325"><ele>420.32</ele><time>2025-12-05T18:13:10.000Z</time></trkpt>
        <trkpt lat="28.2770185" lon="105.0471213"><ele>420.51</ele><time>2025-12-05T18:13:22.000Z</time></trkpt>
        <trkpt lat="28.2770575" lon="105.0470097"><ele>419.72</ele><time>2025-12-05T18:13:30.000Z</time></trkpt>
        <trkpt lat="28.2770283" lon="105.0468994"><ele>419.78</ele><time>2025-12-05T18:13:40.000Z</time></trkpt>
        <trkpt lat="28.2769534" lon="105.0468166"><ele>418.63</ele><time>2025-12-05T18:13:52.000Z</time></trkpt>
        <trkpt lat="28.2768715" lon="105.0467374"><ele>418.45</ele><time>2025-12-05T18:14:06.000Z</time></trkpt>
        <trkpt lat="28.2768081" lon="105.0466426"><ele>419.42</ele><time>2025-12-05T18:14:14.000Z</time></trkpt>
        <trkpt lat="28.2767325" lon="105.0465651"><ele>421.48</ele><time>2025-12-05T18:14:28.000Z</time></trkpt>
        <trkpt lat="28.2766405" lon="105.0465196"><ele>421.43</ele><time>2025-12-05T18:14:38.000Z</time></trkpt>
        <trkpt lat="28.2765394" lon="105.0464832"><ele>421</ele><time>2025-12-05T18:14:50.000Z</time></trkpt>
        <trkpt lat="28.276498" lon="105.0463878"><ele>421.74</ele><time>2025-12-05T18:14:58.000Z</time></trkpt>
        <trkpt lat="28.2764723" lon="105.0463391"><ele>423.27</ele><time>2025-12-05T18:15:04.000Z</time></trkpt>
        <trkpt lat="28.2764537" lon="105.046249"><ele>423.37</ele><time>2025-12-05T18:17:06.000Z</time></trkpt>
        <trkpt lat="28.2764378" lon="105.0462521"><ele>422.87</ele><time>2025-12-05T18:17:12.000Z</time></trkpt>
        <trkpt lat="28.2763953" lon="105.0461742"><ele>422.11</ele><time>2025-12-05T18:17:38.000Z</time></trkpt>
        <trkpt lat="28.2763776" lon="105.0461447"><ele>421.41</ele><time>2025-12-05T18:17:42.000Z</time></trkpt>
        <trkpt lat="28.2763148" lon="105.046072"><ele>421.43</ele><time>2025-12-05T18:18:24.000Z</time></trkpt>
        <trkpt lat="28.2762734" lon="105.0460333"><ele>422.57</ele><time>2025-12-05T18:18:36.000Z</time></trkpt>
        <trkpt lat="28.2762007" lon="105.0459936"><ele>425.91</ele><time>2025-12-05T18:19:14.000Z</time></trkpt>
        <trkpt lat="28.2761376" lon="105.045922"><ele>427.26</ele><time>2025-12-05T18:19:34.000Z</time></trkpt>
        <trkpt lat="28.2760652" lon="105.0458483"><ele>429.86</ele><time>2025-12-05T18:19:44.000Z</time></trkpt>
        <trkpt lat="28.2759868" lon="105.0457714"><ele>431.08</ele><time>2025-12-05T18:19:52.000Z</time></trkpt>
        <trkpt lat="28.2759141" lon="105.0457013"><ele>429.57</ele><time>2025-12-05T18:20:00.000Z</time></trkpt>
        <trkpt lat="28.2759196" lon="105.0456631"><ele>428.39</ele><time>2025-12-05T18:20:08.000Z</time></trkpt>
        <trkpt lat="28.2758555" lon="105.0456409"><ele>426.59</ele><time>2025-12-05T18:21:12.000Z</time></trkpt>
        <trkpt lat="28.2757925" lon="105.0455511"><ele>423.33</ele><time>2025-12-05T18:21:28.000Z</time></trkpt>
        <trkpt lat="28.2757066" lon="105.0455122"><ele>422.45</ele><time>2025-12-05T18:21:42.000Z</time></trkpt>
        <trkpt lat="28.2756514" lon="105.0454299"><ele>423.96</ele><time>2025-12-05T18:21:54.000Z</time></trkpt>
        <trkpt lat="28.2755874" lon="105.0453536"><ele>425.21</ele><time>2025-12-05T18:22:26.000Z</time></trkpt>
        <trkpt lat="28.2755068" lon="105.0453641"><ele>428.93</ele><time>2025-12-05T18:22:38.000Z</time></trkpt>
        <trkpt lat="28.2754276" lon="105.045317"><ele>432.8</ele><time>2025-12-05T18:22:58.000Z</time></trkpt>
        <trkpt lat="28.2753394" lon="105.0452754"><ele>434.11</ele><time>2025-12-05T18:23:10.000Z</time></trkpt>
        <trkpt lat="28.2752417" lon="105.0452362"><ele>433.74</ele><time>2025-12-05T18:23:20.000Z</time></trkpt>
        <trkpt lat="28.2751469" lon="105.045183"><ele>434.73</ele><time>2025-12-05T18:23:30.000Z</time></trkpt>
        <trkpt lat="28.2750866" lon="105.0450982"><ele>433.76</ele><time>2025-12-05T18:23:52.000Z</time></trkpt>
        <trkpt lat="28.2749964" lon="105.0450641"><ele>434.54</ele><time>2025-12-05T18:24:04.000Z</time></trkpt>
        <trkpt lat="28.2748959" lon="105.045036"><ele>437.5</ele><time>2025-12-05T18:24:14.000Z</time></trkpt>
        <trkpt lat="28.2748053" lon="105.0449762"><ele>439.68</ele><time>2025-12-05T18:24:28.000Z</time></trkpt>
        <trkpt lat="28.274716" lon="105.0449324"><ele>440.55</ele><time>2025-12-05T18:24:40.000Z</time></trkpt>
        <trkpt lat="28.274622" lon="105.0448998"><ele>442.07</ele><time>2025-12-05T18:24:58.000Z</time></trkpt>
        <trkpt lat="28.2745205" lon="105.0448674"><ele>444.39</ele><time>2025-12-05T18:25:20.000Z</time></trkpt>
        <trkpt lat="28.2744272" lon="105.0448407"><ele>446.47</ele><time>2025-12-05T18:25:30.000Z</time></trkpt>
        <trkpt lat="28.2743416" lon="105.0447922"><ele>448.09</ele><time>2025-12-05T18:25:52.000Z</time></trkpt>
        <trkpt lat="28.2742578" lon="105.044827"><ele>450.1</ele><time>2025-12-05T18:26:08.000Z</time></trkpt>
        <trkpt lat="28.2742306" lon="105.0449582"><ele>452.28</ele><time>2025-12-05T18:29:14.000Z</time></trkpt>
        <trkpt lat="28.2741353" lon="105.0449409"><ele>456.36</ele><time>2025-12-05T18:30:46.000Z</time></trkpt>
        <trkpt lat="28.2740415" lon="105.0449767"><ele>460.07</ele><time>2025-12-05T18:31:00.000Z</time></trkpt>
        <trkpt lat="28.2739496" lon="105.0449879"><ele>461.99</ele><time>2025-12-05T18:32:34.000Z</time></trkpt>
        <trkpt lat="28.2738611" lon="105.0450149"><ele>467.58</ele><time>2025-12-05T18:33:32.000Z</time></trkpt>
        <trkpt lat="28.2737713" lon="105.0450488"><ele>467.85</ele><time>2025-12-05T18:35:20.000Z</time></trkpt>
        <trkpt lat="28.2737014" lon="105.045126"><ele>467.62</ele><time>2025-12-05T18:37:04.000Z</time></trkpt>
        <trkpt lat="28.2736124" lon="105.0451598"><ele>466.71</ele><time>2025-12-05T18:38:02.000Z</time></trkpt>
        <trkpt lat="28.2735156" lon="105.0451368"><ele>469.87</ele><time>2025-12-05T18:38:22.000Z</time></trkpt>
        <trkpt lat="28.2734213" lon="105.0451343"><ele>472.2</ele><time>2025-12-05T18:38:30.000Z</time></trkpt>
        <trkpt lat="28.2733268" lon="105.0451329"><ele>474.62</ele><time>2025-12-05T18:38:44.000Z</time></trkpt>
        <trkpt lat="28.2732553" lon="105.0451907"><ele>477.78</ele><time>2025-12-05T18:39:06.000Z</time></trkpt>
        <trkpt lat="28.2731676" lon="105.0452131"><ele>479.21</ele><time>2025-12-05T18:39:22.000Z</time></trkpt>
        <trkpt lat="28.2730744" lon="105.0452128"><ele>481.47</ele><time>2025-12-05T18:39:50.000Z</time></trkpt>
        <trkpt lat="28.2730637" lon="105.0452869"><ele>486.23</ele><time>2025-12-05T18:40:24.000Z</time></trkpt>
        <trkpt lat="28.2731241" lon="105.0453684"><ele>492.13</ele><time>2025-12-05T18:40:46.000Z</time></trkpt>
        <trkpt lat="28.2732192" lon="105.0454383"><ele>498.61</ele><time>2025-12-05T18:41:04.000Z</time></trkpt>
        <trkpt lat="28.2733123" lon="105.0454977"><ele>504.92</ele><time>2025-12-05T18:41:40.000Z</time></trkpt>
        <trkpt lat="28.2733943" lon="105.0455756"><ele>509.58</ele><time>2025-12-05T18:41:56.000Z</time></trkpt>
        <trkpt lat="28.2734763" lon="105.04564"><ele>513.36</ele><time>2025-12-05T18:42:16.000Z</time></trkpt>
        <trkpt lat="28.273519" lon="105.0457301"><ele>519.07</ele><time>2025-12-05T18:42:30.000Z</time></trkpt>
        <trkpt lat="28.2735346" lon="105.0458314"><ele>523.93</ele><time>2025-12-05T18:42:48.000Z</time></trkpt>
        <trkpt lat="28.2735805" lon="105.0459208"><ele>528.07</ele><time>2025-12-05T18:43:02.000Z</time></trkpt>
        <trkpt lat="28.2736198" lon="105.0460166"><ele>533.01</ele><time>2025-12-05T18:43:14.000Z</time></trkpt>
        <trkpt lat="28.2736982" lon="105.046052"><ele>535.17</ele><time>2025-12-05T18:43:32.000Z</time></trkpt>
        <trkpt lat="28.2737948" lon="105.0460429"><ele>539.21</ele><time>2025-12-05T18:44:20.000Z</time></trkpt>
        <trkpt lat="28.273826" lon="105.046029"><ele>542.73</ele><time>2025-12-05T18:44:26.000Z</time></trkpt>
        <trkpt lat="28.2739055" lon="105.0460308"><ele>544.81</ele><time>2025-12-05T18:46:30.000Z</time></trkpt>
        <trkpt lat="28.2739839" lon="105.0461082"><ele>546.48</ele><time>2025-12-05T18:46:40.000Z</time></trkpt>
        <trkpt lat="28.2740395" lon="105.0461994"><ele>547.8</ele><time>2025-12-05T18:46:50.000Z</time></trkpt>
        <trkpt lat="28.2740035" lon="105.0462902"><ele>549.32</ele><time>2025-12-05T18:47:02.000Z</time></trkpt>
        <trkpt lat="28.2739137" lon="105.0463163"><ele>549.78</ele><time>2025-12-05T18:47:10.000Z</time></trkpt>
        <trkpt lat="28.2737991" lon="105.0463141"><ele>551.04</ele><time>2025-12-05T18:47:18.000Z</time></trkpt>
        <trkpt lat="28.2736922" lon="105.0463189"><ele>552.21</ele><time>2025-12-05T18:47:26.000Z</time></trkpt>
        <trkpt lat="28.273584" lon="105.0463235"><ele>553.04</ele><time>2025-12-05T18:47:34.000Z</time></trkpt>
        <trkpt lat="28.2734872" lon="105.0463516"><ele>554.17</ele><time>2025-12-05T18:47:44.000Z</time></trkpt>
        <trkpt lat="28.2734527" lon="105.0464364"><ele>556.18</ele><time>2025-12-05T18:47:52.000Z</time></trkpt>
        <trkpt lat="28.2734631" lon="105.0465059"><ele>558.62</ele><time>2025-12-05T18:47:58.000Z</time></trkpt>
        <trkpt lat="28.2734716" lon="105.0464481"><ele>559.97</ele><time>2025-12-05T18:48:10.000Z</time></trkpt>
        <trkpt lat="28.2734234" lon="105.0463704"><ele>558.81</ele><time>2025-12-05T18:48:18.000Z</time></trkpt>
        <trkpt lat="28.2733387" lon="105.0463187"><ele>559.75</ele><time>2025-12-05T18:48:34.000Z</time></trkpt>
        <trkpt lat="28.2732345" lon="105.0462985"><ele>563.04</ele><time>2025-12-05T18:48:50.000Z</time></trkpt>
        <trkpt lat="28.2731306" lon="105.0462957"><ele>566.4</ele><time>2025-12-05T18:49:04.000Z</time></trkpt>
        <trkpt lat="28.2730263" lon="105.0463228"><ele>568.54</ele><time>2025-12-05T18:49:16.000Z</time></trkpt>
        <trkpt lat="28.2729484" lon="105.0463945"><ele>570.45</ele><time>2025-12-05T18:49:34.000Z</time></trkpt>
        <trkpt lat="28.2728497" lon="105.0464154"><ele>571.91</ele><time>2025-12-05T18:49:48.000Z</time></trkpt>
        <trkpt lat="28.2727538" lon="105.0464301"><ele>572.21</ele><time>2025-12-05T18:49:58.000Z</time></trkpt>
        <trkpt lat="28.2726609" lon="105.0464435"><ele>572.63</ele><time>2025-12-05T18:50:06.000Z</time></trkpt>
        <trkpt lat="28.2725639" lon="105.0464722"><ele>573.43</ele><time>2025-12-05T18:50:18.000Z</time></trkpt>
        <trkpt lat="28.2724637" lon="105.0464962"><ele>575.2</ele><time>2025-12-05T18:50:30.000Z</time></trkpt>
        <trkpt lat="28.272365" lon="105.0464929"><ele>577.15</ele><time>2025-12-05T18:50:40.000Z</time></trkpt>
        <trkpt lat="28.2722605" lon="105.046506"><ele>578.86</ele><time>2025-12-05T18:50:52.000Z</time></trkpt>
        <trkpt lat="28.2721613" lon="105.0465059"><ele>581.08</ele><time>2025-12-05T18:51:02.000Z</time></trkpt>
        <trkpt lat="28.2721469" lon="105.0464839"><ele>581.79</ele><time>2025-12-05T18:51:04.000Z</time></trkpt>
        <trkpt lat="28.272084" lon="105.0465023"><ele>581.14</ele><time>2025-12-05T18:51:44.000Z</time></trkpt>
        <trkpt lat="28.271988" lon="105.0465267"><ele>583.64</ele><time>2025-12-05T18:51:56.000Z</time></trkpt>
        <trkpt lat="28.2718903" lon="105.0465267"><ele>585.58</ele><time>2025-12-05T18:52:04.000Z</time></trkpt>
        <trkpt lat="28.2717982" lon="105.0465474"><ele>586.44</ele><time>2025-12-05T18:52:12.000Z</time></trkpt>
        <trkpt lat="28.271713" lon="105.0466045"><ele>586.59</ele><time>2025-12-05T18:52:20.000Z</time></trkpt>
        <trkpt lat="28.271653" lon="105.0466983"><ele>587.29</ele><time>2025-12-05T18:52:30.000Z</time></trkpt>
        <trkpt lat="28.2716242" lon="105.0468043"><ele>588.09</ele><time>2025-12-05T18:52:42.000Z</time></trkpt>
        <trkpt lat="28.2715902" lon="105.0469171"><ele>589.03</ele><time>2025-12-05T18:52:54.000Z</time></trkpt>
        <trkpt lat="28.2715644" lon="105.0470286"><ele>590.04</ele><time>2025-12-05T18:53:06.000Z</time></trkpt>
        <trkpt lat="28.2715538" lon="105.0471388"><ele>590.88</ele><time>2025-12-05T18:53:26.000Z</time></trkpt>
        <trkpt lat="28.2715173" lon="105.0472366"><ele>590.72</ele><time>2025-12-05T18:53:36.000Z</time></trkpt>
        <trkpt lat="28.2714982" lon="105.0473521"><ele>590.48</ele><time>2025-12-05T18:53:48.000Z</time></trkpt>
        <trkpt lat="28.2714263" lon="105.0473785"><ele>590.03</ele><time>2025-12-05T18:54:00.000Z</time></trkpt>
        <trkpt lat="28.2713575" lon="105.0473168"><ele>589.44</ele><time>2025-12-05T18:54:08.000Z</time></trkpt>
        <trkpt lat="28.2712649" lon="105.0472601"><ele>588.78</ele><time>2025-12-05T18:54:18.000Z</time></trkpt>
        <trkpt lat="28.2711685" lon="105.0472136"><ele>588.18</ele><time>2025-12-05T18:54:28.000Z</time></trkpt>
        <trkpt lat="28.271077" lon="105.0471763"><ele>587.68</ele><time>2025-12-05T18:54:38.000Z</time></trkpt>
        <trkpt lat="28.2709882" lon="105.0471284"><ele>586.54</ele><time>2025-12-05T18:54:50.000Z</time></trkpt>
        <trkpt lat="28.2708974" lon="105.0471206"><ele>585.12</ele><time>2025-12-05T18:55:02.000Z</time></trkpt>
        <trkpt lat="28.2708152" lon="105.0470741"><ele>584.05</ele><time>2025-12-05T18:55:14.000Z</time></trkpt>
        <trkpt lat="28.2707253" lon="105.0470345"><ele>584.32</ele><time>2025-12-05T18:55:26.000Z</time></trkpt>
        <trkpt lat="28.2706375" lon="105.0469739"><ele>583.68</ele><time>2025-12-05T18:55:36.000Z</time></trkpt>
        <trkpt lat="28.2705902" lon="105.046971"><ele>585.46</ele><time>2025-12-05T18:55:42.000Z</time></trkpt>
        <trkpt lat="28.2705048" lon="105.0469686"><ele>585.44</ele><time>2025-12-05T18:56:10.000Z</time></trkpt>
        <trkpt lat="28.2704121" lon="105.0470044"><ele>584.39</ele><time>2025-12-05T18:56:20.000Z</time></trkpt>
        <trkpt lat="28.2703152" lon="105.0469847"><ele>583.23</ele><time>2025-12-05T18:56:32.000Z</time></trkpt>
        <trkpt lat="28.2702444" lon="105.0469156"><ele>582.86</ele><time>2025-12-05T18:56:44.000Z</time></trkpt>
        <trkpt lat="28.2701613" lon="105.0468503"><ele>583.6</ele><time>2025-12-05T18:56:56.000Z</time></trkpt>
        <trkpt lat="28.270083" lon="105.0467719"><ele>585.14</ele><time>2025-12-05T18:57:08.000Z</time></trkpt>
        <trkpt lat="28.2699923" lon="105.0467483"><ele>586.13</ele><time>2025-12-05T18:57:22.000Z</time></trkpt>
        <trkpt lat="28.2699092" lon="105.0467982"><ele>587.89</ele><time>2025-12-05T18:57:36.000Z</time></trkpt>
        <trkpt lat="28.2698655" lon="105.0469009"><ele>588.88</ele><time>2025-12-05T18:57:46.000Z</time></trkpt>
        <trkpt lat="28.269787" lon="105.0469412"><ele>589.83</ele><time>2025-12-05T18:57:56.000Z</time></trkpt>
        <trkpt lat="28.2697241" lon="105.0468703"><ele>590.82</ele><time>2025-12-05T18:58:06.000Z</time></trkpt>
        <trkpt lat="28.2696441" lon="105.046819"><ele>591.97</ele><time>2025-12-05T18:58:14.000Z</time></trkpt>
        <trkpt lat="28.2695499" lon="105.0468136"><ele>592.45</ele><time>2025-12-05T18:58:22.000Z</time></trkpt>
        <trkpt lat="28.2694649" lon="105.0468621"><ele>591.99</ele><time>2025-12-05T18:58:30.000Z</time></trkpt>
        <trkpt lat="28.2693803" lon="105.0469181"><ele>592.15</ele><time>2025-12-05T18:58:38.000Z</time></trkpt>
        <trkpt lat="28.2692878" lon="105.0469595"><ele>591.82</ele><time>2025-12-05T18:58:48.000Z</time></trkpt>
        <trkpt lat="28.2691959" lon="105.0470083"><ele>592.06</ele><time>2025-12-05T18:58:58.000Z</time></trkpt>
        <trkpt lat="28.2691201" lon="105.0469708"><ele>592.54</ele><time>2025-12-05T18:59:06.000Z</time></trkpt>
        <trkpt lat="28.2690835" lon="105.0468655"><ele>592.32</ele><time>2025-12-05T18:59:14.000Z</time></trkpt>
        <trkpt lat="28.2690529" lon="105.0467538"><ele>592.11</ele><time>2025-12-05T18:59:22.000Z</time></trkpt>
        <trkpt lat="28.2689834" lon="105.0466839"><ele>591.79</ele><time>2025-12-05T18:59:30.000Z</time></trkpt>
        <trkpt lat="28.2689588" lon="105.0466509"><ele>592.12</ele><time>2025-12-05T18:59:34.000Z</time></trkpt>
        <trkpt lat="28.2688872" lon="105.0466542"><ele>592.07</ele><time>2025-12-05T18:59:50.000Z</time></trkpt>
        <trkpt lat="28.2687963" lon="105.0466674"><ele>592.01</ele><time>2025-12-05T19:00:20.000Z</time></trkpt>
        <trkpt lat="28.2686901" lon="105.046694"><ele>592.26</ele><time>2025-12-05T19:00:32.000Z</time></trkpt>
        <trkpt lat="28.2685902" lon="105.0467241"><ele>592.82</ele><time>2025-12-05T19:00:42.000Z</time></trkpt>
        <trkpt lat="28.2684908" lon="105.0467618"><ele>593.04</ele><time>2025-12-05T19:00:52.000Z</time></trkpt>
        <trkpt lat="28.2683882" lon="105.0468075"><ele>593.55</ele><time>2025-12-05T19:01:02.000Z</time></trkpt>
        <trkpt lat="28.2682933" lon="105.0468463"><ele>593.86</ele><time>2025-12-05T19:01:10.000Z</time></trkpt>
        <trkpt lat="28.2682051" lon="105.0468799"><ele>594.38</ele><time>2025-12-05T19:01:18.000Z</time></trkpt>
        <trkpt lat="28.2681115" lon="105.0469332"><ele>594.95</ele><time>2025-12-05T19:01:28.000Z</time></trkpt>
        <trkpt lat="28.2680253" lon="105.0469961"><ele>595.86</ele><time>2025-12-05T19:01:38.000Z</time></trkpt>
        <trkpt lat="28.2679298" lon="105.047046"><ele>596.62</ele><time>2025-12-05T19:01:48.000Z</time></trkpt>
        <trkpt lat="28.2678319" lon="105.0470821"><ele>597.83</ele><time>2025-12-05T19:01:58.000Z</time></trkpt>
        <trkpt lat="28.2677261" lon="105.0471099"><ele>598.77</ele><time>2025-12-05T19:02:08.000Z</time></trkpt>
        <trkpt lat="28.2676295" lon="105.0471373"><ele>599.4</ele><time>2025-12-05T19:02:18.000Z</time></trkpt>
        <trkpt lat="28.2675388" lon="105.0471709"><ele>600.5</ele><time>2025-12-05T19:02:28.000Z</time></trkpt>
        <trkpt lat="28.2674463" lon="105.0472113"><ele>601.26</ele><time>2025-12-05T19:02:38.000Z</time></trkpt>
        <trkpt lat="28.2673556" lon="105.0472515"><ele>601.85</ele><time>2025-12-05T19:02:48.000Z</time></trkpt>
        <trkpt lat="28.2672675" lon="105.0472916"><ele>602</ele><time>2025-12-05T19:02:58.000Z</time></trkpt>
        <trkpt lat="28.267171" lon="105.0473319"><ele>601.73</ele><time>2025-12-05T19:03:08.000Z</time></trkpt>
        <trkpt lat="28.2670742" lon="105.0473722"><ele>601.71</ele><time>2025-12-05T19:03:18.000Z</time></trkpt>
        <trkpt lat="28.2669696" lon="105.0474182"><ele>601.3</ele><time>2025-12-05T19:03:28.000Z</time></trkpt>
        <trkpt lat="28.2668741" lon="105.0474483"><ele>601.18</ele><time>2025-12-05T19:03:38.000Z</time></trkpt>
        <trkpt lat="28.2668272" lon="105.04737"><ele>601.17</ele><time>2025-12-05T19:03:50.000Z</time></trkpt>
        <trkpt lat="28.2667971" lon="105.0472587"><ele>600.8</ele><time>2025-12-05T19:04:00.000Z</time></trkpt>
        <trkpt lat="28.2667909" lon="105.0471408"><ele>600.31</ele><time>2025-12-05T19:04:10.000Z</time></trkpt>
        <trkpt lat="28.266757" lon="105.0470305"><ele>599.88</ele><time>2025-12-05T19:04:20.000Z</time></trkpt>
        <trkpt lat="28.2667365" lon="105.0469247"><ele>601.27</ele><time>2025-12-05T19:04:30.000Z</time></trkpt>
        <trkpt lat="28.2667179" lon="105.0468079"><ele>602.1</ele><time>2025-12-05T19:04:44.000Z</time></trkpt>
        <trkpt lat="28.2666851" lon="105.0467069"><ele>603.04</ele><time>2025-12-05T19:04:58.000Z</time></trkpt>
        <trkpt lat="28.2666055" lon="105.0466812"><ele>604.3</ele><time>2025-12-05T19:05:10.000Z</time></trkpt>
        <trkpt lat="28.2665229" lon="105.0466267"><ele>606.46</ele><time>2025-12-05T19:05:24.000Z</time></trkpt>
        <trkpt lat="28.2664407" lon="105.0465694"><ele>608.27</ele><time>2025-12-05T19:05:38.000Z</time></trkpt>
        <trkpt lat="28.2663507" lon="105.0465489"><ele>610.23</ele><time>2025-12-05T19:05:52.000Z</time></trkpt>
        <trkpt lat="28.2662585" lon="105.046555"><ele>612.36</ele><time>2025-12-05T19:06:10.000Z</time></trkpt>
        <trkpt lat="28.266166" lon="105.0465945"><ele>614.88</ele><time>2025-12-05T19:07:04.000Z</time></trkpt>
        <trkpt lat="28.2660756" lon="105.0466448"><ele>617.46</ele><time>2025-12-05T19:07:24.000Z</time></trkpt>
        <trkpt lat="28.2659834" lon="105.0466725"><ele>619.6</ele><time>2025-12-05T19:07:34.000Z</time></trkpt>
        <trkpt lat="28.2658832" lon="105.0466741"><ele>620.78</ele><time>2025-12-05T19:07:46.000Z</time></trkpt>
        <trkpt lat="28.2657895" lon="105.046671"><ele>622.38</ele><time>2025-12-05T19:07:56.000Z</time></trkpt>
        <trkpt lat="28.2656987" lon="105.0466721"><ele>623.34</ele><time>2025-12-05T19:08:04.000Z</time></trkpt>
        <trkpt lat="28.265595" lon="105.0466798"><ele>623.9</ele><time>2025-12-05T19:08:14.000Z</time></trkpt>
        <trkpt lat="28.2654941" lon="105.0466999"><ele>624.56</ele><time>2025-12-05T19:08:26.000Z</time></trkpt>
        <trkpt lat="28.2653943" lon="105.0467248"><ele>624.35</ele><time>2025-12-05T19:08:36.000Z</time></trkpt>
        <trkpt lat="28.2653033" lon="105.0467664"><ele>625.3</ele><time>2025-12-05T19:08:46.000Z</time></trkpt>
        <trkpt lat="28.2652233" lon="105.0468252"><ele>626.33</ele><time>2025-12-05T19:08:56.000Z</time></trkpt>
        <trkpt lat="28.265148" lon="105.0468864"><ele>626.46</ele><time>2025-12-05T19:09:04.000Z</time></trkpt>
        <trkpt lat="28.2650503" lon="105.0468855"><ele>626.91</ele><time>2025-12-05T19:09:14.000Z</time></trkpt>
        <trkpt lat="28.2649475" lon="105.0468504"><ele>627.05</ele><time>2025-12-05T19:09:24.000Z</time></trkpt>
        <trkpt lat="28.2648626" lon="105.0467933"><ele>627.4</ele><time>2025-12-05T19:09:32.000Z</time></trkpt>
        <trkpt lat="28.2647836" lon="105.046727"><ele>627.73</ele><time>2025-12-05T19:09:40.000Z</time></trkpt>
        <trkpt lat="28.2646976" lon="105.0466888"><ele>628.54</ele><time>2025-12-05T19:09:48.000Z</time></trkpt>
        <trkpt lat="28.2645977" lon="105.0466594"><ele>628.65</ele><time>2025-12-05T19:09:58.000Z</time></trkpt>
        <trkpt lat="28.2644949" lon="105.0466485"><ele>627.87</ele><time>2025-12-05T19:10:08.000Z</time></trkpt>
        <trkpt lat="28.2643831" lon="105.0466417"><ele>625.4</ele><time>2025-12-05T19:10:16.000Z</time></trkpt>
        <trkpt lat="28.2642816" lon="105.0466415"><ele>623.58</ele><time>2025-12-05T19:10:24.000Z</time></trkpt>
        <trkpt lat="28.2641823" lon="105.0466452"><ele>622.02</ele><time>2025-12-05T19:10:32.000Z</time></trkpt>
        <trkpt lat="28.2640823" lon="105.0466297"><ele>621.02</ele><time>2025-12-05T19:10:40.000Z</time></trkpt>
        <trkpt lat="28.2640049" lon="105.0466726"><ele>620.66</ele><time>2025-12-05T19:10:52.000Z</time></trkpt>
        <trkpt lat="28.2639149" lon="105.0466825"><ele>619.95</ele><time>2025-12-05T19:11:02.000Z</time></trkpt>
        <trkpt lat="28.2638174" lon="105.0466457"><ele>619.92</ele><time>2025-12-05T19:11:16.000Z</time></trkpt>
        <trkpt lat="28.26373" lon="105.0465944"><ele>619.53</ele><time>2025-12-05T19:11:30.000Z</time></trkpt>
        <trkpt lat="28.263645" lon="105.0465523"><ele>619.5</ele><time>2025-12-05T19:11:40.000Z</time></trkpt>
        <trkpt lat="28.2635593" lon="105.0465199"><ele>618.4</ele><time>2025-12-05T19:11:48.000Z</time></trkpt>
        <trkpt lat="28.2634572" lon="105.0465128"><ele>617.21</ele><time>2025-12-05T19:11:58.000Z</time></trkpt>
        <trkpt lat="28.2634238" lon="105.0465201"><ele>617.83</ele><time>2025-12-05T19:12:00.000Z</time></trkpt>
        <trkpt lat="28.2633959" lon="105.046454"><ele>618.26</ele><time>2025-12-05T19:12:12.000Z</time></trkpt>
        <trkpt lat="28.2633011" lon="105.0464415"><ele>616.21</ele><time>2025-12-05T19:12:34.000Z</time></trkpt>
        <trkpt lat="28.2632113" lon="105.0464925"><ele>614.44</ele><time>2025-12-05T19:12:42.000Z</time></trkpt>
        <trkpt lat="28.2631188" lon="105.046547"><ele>613.88</ele><time>2025-12-05T19:12:52.000Z</time></trkpt>
        <trkpt lat="28.2630334" lon="105.0466225"><ele>613.58</ele><time>2025-12-05T19:13:00.000Z</time></trkpt>
        <trkpt lat="28.2629655" lon="105.04672"><ele>612.62</ele><time>2025-12-05T19:13:12.000Z</time></trkpt>
        <trkpt lat="28.2628774" lon="105.0467705"><ele>610.94</ele><time>2025-12-05T19:13:22.000Z</time></trkpt>
        <trkpt lat="28.2627765" lon="105.0467975"><ele>612.29</ele><time>2025-12-05T19:13:34.000Z</time></trkpt>
        <trkpt lat="28.2626905" lon="105.0468432"><ele>613.23</ele><time>2025-12-05T19:13:42.000Z</time></trkpt>
        <trkpt lat="28.2626273" lon="105.0469143"><ele>614.42</ele><time>2025-12-05T19:13:52.000Z</time></trkpt>
        <trkpt lat="28.2625681" lon="105.0470074"><ele>614.05</ele><time>2025-12-05T19:14:04.000Z</time></trkpt>
        <trkpt lat="28.2624938" lon="105.0469958"><ele>615.07</ele><time>2025-12-05T19:14:24.000Z</time></trkpt>
        <trkpt lat="28.2624197" lon="105.0469204"><ele>615.12</ele><time>2025-12-05T19:14:40.000Z</time></trkpt>
        <trkpt lat="28.2623326" lon="105.04687"><ele>616.32</ele><time>2025-12-05T19:14:50.000Z</time></trkpt>
        <trkpt lat="28.2622434" lon="105.0468122"><ele>617.47</ele><time>2025-12-05T19:15:00.000Z</time></trkpt>
        <trkpt lat="28.2621462" lon="105.0467617"><ele>618.58</ele><time>2025-12-05T19:15:12.000Z</time></trkpt>
        <trkpt lat="28.2620505" lon="105.0467034"><ele>619.37</ele><time>2025-12-05T19:15:24.000Z</time></trkpt>
        <trkpt lat="28.2619513" lon="105.0466472"><ele>620.64</ele><time>2025-12-05T19:15:36.000Z</time></trkpt>
        <trkpt lat="28.2618559" lon="105.0465923"><ele>622.36</ele><time>2025-12-05T19:15:48.000Z</time></trkpt>
        <trkpt lat="28.2617679" lon="105.0465403"><ele>623.9</ele><time>2025-12-05T19:15:58.000Z</time></trkpt>
        <trkpt lat="28.2616657" lon="105.0464909"><ele>626.04</ele><time>2025-12-05T19:16:08.000Z</time></trkpt>
        <trkpt lat="28.2615789" lon="105.0464364"><ele>628.6</ele><time>2025-12-05T19:16:16.000Z</time></trkpt>
        <trkpt lat="28.2614971" lon="105.0463687"><ele>630.79</ele><time>2025-12-05T19:16:26.000Z</time></trkpt>
        <trkpt lat="28.2614142" lon="105.0463088"><ele>633.08</ele><time>2025-12-05T19:16:36.000Z</time></trkpt>
        <trkpt lat="28.2613406" lon="105.0462343"><ele>635.1</ele><time>2025-12-05T19:16:46.000Z</time></trkpt>
        <trkpt lat="28.2612838" lon="105.0461407"><ele>636.19</ele><time>2025-12-05T19:16:56.000Z</time></trkpt>
        <trkpt lat="28.2611994" lon="105.0461266"><ele>637.29</ele><time>2025-12-05T19:17:18.000Z</time></trkpt>
        <trkpt lat="28.2610993" lon="105.04616"><ele>637.9</ele><time>2025-12-05T19:17:28.000Z</time></trkpt>
        <trkpt lat="28.260995" lon="105.0461803"><ele>638.61</ele><time>2025-12-05T19:17:38.000Z</time></trkpt>
        <trkpt lat="28.2608839" lon="105.0461951"><ele>639.33</ele><time>2025-12-05T19:17:48.000Z</time></trkpt>
        <trkpt lat="28.2607764" lon="105.0462213"><ele>640.77</ele><time>2025-12-05T19:17:58.000Z</time></trkpt>
        <trkpt lat="28.2607379" lon="105.0462489"><ele>641.36</ele><time>2025-12-05T19:18:04.000Z</time></trkpt>
        <trkpt lat="28.2607502" lon="105.0463412"><ele>641.13</ele><time>2025-12-05T19:19:04.000Z</time></trkpt>
        <trkpt lat="28.2607607" lon="105.0464087"><ele>640.02</ele><time>2025-12-05T19:19:12.000Z</time></trkpt>
        <trkpt lat="28.2606933" lon="105.0464432"><ele>639.46</ele><time>2025-12-05T19:19:48.000Z</time></trkpt>
        <trkpt lat="28.2607011" lon="105.0463738"><ele>636.53</ele><time>2025-12-05T19:19:54.000Z</time></trkpt>
        <trkpt lat="28.2606958" lon="105.046347"><ele>635.02</ele><time>2025-12-05T19:20:14.000Z</time></trkpt>
        <trkpt lat="28.2606709" lon="105.0464278"><ele>633.38</ele><time>2025-12-05T19:20:40.000Z</time></trkpt>
        <trkpt lat="28.2605961" lon="105.0464906"><ele>635.51</ele><time>2025-12-05T19:20:54.000Z</time></trkpt>
        <trkpt lat="28.2605283" lon="105.0464491"><ele>637.5</ele><time>2025-12-05T19:21:06.000Z</time></trkpt>
        <trkpt lat="28.260498" lon="105.0463477"><ele>638.36</ele><time>2025-12-05T19:21:16.000Z</time></trkpt>
        <trkpt lat="28.2604541" lon="105.0462475"><ele>639.94</ele><time>2025-12-05T19:21:32.000Z</time></trkpt>
        <trkpt lat="28.2603813" lon="105.0462668"><ele>641.9</ele><time>2025-12-05T19:21:52.000Z</time></trkpt>
        <trkpt lat="28.2602926" lon="105.0463024"><ele>643.99</ele><time>2025-12-05T19:22:14.000Z</time></trkpt>
        <trkpt lat="28.2602268" lon="105.0464015"><ele>646.81</ele><time>2025-12-05T19:22:58.000Z</time></trkpt>
        <trkpt lat="28.260187" lon="105.0464401"><ele>652.45</ele><time>2025-12-05T19:23:02.000Z</time></trkpt>
        <trkpt lat="28.2601268" lon="105.0465099"><ele>654.66</ele><time>2025-12-05T19:23:46.000Z</time></trkpt>
        <trkpt lat="28.2600543" lon="105.0465881"><ele>658.75</ele><time>2025-12-05T19:24:02.000Z</time></trkpt>
        <trkpt lat="28.259996" lon="105.046677"><ele>662.1</ele><time>2025-12-05T19:24:12.000Z</time></trkpt>
        <trkpt lat="28.2599393" lon="105.0467647"><ele>663.84</ele><time>2025-12-05T19:24:22.000Z</time></trkpt>
        <trkpt lat="28.2598734" lon="105.0468426"><ele>664.81</ele><time>2025-12-05T19:24:32.000Z</time></trkpt>
        <trkpt lat="28.2597963" lon="105.0469079"><ele>665.16</ele><time>2025-12-05T19:24:42.000Z</time></trkpt>
        <trkpt lat="28.2597282" lon="105.0469775"><ele>665.61</ele><time>2025-12-05T19:24:52.000Z</time></trkpt>
        <trkpt lat="28.2596582" lon="105.0470426"><ele>665.43</ele><time>2025-12-05T19:25:00.000Z</time></trkpt>
        <trkpt lat="28.2595883" lon="105.0471076"><ele>664.85</ele><time>2025-12-05T19:25:08.000Z</time></trkpt>
        <trkpt lat="28.2594956" lon="105.0471383"><ele>664.96</ele><time>2025-12-05T19:25:18.000Z</time></trkpt>
        <trkpt lat="28.2593907" lon="105.0471683"><ele>665.38</ele><time>2025-12-05T19:25:28.000Z</time></trkpt>
        <trkpt lat="28.2592882" lon="105.0471957"><ele>667.03</ele><time>2025-12-05T19:25:40.000Z</time></trkpt>
        <trkpt lat="28.2591958" lon="105.0472348"><ele>667.45</ele><time>2025-12-05T19:25:48.000Z</time></trkpt>
        <trkpt lat="28.2590954" lon="105.0472827"><ele>667.82</ele><time>2025-12-05T19:25:58.000Z</time></trkpt>
        <trkpt lat="28.2590065" lon="105.0473238"><ele>667.48</ele><time>2025-12-05T19:26:06.000Z</time></trkpt>
        <trkpt lat="28.2589285" lon="105.0473872"><ele>667.16</ele><time>2025-12-05T19:26:16.000Z</time></trkpt>
        <trkpt lat="28.2588582" lon="105.0474678"><ele>665.84</ele><time>2025-12-05T19:26:26.000Z</time></trkpt>
        <trkpt lat="28.2587806" lon="105.0475288"><ele>664.74</ele><time>2025-12-05T19:26:36.000Z</time></trkpt>
        <trkpt lat="28.2586993" lon="105.0475979"><ele>663.53</ele><time>2025-12-05T19:26:48.000Z</time></trkpt>
        <trkpt lat="28.2586355" lon="105.047678"><ele>661.79</ele><time>2025-12-05T19:26:58.000Z</time></trkpt>
        <trkpt lat="28.2585838" lon="105.0477799"><ele>660.83</ele><time>2025-12-05T19:27:08.000Z</time></trkpt>
        <trkpt lat="28.2585357" lon="105.0478918"><ele>660.63</ele><time>2025-12-05T19:27:18.000Z</time></trkpt>
        <trkpt lat="28.2585068" lon="105.0480078"><ele>661.4</ele><time>2025-12-05T19:27:28.000Z</time></trkpt>
        <trkpt lat="28.2585215" lon="105.0479569"><ele>662.29</ele><time>2025-12-05T19:27:46.000Z</time></trkpt>
        <trkpt lat="28.2585647" lon="105.0478445"><ele>662.37</ele><time>2025-12-05T19:27:54.000Z</time></trkpt>
        <trkpt lat="28.2585543" lon="105.0478706"><ele>662.39</ele><time>2025-12-05T19:28:18.000Z</time></trkpt>
        <trkpt lat="28.2585296" lon="105.0479675"><ele>663.38</ele><time>2025-12-05T19:28:28.000Z</time></trkpt>
        <trkpt lat="28.2584445" lon="105.0480032"><ele>663.82</ele><time>2025-12-05T19:28:36.000Z</time></trkpt>
        <trkpt lat="28.2583643" lon="105.0479717"><ele>665.2</ele><time>2025-12-05T19:28:46.000Z</time></trkpt>
        <trkpt lat="28.2583093" lon="105.0478765"><ele>667.28</ele><time>2025-12-05T19:29:30.000Z</time></trkpt>
        <trkpt lat="28.2582279" lon="105.0478208"><ele>667.6</ele><time>2025-12-05T19:29:42.000Z</time></trkpt>
        <trkpt lat="28.258182" lon="105.0477276"><ele>667.95</ele><time>2025-12-05T19:29:56.000Z</time></trkpt>
        <trkpt lat="28.2581488" lon="105.0476214"><ele>670.23</ele><time>2025-12-05T19:30:10.000Z</time></trkpt>
        <trkpt lat="28.2580907" lon="105.0475199"><ele>672</ele><time>2025-12-05T19:30:24.000Z</time></trkpt>
        <trkpt lat="28.258066" lon="105.0475124"><ele>674.17</ele><time>2025-12-05T19:30:26.000Z</time></trkpt>
        <trkpt lat="28.2579909" lon="105.047536"><ele>675.49</ele><time>2025-12-05T19:30:42.000Z</time></trkpt>
        <trkpt lat="28.2579075" lon="105.0475996"><ele>677.61</ele><time>2025-12-05T19:30:58.000Z</time></trkpt>
        <trkpt lat="28.257819" lon="105.047657"><ele>678.02</ele><time>2025-12-05T19:31:12.000Z</time></trkpt>
        <trkpt lat="28.2577175" lon="105.047688"><ele>677.73</ele><time>2025-12-05T19:31:24.000Z</time></trkpt>
        <trkpt lat="28.257621" lon="105.0477009"><ele>678.55</ele><time>2025-12-05T19:31:34.000Z</time></trkpt>
        <trkpt lat="28.2575318" lon="105.0476786"><ele>679.66</ele><time>2025-12-05T19:31:44.000Z</time></trkpt>
        <trkpt lat="28.257515" lon="105.0476156"><ele>678.64</ele><time>2025-12-05T19:31:58.000Z</time></trkpt>
        <trkpt lat="28.25748" lon="105.0476615"><ele>675.97</ele><time>2025-12-05T19:32:26.000Z</time></trkpt>
        <trkpt lat="28.2574063" lon="105.0477242"><ele>673.27</ele><time>2025-12-05T19:32:36.000Z</time></trkpt>
        <trkpt lat="28.2573873" lon="105.0478316"><ele>673.17</ele><time>2025-12-05T19:32:44.000Z</time></trkpt>
        <trkpt lat="28.2573751" lon="105.0479477"><ele>676.04</ele><time>2025-12-05T19:32:54.000Z</time></trkpt>
        <trkpt lat="28.2574061" lon="105.0480586"><ele>680.49</ele><time>2025-12-05T19:33:06.000Z</time></trkpt>
        <trkpt lat="28.2574589" lon="105.0481541"><ele>683.47</ele><time>2025-12-05T19:33:16.000Z</time></trkpt>
        <trkpt lat="28.2574733" lon="105.0482591"><ele>684.95</ele><time>2025-12-05T19:33:30.000Z</time></trkpt>
        <trkpt lat="28.2574103" lon="105.0483119"><ele>686.07</ele><time>2025-12-05T19:33:48.000Z</time></trkpt>
        <trkpt lat="28.2573308" lon="105.0482732"><ele>686.77</ele><time>2025-12-05T19:33:56.000Z</time></trkpt>
        <trkpt lat="28.2572265" lon="105.048219"><ele>687.15</ele><time>2025-12-05T19:34:06.000Z</time></trkpt>
        <trkpt lat="28.2571251" lon="105.0481811"><ele>688.26</ele><time>2025-12-05T19:34:16.000Z</time></trkpt>
        <trkpt lat="28.2570233" lon="105.0481531"><ele>689.4</ele><time>2025-12-05T19:34:26.000Z</time></trkpt>
        <trkpt lat="28.2569228" lon="105.0481101"><ele>690.96</ele><time>2025-12-05T19:34:42.000Z</time></trkpt>
        <trkpt lat="28.2568433" lon="105.0480483"><ele>693.52</ele><time>2025-12-05T19:34:54.000Z</time></trkpt>
        <trkpt lat="28.2567599" lon="105.0479969"><ele>694.67</ele><time>2025-12-05T19:35:04.000Z</time></trkpt>
        <trkpt lat="28.2566882" lon="105.0479313"><ele>696.05</ele><time>2025-12-05T19:35:16.000Z</time></trkpt>
        <trkpt lat="28.256618" lon="105.0478606"><ele>698.18</ele><time>2025-12-05T19:35:26.000Z</time></trkpt>
        <trkpt lat="28.2565353" lon="105.0477974"><ele>701.2</ele><time>2025-12-05T19:35:38.000Z</time></trkpt>
        <trkpt lat="28.2564474" lon="105.0477411"><ele>705.02</ele><time>2025-12-05T19:35:50.000Z</time></trkpt>
        <trkpt lat="28.2563626" lon="105.0476813"><ele>707.8</ele><time>2025-12-05T19:36:02.000Z</time></trkpt>
        <trkpt lat="28.2562862" lon="105.0476208"><ele>710.54</ele><time>2025-12-05T19:36:12.000Z</time></trkpt>
        <trkpt lat="28.2561896" lon="105.047589"><ele>713.46</ele><time>2025-12-05T19:36:22.000Z</time></trkpt>
        <trkpt lat="28.2560977" lon="105.0475662"><ele>714.95</ele><time>2025-12-05T19:36:34.000Z</time></trkpt>
        <trkpt lat="28.2560038" lon="105.0475189"><ele>716.29</ele><time>2025-12-05T19:36:46.000Z</time></trkpt>
        <trkpt lat="28.2559494" lon="105.0474283"><ele>717.63</ele><time>2025-12-05T19:36:58.000Z</time></trkpt>
        <trkpt lat="28.2559735" lon="105.047331"><ele>718.41</ele><time>2025-12-05T19:37:08.000Z</time></trkpt>
        <trkpt lat="28.2560109" lon="105.0472249"><ele>718.52</ele><time>2025-12-05T19:37:18.000Z</time></trkpt>
        <trkpt lat="28.2559879" lon="105.0471321"><ele>718.67</ele><time>2025-12-05T19:37:34.000Z</time></trkpt>
        <trkpt lat="28.2559035" lon="105.0471254"><ele>719.76</ele><time>2025-12-05T19:37:46.000Z</time></trkpt>
        <trkpt lat="28.2558503" lon="105.0471374"><ele>721.89</ele><time>2025-12-05T19:37:54.000Z</time></trkpt>
        <trkpt lat="28.2558257" lon="105.047065"><ele>723.83</ele><time>2025-12-05T19:38:30.000Z</time></trkpt>
        <trkpt lat="28.2557569" lon="105.0470085"><ele>726.71</ele><time>2025-12-05T19:38:48.000Z</time></trkpt>
        <trkpt lat="28.2556807" lon="105.0469404"><ele>728.27</ele><time>2025-12-05T19:39:04.000Z</time></trkpt>
        <trkpt lat="28.2555874" lon="105.0469131"><ele>731.98</ele><time>2025-12-05T19:39:22.000Z</time></trkpt>
        <trkpt lat="28.2554931" lon="105.0468731"><ele>734.75</ele><time>2025-12-05T19:39:38.000Z</time></trkpt>
        <trkpt lat="28.255403" lon="105.0468971"><ele>737.71</ele><time>2025-12-05T19:39:52.000Z</time></trkpt>
        <trkpt lat="28.2553504" lon="105.0468377"><ele>739.23</ele><time>2025-12-05T19:40:04.000Z</time></trkpt>
        <trkpt lat="28.2552734" lon="105.0468457"><ele>741.94</ele><time>2025-12-05T19:40:22.000Z</time></trkpt>
        <trkpt lat="28.2551942" lon="105.046815"><ele>742.75</ele><time>2025-12-05T19:40:36.000Z</time></trkpt>
        <trkpt lat="28.2551138" lon="105.0467576"><ele>743.99</ele><time>2025-12-05T19:40:56.000Z</time></trkpt>
        <trkpt lat="28.255034" lon="105.0466986"><ele>747.3</ele><time>2025-12-05T19:41:14.000Z</time></trkpt>
        <trkpt lat="28.2549564" lon="105.0466386"><ele>750.99</ele><time>2025-12-05T19:45:36.000Z</time></trkpt>
        <trkpt lat="28.2549276" lon="105.0465374"><ele>755.24</ele><time>2025-12-05T19:45:54.000Z</time></trkpt>
        <trkpt lat="28.2549355" lon="105.0464356"><ele>759.43</ele><time>2025-12-05T19:46:08.000Z</time></trkpt>
        <trkpt lat="28.2548971" lon="105.0463485"><ele>762.83</ele><time>2025-12-05T19:46:26.000Z</time></trkpt>
        <trkpt lat="28.2548138" lon="105.0463602"><ele>765.9</ele><time>2025-12-05T19:46:38.000Z</time></trkpt>
        <trkpt lat="28.2547218" lon="105.0464032"><ele>767.89</ele><time>2025-12-05T19:46:50.000Z</time></trkpt>
        <trkpt lat="28.2546332" lon="105.0464691"><ele>770.04</ele><time>2025-12-05T19:47:14.000Z</time></trkpt>
        <trkpt lat="28.2545523" lon="105.0465461"><ele>772.3</ele><time>2025-12-05T19:47:32.000Z</time></trkpt>
        <trkpt lat="28.2544639" lon="105.0466399"><ele>773.16</ele><time>2025-12-05T19:47:54.000Z</time></trkpt>
        <trkpt lat="28.2544543" lon="105.0466463"><ele>777.24</ele><time>2025-12-05T19:47:58.000Z</time></trkpt>
        <trkpt lat="28.254402" lon="105.046679"><ele>779.5</ele><time>2025-12-05T19:48:44.000Z</time></trkpt>
        <trkpt lat="28.2543176" lon="105.0466784"><ele>780.47</ele><time>2025-12-05T19:49:18.000Z</time></trkpt>
        <trkpt lat="28.2542598" lon="105.0466036"><ele>781.96</ele><time>2025-12-05T19:49:36.000Z</time></trkpt>
        <trkpt lat="28.2542049" lon="105.0464901"><ele>785.71</ele><time>2025-12-05T19:49:50.000Z</time></trkpt>
        <trkpt lat="28.2541381" lon="105.0464041"><ele>788.1</ele><time>2025-12-05T19:50:04.000Z</time></trkpt>
        <trkpt lat="28.2540816" lon="105.0463143"><ele>788.98</ele><time>2025-12-05T19:50:34.000Z</time></trkpt>
        <trkpt lat="28.2540251" lon="105.0462288"><ele>793.15</ele><time>2025-12-05T19:50:46.000Z</time></trkpt>
        <trkpt lat="28.2539643" lon="105.0462057"><ele>796.04</ele><time>2025-12-05T19:50:58.000Z</time></trkpt>
        <trkpt lat="28.253892" lon="105.0461576"><ele>797.39</ele><time>2025-12-05T19:51:18.000Z</time></trkpt>
        <trkpt lat="28.2538761" lon="105.0462392"><ele>798.22</ele><time>2025-12-05T19:51:46.000Z</time></trkpt>
        <trkpt lat="28.2538053" lon="105.0462722"><ele>799.39</ele><time>2025-12-05T19:52:00.000Z</time></trkpt>
        <trkpt lat="28.2537283" lon="105.0462386"><ele>800.03</ele><time>2025-12-05T19:52:30.000Z</time></trkpt>
        <trkpt lat="28.2536639" lon="105.0461593"><ele>801.69</ele><time>2025-12-05T19:52:46.000Z</time></trkpt>
        <trkpt lat="28.2535902" lon="105.0460906"><ele>804.54</ele><time>2025-12-05T19:52:58.000Z</time></trkpt>
        <trkpt lat="28.2535064" lon="105.0460341"><ele>806.64</ele><time>2025-12-05T19:53:10.000Z</time></trkpt>
        <trkpt lat="28.2534341" lon="105.0459636"><ele>806.99</ele><time>2025-12-05T19:53:22.000Z</time></trkpt>
        <trkpt lat="28.2534314" lon="105.0458645"><ele>808.54</ele><time>2025-12-05T19:53:36.000Z</time></trkpt>
        <trkpt lat="28.2535062" lon="105.0457972"><ele>811.53</ele><time>2025-12-05T19:53:46.000Z</time></trkpt>
        <trkpt lat="28.253611" lon="105.0457705"><ele>814.3</ele><time>2025-12-05T19:53:56.000Z</time></trkpt>
        <trkpt lat="28.2537238" lon="105.0457622"><ele>816.88</ele><time>2025-12-05T19:54:06.000Z</time></trkpt>
        <trkpt lat="28.2538291" lon="105.0457604"><ele>820.01</ele><time>2025-12-05T19:54:18.000Z</time></trkpt>
        <trkpt lat="28.25393" lon="105.0457369"><ele>824.96</ele><time>2025-12-05T19:54:32.000Z</time></trkpt>
        <trkpt lat="28.2540307" lon="105.0457111"><ele>828.98</ele><time>2025-12-05T19:54:44.000Z</time></trkpt>
        <trkpt lat="28.2540709" lon="105.0457065"><ele>832.54</ele><time>2025-12-05T19:54:50.000Z</time></trkpt>
        <trkpt lat="28.254138" lon="105.0456632"><ele>834.84</ele><time>2025-12-05T19:55:46.000Z</time></trkpt>
        <trkpt lat="28.2542103" lon="105.0455937"><ele>836.81</ele><time>2025-12-05T19:56:04.000Z</time></trkpt>
        <trkpt lat="28.2542763" lon="105.0455156"><ele>839.5</ele><time>2025-12-05T19:56:14.000Z</time></trkpt>
        <trkpt lat="28.2543389" lon="105.0454247"><ele>841.29</ele><time>2025-12-05T19:56:24.000Z</time></trkpt>
        <trkpt lat="28.2543842" lon="105.0453278"><ele>843.36</ele><time>2025-12-05T19:56:34.000Z</time></trkpt>
        <trkpt lat="28.2543593" lon="105.0452169"><ele>844.87</ele><time>2025-12-05T19:56:46.000Z</time></trkpt>
        <trkpt lat="28.254291" lon="105.0451174"><ele>846.09</ele><time>2025-12-05T19:56:56.000Z</time></trkpt>
        <trkpt lat="28.254207" lon="105.0450395"><ele>846.15</ele><time>2025-12-05T19:57:06.000Z</time></trkpt>
        <trkpt lat="28.2541036" lon="105.0449849"><ele>845.5</ele><time>2025-12-05T19:57:16.000Z</time></trkpt>
        <trkpt lat="28.2539965" lon="105.0449348"><ele>844.66</ele><time>2025-12-05T19:57:26.000Z</time></trkpt>
        <trkpt lat="28.2539064" lon="105.0448716"><ele>844.13</ele><time>2025-12-05T19:57:36.000Z</time></trkpt>
        <trkpt lat="28.2538198" lon="105.0448058"><ele>843.18</ele><time>2025-12-05T19:57:48.000Z</time></trkpt>
        <trkpt lat="28.2537297" lon="105.0447468"><ele>842.66</ele><time>2025-12-05T19:57:58.000Z</time></trkpt>
        <trkpt lat="28.2536416" lon="105.0447085"><ele>842.11</ele><time>2025-12-05T19:58:08.000Z</time></trkpt>
        <trkpt lat="28.2536197" lon="105.044623"><ele>840.41</ele><time>2025-12-05T19:58:20.000Z</time></trkpt>
        <trkpt lat="28.2536687" lon="105.044526"><ele>841.06</ele><time>2025-12-05T19:58:30.000Z</time></trkpt>
        <trkpt lat="28.253724" lon="105.0444181"><ele>842.78</ele><time>2025-12-05T19:58:40.000Z</time></trkpt>
        <trkpt lat="28.2537866" lon="105.0443273"><ele>844.34</ele><time>2025-12-05T19:58:50.000Z</time></trkpt>
        <trkpt lat="28.2538766" lon="105.0443001"><ele>846.14</ele><time>2025-12-05T19:59:00.000Z</time></trkpt>
        <trkpt lat="28.2539837" lon="105.0443224"><ele>846.89</ele><time>2025-12-05T19:59:10.000Z</time></trkpt>
        <trkpt lat="28.2540776" lon="105.0443727"><ele>846.69</ele><time>2025-12-05T19:59:30.000Z</time></trkpt>
        <trkpt lat="28.2541736" lon="105.0443297"><ele>847.74</ele><time>2025-12-05T20:02:36.000Z</time></trkpt>
        <trkpt lat="28.2542724" lon="105.0442672"><ele>849.48</ele><time>2025-12-05T20:02:44.000Z</time></trkpt>
        <trkpt lat="28.2543673" lon="105.0442088"><ele>850.46</ele><time>2025-12-05T20:02:52.000Z</time></trkpt>
        <trkpt lat="28.2544548" lon="105.0441674"><ele>851.64</ele><time>2025-12-05T20:03:00.000Z</time></trkpt>
        <trkpt lat="28.2545511" lon="105.0441742"><ele>852.09</ele><time>2025-12-05T20:03:10.000Z</time></trkpt>
        <trkpt lat="28.2546485" lon="105.0441919"><ele>852.28</ele><time>2025-12-05T20:03:20.000Z</time></trkpt>
        <trkpt lat="28.2547267" lon="105.0441431"><ele>853.59</ele><time>2025-12-05T20:03:30.000Z</time></trkpt>
        <trkpt lat="28.2548092" lon="105.0440737"><ele>854.89</ele><time>2025-12-05T20:03:38.000Z</time></trkpt>
        <trkpt lat="28.2549022" lon="105.0440233"><ele>856.3</ele><time>2025-12-05T20:03:46.000Z</time></trkpt>
        <trkpt lat="28.2549874" lon="105.0440683"><ele>858.03</ele><time>2025-12-05T20:03:56.000Z</time></trkpt>
        <trkpt lat="28.2550308" lon="105.0441688"><ele>859.45</ele><time>2025-12-05T20:04:06.000Z</time></trkpt>
        <trkpt lat="28.2550641" lon="105.0442782"><ele>859.86</ele><time>2025-12-05T20:04:16.000Z</time></trkpt>
        <trkpt lat="28.2551402" lon="105.0443423"><ele>860.53</ele><time>2025-12-05T20:04:28.000Z</time></trkpt>
        <trkpt lat="28.2552319" lon="105.0443517"><ele>861.09</ele><time>2025-12-05T20:04:38.000Z</time></trkpt>
        <trkpt lat="28.255331" lon="105.0443124"><ele>861.01</ele><time>2025-12-05T20:04:48.000Z</time></trkpt>
        <trkpt lat="28.2554287" lon="105.044242"><ele>861.17</ele><time>2025-12-05T20:04:58.000Z</time></trkpt>
        <trkpt lat="28.255525" lon="105.0441668"><ele>862.11</ele><time>2025-12-05T20:05:08.000Z</time></trkpt>
        <trkpt lat="28.2556082" lon="105.0440836"><ele>863.89</ele><time>2025-12-05T20:05:18.000Z</time></trkpt>
        <trkpt lat="28.2556924" lon="105.0440268"><ele>866.7</ele><time>2025-12-05T20:05:30.000Z</time></trkpt>
        <trkpt lat="28.2557552" lon="105.0440899"><ele>868.78</ele><time>2025-12-05T20:05:42.000Z</time></trkpt>
        <trkpt lat="28.2558086" lon="105.0442086"><ele>869.5</ele><time>2025-12-05T20:05:52.000Z</time></trkpt>
        <trkpt lat="28.2558526" lon="105.0443239"><ele>870.42</ele><time>2025-12-05T20:06:00.000Z</time></trkpt>
        <trkpt lat="28.2559018" lon="105.0444406"><ele>870.89</ele><time>2025-12-05T20:06:10.000Z</time></trkpt>
        <trkpt lat="28.2559781" lon="105.0445265"><ele>872.18</ele><time>2025-12-05T20:06:20.000Z</time></trkpt>
        <trkpt lat="28.2560744" lon="105.0445537"><ele>874.24</ele><time>2025-12-05T20:06:30.000Z</time></trkpt>
        <trkpt lat="28.2561708" lon="105.0445641"><ele>876.66</ele><time>2025-12-05T20:06:38.000Z</time></trkpt>
        <trkpt lat="28.2562731" lon="105.0445954"><ele>879.13</ele><time>2025-12-05T20:06:48.000Z</time></trkpt>
        <trkpt lat="28.2563765" lon="105.0446187"><ele>882.27</ele><time>2025-12-05T20:06:58.000Z</time></trkpt>
        <trkpt lat="28.2564765" lon="105.0446046"><ele>883.93</ele><time>2025-12-05T20:07:10.000Z</time></trkpt>
        <trkpt lat="28.2565487" lon="105.0445376"><ele>885.53</ele><time>2025-12-05T20:07:24.000Z</time></trkpt>
        <trkpt lat="28.2565217" lon="105.0444489"><ele>888.02</ele><time>2025-12-05T20:07:38.000Z</time></trkpt>
        <trkpt lat="28.2564504" lon="105.0443568"><ele>890.42</ele><time>2025-12-05T20:07:50.000Z</time></trkpt>
        <trkpt lat="28.2563741" lon="105.0442651"><ele>892.68</ele><time>2025-12-05T20:08:04.000Z</time></trkpt>
        <trkpt lat="28.2563074" lon="105.0441777"><ele>895.4</ele><time>2025-12-05T20:08:16.000Z</time></trkpt>
        <trkpt lat="28.2562292" lon="105.0440963"><ele>898</ele><time>2025-12-05T20:08:26.000Z</time></trkpt>
        <trkpt lat="28.2561618" lon="105.0440011"><ele>899</ele><time>2025-12-05T20:08:36.000Z</time></trkpt>
        <trkpt lat="28.2560987" lon="105.0439065"><ele>899.44</ele><time>2025-12-05T20:08:48.000Z</time></trkpt>
        <trkpt lat="28.2560258" lon="105.0438242"><ele>898.74</ele><time>2025-12-05T20:09:00.000Z</time></trkpt>
        <trkpt lat="28.2559428" lon="105.0437671"><ele>898.99</ele><time>2025-12-05T20:09:12.000Z</time></trkpt>
        <trkpt lat="28.2559006" lon="105.0436773"><ele>900.78</ele><time>2025-12-05T20:09:26.000Z</time></trkpt>
        <trkpt lat="28.2558589" lon="105.043573"><ele>903.14</ele><time>2025-12-05T20:09:42.000Z</time></trkpt>
        <trkpt lat="28.2558349" lon="105.0434624"><ele>904.82</ele><time>2025-12-05T20:09:54.000Z</time></trkpt>
        <trkpt lat="28.255853" lon="105.0433462"><ele>906.58</ele><time>2025-12-05T20:10:08.000Z</time></trkpt>
        <trkpt lat="28.2559161" lon="105.0432646"><ele>908.63</ele><time>2025-12-05T20:10:56.000Z</time></trkpt>
        <trkpt lat="28.2559947" lon="105.0431744"><ele>913.01</ele><time>2025-12-05T20:13:08.000Z</time></trkpt>
        <trkpt lat="28.2560328" lon="105.0430809"><ele>917.62</ele><time>2025-12-05T20:13:24.000Z</time></trkpt>
        <trkpt lat="28.2561195" lon="105.0430882"><ele>918.8</ele><time>2025-12-05T20:13:40.000Z</time></trkpt>
        <trkpt lat="28.2561538" lon="105.0430124"><ele>921.98</ele><time>2025-12-05T20:14:24.000Z</time></trkpt>
        <trkpt lat="28.2561259" lon="105.0429149"><ele>926.31</ele><time>2025-12-05T20:14:38.000Z</time></trkpt>
        <trkpt lat="28.2560409" lon="105.0428543"><ele>929.71</ele><time>2025-12-05T20:14:54.000Z</time></trkpt>
        <trkpt lat="28.2559393" lon="105.0428559"><ele>932.16</ele><time>2025-12-05T20:15:10.000Z</time></trkpt>
        <trkpt lat="28.255836" lon="105.0428816"><ele>934.24</ele><time>2025-12-05T20:15:24.000Z</time></trkpt>
        <trkpt lat="28.2558066" lon="105.0428124"><ele>936.02</ele><time>2025-12-05T20:15:40.000Z</time></trkpt>
        <trkpt lat="28.255889" lon="105.042792"><ele>935.61</ele><time>2025-12-05T20:15:52.000Z</time></trkpt>
        <trkpt lat="28.2559887" lon="105.0427399"><ele>935.74</ele><time>2025-12-05T20:16:08.000Z</time></trkpt>
        <trkpt lat="28.256094" lon="105.0427189"><ele>936.34</ele><time>2025-12-05T20:16:20.000Z</time></trkpt>
        <trkpt lat="28.2561991" lon="105.0427099"><ele>937.8</ele><time>2025-12-05T20:16:34.000Z</time></trkpt>
        <trkpt lat="28.2562849" lon="105.0426587"><ele>938.76</ele><time>2025-12-05T20:16:48.000Z</time></trkpt>
        <trkpt lat="28.2563605" lon="105.0425918"><ele>939.1</ele><time>2025-12-05T20:16:58.000Z</time></trkpt>
        <trkpt lat="28.2564153" lon="105.0425036"><ele>940.41</ele><time>2025-12-05T20:17:10.000Z</time></trkpt>
        <trkpt lat="28.2564644" lon="105.0424027"><ele>941.21</ele><time>2025-12-05T20:17:22.000Z</time></trkpt>
        <trkpt lat="28.2565247" lon="105.0423061"><ele>942.59</ele><time>2025-12-05T20:17:36.000Z</time></trkpt>
        <trkpt lat="28.2565929" lon="105.0422271"><ele>943.31</ele><time>2025-12-05T20:17:46.000Z</time></trkpt>
        <trkpt lat="28.2566438" lon="105.0421376"><ele>944.58</ele><time>2025-12-05T20:18:02.000Z</time></trkpt>
        <trkpt lat="28.2566312" lon="105.0420319"><ele>946.13</ele><time>2025-12-05T20:18:22.000Z</time></trkpt>
        <trkpt lat="28.2565957" lon="105.0419291"><ele>946.32</ele><time>2025-12-05T20:18:32.000Z</time></trkpt>
        <trkpt lat="28.2565196" lon="105.0418587"><ele>947.13</ele><time>2025-12-05T20:18:42.000Z</time></trkpt>
        <trkpt lat="28.2564373" lon="105.0417936"><ele>948.74</ele><time>2025-12-05T20:18:58.000Z</time></trkpt>
        <trkpt lat="28.2563555" lon="105.0417369"><ele>949.38</ele><time>2025-12-05T20:19:10.000Z</time></trkpt>
        <trkpt lat="28.2562837" lon="105.0416512"><ele>949.79</ele><time>2025-12-05T20:19:48.000Z</time></trkpt>
        <trkpt lat="28.2562329" lon="105.0415454"><ele>948.55</ele><time>2025-12-05T20:19:58.000Z</time></trkpt>
        <trkpt lat="28.2561744" lon="105.0414548"><ele>948.16</ele><time>2025-12-05T20:20:10.000Z</time></trkpt>
        <trkpt lat="28.2561249" lon="105.0413978"><ele>946.78</ele><time>2025-12-05T20:20:18.000Z</time></trkpt>
        <trkpt lat="28.2560723" lon="105.0413244"><ele>945.8</ele><time>2025-12-05T20:20:30.000Z</time></trkpt>
        <trkpt lat="28.2560162" lon="105.041245"><ele>946.22</ele><time>2025-12-05T20:20:42.000Z</time></trkpt>
        <trkpt lat="28.2559802" lon="105.0411416"><ele>946.48</ele><time>2025-12-05T20:20:54.000Z</time></trkpt>
        <trkpt lat="28.255939" lon="105.0410347"><ele>947.52</ele><time>2025-12-05T20:21:08.000Z</time></trkpt>
        <trkpt lat="28.255881" lon="105.0409401"><ele>947.86</ele><time>2025-12-05T20:21:26.000Z</time></trkpt>
        <trkpt lat="28.255839" lon="105.0408372"><ele>947.44</ele><time>2025-12-05T20:21:40.000Z</time></trkpt>
        <trkpt lat="28.2558105" lon="105.0407246"><ele>945.63</ele><time>2025-12-05T20:21:52.000Z</time></trkpt>
        <trkpt lat="28.2557711" lon="105.0406222"><ele>944.37</ele><time>2025-12-05T20:22:04.000Z</time></trkpt>
        <trkpt lat="28.2557382" lon="105.0405122"><ele>943.01</ele><time>2025-12-05T20:22:16.000Z</time></trkpt>
        <trkpt lat="28.255698" lon="105.0404164"><ele>942.37</ele><time>2025-12-05T20:22:30.000Z</time></trkpt>
        <trkpt lat="28.255666" lon="105.0403206"><ele>942.76</ele><time>2025-12-05T20:22:42.000Z</time></trkpt>
        <trkpt lat="28.2556167" lon="105.0402363"><ele>940.94</ele><time>2025-12-05T20:22:52.000Z</time></trkpt>
        <trkpt lat="28.2555487" lon="105.0401688"><ele>938.97</ele><time>2025-12-05T20:23:00.000Z</time></trkpt>
        <trkpt lat="28.2555398" lon="105.0400673"><ele>937.26</ele><time>2025-12-05T20:23:08.000Z</time></trkpt>
        <trkpt lat="28.2555899" lon="105.0399742"><ele>937.71</ele><time>2025-12-05T20:23:20.000Z</time></trkpt>
        <trkpt lat="28.2555867" lon="105.0398793"><ele>936.99</ele><time>2025-12-05T20:23:30.000Z</time></trkpt>
        <trkpt lat="28.2555105" lon="105.0398272"><ele>936.76</ele><time>2025-12-05T20:23:40.000Z</time></trkpt>
        <trkpt lat="28.2554244" lon="105.0397598"><ele>935.99</ele><time>2025-12-05T20:23:50.000Z</time></trkpt>
        <trkpt lat="28.255372" lon="105.0396701"><ele>934.06</ele><time>2025-12-05T20:23:58.000Z</time></trkpt>
        <trkpt lat="28.2553101" lon="105.0395872"><ele>933.86</ele><time>2025-12-05T20:24:10.000Z</time></trkpt>
        <trkpt lat="28.2552643" lon="105.0394924"><ele>932.82</ele><time>2025-12-05T20:24:22.000Z</time></trkpt>
        <trkpt lat="28.2552952" lon="105.0393984"><ele>932.51</ele><time>2025-12-05T20:24:38.000Z</time></trkpt>
        <trkpt lat="28.2553217" lon="105.039358"><ele>932.17</ele><time>2025-12-05T20:24:44.000Z</time></trkpt>
        <trkpt lat="28.2553994" lon="105.0393273"><ele>932.21</ele><time>2025-12-05T20:24:58.000Z</time></trkpt>
        <trkpt lat="28.2554949" lon="105.0393386"><ele>932.91</ele><time>2025-12-05T20:25:16.000Z</time></trkpt>
        <trkpt lat="28.2555889" lon="105.0393092"><ele>933.43</ele><time>2025-12-05T20:25:28.000Z</time></trkpt>
        <trkpt lat="28.2556555" lon="105.0392366"><ele>933.6</ele><time>2025-12-05T20:25:38.000Z</time></trkpt>
        <trkpt lat="28.2557005" lon="105.0391332"><ele>933.96</ele><time>2025-12-05T20:25:48.000Z</time></trkpt>
        <trkpt lat="28.255731" lon="105.0390233"><ele>934.84</ele><time>2025-12-05T20:26:00.000Z</time></trkpt>
        <trkpt lat="28.2558117" lon="105.0390034"><ele>935.65</ele><time>2025-12-05T20:26:14.000Z</time></trkpt>
        <trkpt lat="28.2558952" lon="105.0390444"><ele>936.02</ele><time>2025-12-05T20:26:26.000Z</time></trkpt>
        <trkpt lat="28.2559863" lon="105.0390219"><ele>935.67</ele><time>2025-12-05T20:26:40.000Z</time></trkpt>
        <trkpt lat="28.2560718" lon="105.0389721"><ele>937.18</ele><time>2025-12-05T20:26:50.000Z</time></trkpt>
        <trkpt lat="28.2560914" lon="105.0388828"><ele>939.14</ele><time>2025-12-05T20:27:12.000Z</time></trkpt>
        <trkpt lat="28.2560098" lon="105.0388271"><ele>941.87</ele><time>2025-12-05T20:27:26.000Z</time></trkpt>
        <trkpt lat="28.2559268" lon="105.0388228"><ele>945.68</ele><time>2025-12-05T20:27:36.000Z</time></trkpt>
        <trkpt lat="28.2558338" lon="105.0387904"><ele>946.95</ele><time>2025-12-05T20:27:52.000Z</time></trkpt>
        <trkpt lat="28.255799" lon="105.0386994"><ele>947.71</ele><time>2025-12-05T20:28:02.000Z</time></trkpt>
        <trkpt lat="28.2558762" lon="105.0386455"><ele>949</ele><time>2025-12-05T20:28:10.000Z</time></trkpt>
        <trkpt lat="28.2559804" lon="105.0386222"><ele>950.89</ele><time>2025-12-05T20:28:18.000Z</time></trkpt>
        <trkpt lat="28.256093" lon="105.038588"><ele>952.81</ele><time>2025-12-05T20:28:28.000Z</time></trkpt>
        <trkpt lat="28.2561758" lon="105.0384861"><ele>954.15</ele><time>2025-12-05T20:28:40.000Z</time></trkpt>
        <trkpt lat="28.2562718" lon="105.0384887"><ele>954.55</ele><time>2025-12-05T20:28:50.000Z</time></trkpt>
        <trkpt lat="28.2563623" lon="105.0385469"><ele>956.25</ele><time>2025-12-05T20:29:36.000Z</time></trkpt>
        <trkpt lat="28.256454" lon="105.038577"><ele>958.85</ele><time>2025-12-05T20:29:44.000Z</time></trkpt>
        <trkpt lat="28.2565454" lon="105.0386122"><ele>960.09</ele><time>2025-12-05T20:29:52.000Z</time></trkpt>
        <trkpt lat="28.2566367" lon="105.0385817"><ele>961.02</ele><time>2025-12-05T20:30:00.000Z</time></trkpt>
        <trkpt lat="28.2566728" lon="105.03858"><ele>960.67</ele><time>2025-12-05T20:30:02.000Z</time></trkpt>
        <trkpt lat="28.2567453" lon="105.0385712"><ele>957.99</ele><time>2025-12-05T20:30:22.000Z</time></trkpt>
        <trkpt lat="28.2568263" lon="105.0386058"><ele>957.36</ele><time>2025-12-05T20:30:32.000Z</time></trkpt>
        <trkpt lat="28.2569266" lon="105.0386493"><ele>956.74</ele><time>2025-12-05T20:30:42.000Z</time></trkpt>
        <trkpt lat="28.2570193" lon="105.0386888"><ele>958.97</ele><time>2025-12-05T20:30:50.000Z</time></trkpt>
        <trkpt lat="28.2571167" lon="105.0387284"><ele>961.21</ele><time>2025-12-05T20:31:00.000Z</time></trkpt>
        <trkpt lat="28.2572161" lon="105.0387746"><ele>963.91</ele><time>2025-12-05T20:31:10.000Z</time></trkpt>
        <trkpt lat="28.2573171" lon="105.0388182"><ele>965.41</ele><time>2025-12-05T20:31:20.000Z</time></trkpt>
        <trkpt lat="28.2574093" lon="105.0388599"><ele>966.48</ele><time>2025-12-05T20:31:28.000Z</time></trkpt>
        <trkpt lat="28.2574974" lon="105.0388961"><ele>966.45</ele><time>2025-12-05T20:31:36.000Z</time></trkpt>
        <trkpt lat="28.2575916" lon="105.0389465"><ele>965.88</ele><time>2025-12-05T20:31:46.000Z</time></trkpt>
        <trkpt lat="28.2576869" lon="105.0389701"><ele>966.3</ele><time>2025-12-05T20:31:54.000Z</time></trkpt>
        <trkpt lat="28.2577829" lon="105.0389561"><ele>966.48</ele><time>2025-12-05T20:32:04.000Z</time></trkpt>
        <trkpt lat="28.257883" lon="105.0389079"><ele>966.92</ele><time>2025-12-05T20:32:14.000Z</time></trkpt>
        <trkpt lat="28.257958" lon="105.0389455"><ele>967.53</ele><time>2025-12-05T20:32:22.000Z</time></trkpt>
        <trkpt lat="28.2580494" lon="105.0390012"><ele>968.85</ele><time>2025-12-05T20:32:30.000Z</time></trkpt>
        <trkpt lat="28.2581402" lon="105.0389725"><ele>969.58</ele><time>2025-12-05T20:32:40.000Z</time></trkpt>
        <trkpt lat="28.2582113" lon="105.038955"><ele>969.58</ele><time>2025-12-05T20:32:48.000Z</time></trkpt>
        <trkpt lat="28.2582749" lon="105.0388783"><ele>968.97</ele><time>2025-12-05T20:33:06.000Z</time></trkpt>
        <trkpt lat="28.2583561" lon="105.038785"><ele>968.55</ele><time>2025-12-05T20:33:14.000Z</time></trkpt>
        <trkpt lat="28.2584391" lon="105.0387096"><ele>968.73</ele><time>2025-12-05T20:33:20.000Z</time></trkpt>
        <trkpt lat="28.2585219" lon="105.0386542"><ele>969.83</ele><time>2025-12-05T20:33:28.000Z</time></trkpt>
        <trkpt lat="28.2585947" lon="105.0385805"><ele>971.72</ele><time>2025-12-05T20:33:38.000Z</time></trkpt>
        <trkpt lat="28.2586528" lon="105.0384974"><ele>973.02</ele><time>2025-12-05T20:33:48.000Z</time></trkpt>
        <trkpt lat="28.2587211" lon="105.0384075"><ele>973.03</ele><time>2025-12-05T20:33:58.000Z</time></trkpt>
        <trkpt lat="28.2588025" lon="105.0383382"><ele>973.59</ele><time>2025-12-05T20:34:08.000Z</time></trkpt>
        <trkpt lat="28.2589049" lon="105.0382927"><ele>974.74</ele><time>2025-12-05T20:34:18.000Z</time></trkpt>
        <trkpt lat="28.2589893" lon="105.0383455"><ele>976.49</ele><time>2025-12-05T20:34:28.000Z</time></trkpt>
        <trkpt lat="28.2590763" lon="105.0384144"><ele>978.91</ele><time>2025-12-05T20:34:38.000Z</time></trkpt>
        <trkpt lat="28.259174" lon="105.0384468"><ele>981.59</ele><time>2025-12-05T20:34:48.000Z</time></trkpt>
        <trkpt lat="28.2592689" lon="105.0384991"><ele>983.15</ele><time>2025-12-05T20:34:58.000Z</time></trkpt>
        <trkpt lat="28.2593607" lon="105.0385692"><ele>984.89</ele><time>2025-12-05T20:35:10.000Z</time></trkpt>
        <trkpt lat="28.2594539" lon="105.0386166"><ele>986.64</ele><time>2025-12-05T20:35:20.000Z</time></trkpt>
        <trkpt lat="28.2595458" lon="105.0386205"><ele>988.29</ele><time>2025-12-05T20:35:28.000Z</time></trkpt>
        <trkpt lat="28.2596479" lon="105.0385802"><ele>989.03</ele><time>2025-12-05T20:35:38.000Z</time></trkpt>
        <trkpt lat="28.2597261" lon="105.0385116"><ele>989.05</ele><time>2025-12-05T20:35:48.000Z</time></trkpt>
        <trkpt lat="28.2597736" lon="105.0384099"><ele>988.21</ele><time>2025-12-05T20:36:00.000Z</time></trkpt>
        <trkpt lat="28.2598123" lon="105.0383034"><ele>989.42</ele><time>2025-12-05T20:36:12.000Z</time></trkpt>
        <trkpt lat="28.2598762" lon="105.0382079"><ele>989.55</ele><time>2025-12-05T20:36:22.000Z</time></trkpt>
        <trkpt lat="28.2599544" lon="105.03812"><ele>989.84</ele><time>2025-12-05T20:36:30.000Z</time></trkpt>
        <trkpt lat="28.2600087" lon="105.0380281"><ele>990.83</ele><time>2025-12-05T20:36:38.000Z</time></trkpt>
        <trkpt lat="28.260059" lon="105.0379325"><ele>991.39</ele><time>2025-12-05T20:36:46.000Z</time></trkpt>
        <trkpt lat="28.260141" lon="105.0378534"><ele>992.28</ele><time>2025-12-05T20:36:54.000Z</time></trkpt>
        <trkpt lat="28.2602282" lon="105.0378088"><ele>994.26</ele><time>2025-12-05T20:37:02.000Z</time></trkpt>
        <trkpt lat="28.2603048" lon="105.0377632"><ele>996.02</ele><time>2025-12-05T20:37:12.000Z</time></trkpt>
        <trkpt lat="28.260357" lon="105.0376847"><ele>997.98</ele><time>2025-12-05T20:37:22.000Z</time></trkpt>
        <trkpt lat="28.2603743" lon="105.0375777"><ele>997.87</ele><time>2025-12-05T20:37:34.000Z</time></trkpt>
        <trkpt lat="28.2604242" lon="105.0374789"><ele>996.95</ele><time>2025-12-05T20:38:24.000Z</time></trkpt>
        <trkpt lat="28.2605096" lon="105.0374421"><ele>1000.12</ele><time>2025-12-05T20:38:34.000Z</time></trkpt>
        <trkpt lat="28.2605919" lon="105.0374944"><ele>1003.45</ele><time>2025-12-05T20:38:46.000Z</time></trkpt>
        <trkpt lat="28.2606787" lon="105.0375685"><ele>1006.85</ele><time>2025-12-05T20:38:58.000Z</time></trkpt>
        <trkpt lat="28.2607527" lon="105.0376608"><ele>1009.9</ele><time>2025-12-05T20:39:10.000Z</time></trkpt>
        <trkpt lat="28.2607888" lon="105.0377697"><ele>1012.86</ele><time>2025-12-05T20:39:18.000Z</time></trkpt>
        <trkpt lat="28.2608247" lon="105.0378835"><ele>1016.29</ele><time>2025-12-05T20:39:32.000Z</time></trkpt>
        <trkpt lat="28.2608863" lon="105.0379653"><ele>1019.34</ele><time>2025-12-05T20:39:42.000Z</time></trkpt>
        <trkpt lat="28.2609667" lon="105.0380418"><ele>1021.41</ele><time>2025-12-05T20:39:54.000Z</time></trkpt>
        <trkpt lat="28.2610432" lon="105.0381165"><ele>1023.44</ele><time>2025-12-05T20:40:04.000Z</time></trkpt>
        <trkpt lat="28.2610931" lon="105.0382064"><ele>1024.93</ele><time>2025-12-05T20:40:14.000Z</time></trkpt>
        <trkpt lat="28.2611145" lon="105.0383215"><ele>1026.22</ele><time>2025-12-05T20:40:22.000Z</time></trkpt>
        <trkpt lat="28.2611231" lon="105.0384348"><ele>1026.75</ele><time>2025-12-05T20:40:30.000Z</time></trkpt>
        <trkpt lat="28.2611676" lon="105.0385358"><ele>1026.82</ele><time>2025-12-05T20:40:40.000Z</time></trkpt>
        <trkpt lat="28.2612579" lon="105.0385912"><ele>1027.78</ele><time>2025-12-05T20:40:50.000Z</time></trkpt>
        <trkpt lat="28.2613388" lon="105.0386621"><ele>1028.54</ele><time>2025-12-05T20:41:00.000Z</time></trkpt>
        <trkpt lat="28.2613767" lon="105.0387543"><ele>1028.35</ele><time>2025-12-05T20:41:08.000Z</time></trkpt>
        <trkpt lat="28.2614217" lon="105.0388569"><ele>1028.85</ele><time>2025-12-05T20:41:18.000Z</time></trkpt>
        <trkpt lat="28.2615075" lon="105.0389214"><ele>1029.63</ele><time>2025-12-05T20:41:28.000Z</time></trkpt>
        <trkpt lat="28.2616082" lon="105.0389445"><ele>1029.33</ele><time>2025-12-05T20:41:36.000Z</time></trkpt>
        <trkpt lat="28.261707" lon="105.038965"><ele>1029.98</ele><time>2025-12-05T20:41:44.000Z</time></trkpt>
        <trkpt lat="28.2618094" lon="105.039006"><ele>1031.01</ele><time>2025-12-05T20:41:54.000Z</time></trkpt>
        <trkpt lat="28.2619057" lon="105.0390671"><ele>1030.46</ele><time>2025-12-05T20:42:04.000Z</time></trkpt>
        <trkpt lat="28.2620019" lon="105.0390931"><ele>1030.3</ele><time>2025-12-05T20:42:12.000Z</time></trkpt>
        <trkpt lat="28.2620938" lon="105.0391153"><ele>1029.96</ele><time>2025-12-05T20:42:20.000Z</time></trkpt>
        <trkpt lat="28.2621834" lon="105.0391003"><ele>1030.07</ele><time>2025-12-05T20:42:28.000Z</time></trkpt>
        <trkpt lat="28.2622802" lon="105.039054"><ele>1029.79</ele><time>2025-12-05T20:42:38.000Z</time></trkpt>
        <trkpt lat="28.2623675" lon="105.0389844"><ele>1029.46</ele><time>2025-12-05T20:42:46.000Z</time></trkpt>
        <trkpt lat="28.2624343" lon="105.0388943"><ele>1028.99</ele><time>2025-12-05T20:42:54.000Z</time></trkpt>
        <trkpt lat="28.2624345" lon="105.038782"><ele>1028.47</ele><time>2025-12-05T20:43:02.000Z</time></trkpt>
        <trkpt lat="28.2623785" lon="105.0386809"><ele>1027.57</ele><time>2025-12-05T20:43:10.000Z</time></trkpt>
        <trkpt lat="28.2623113" lon="105.0385934"><ele>1026.32</ele><time>2025-12-05T20:43:18.000Z</time></trkpt>
        <trkpt lat="28.2622311" lon="105.0385234"><ele>1025.8</ele><time>2025-12-05T20:43:26.000Z</time></trkpt>
        <trkpt lat="28.2621473" lon="105.0385014"><ele>1026.73</ele><time>2025-12-05T20:43:34.000Z</time></trkpt>
        <trkpt lat="28.2621016" lon="105.0384215"><ele>1024.13</ele><time>2025-12-05T20:43:48.000Z</time></trkpt>
        <trkpt lat="28.2621044" lon="105.0383164"><ele>1024.32</ele><time>2025-12-05T20:43:56.000Z</time></trkpt>
        <trkpt lat="28.2621647" lon="105.0382097"><ele>1023.38</ele><time>2025-12-05T20:44:06.000Z</time></trkpt>
        <trkpt lat="28.2622279" lon="105.0381134"><ele>1025.05</ele><time>2025-12-05T20:44:12.000Z</time></trkpt>
        <trkpt lat="28.2622845" lon="105.0379978"><ele>1026.69</ele><time>2025-12-05T20:44:20.000Z</time></trkpt>
        <trkpt lat="28.262321" lon="105.0378819"><ele>1027.09</ele><time>2025-12-05T20:44:28.000Z</time></trkpt>
        <trkpt lat="28.2623678" lon="105.037786"><ele>1027.86</ele><time>2025-12-05T20:44:36.000Z</time></trkpt>
        <trkpt lat="28.2624115" lon="105.0376957"><ele>1028.26</ele><time>2025-12-05T20:44:44.000Z</time></trkpt>
        <trkpt lat="28.2624057" lon="105.0375772"><ele>1028.71</ele><time>2025-12-05T20:44:54.000Z</time></trkpt>
        <trkpt lat="28.2623841" lon="105.037459"><ele>1028.92</ele><time>2025-12-05T20:45:02.000Z</time></trkpt>
        <trkpt lat="28.2623912" lon="105.037345"><ele>1028.75</ele><time>2025-12-05T20:45:10.000Z</time></trkpt>
        <trkpt lat="28.2623744" lon="105.0372291"><ele>1028.25</ele><time>2025-12-05T20:45:18.000Z</time></trkpt>
        <trkpt lat="28.2623643" lon="105.0371139"><ele>1027.36</ele><time>2025-12-05T20:45:26.000Z</time></trkpt>
        <trkpt lat="28.262355" lon="105.0370033"><ele>1027.53</ele><time>2025-12-05T20:45:34.000Z</time></trkpt>
        <trkpt lat="28.2623041" lon="105.0369194"><ele>1027.95</ele><time>2025-12-05T20:45:42.000Z</time></trkpt>
        <trkpt lat="28.2622379" lon="105.0368347"><ele>1028.61</ele><time>2025-12-05T20:45:52.000Z</time></trkpt>
        <trkpt lat="28.2622032" lon="105.0367282"><ele>1028.45</ele><time>2025-12-05T20:46:00.000Z</time></trkpt>
        <trkpt lat="28.2621727" lon="105.036623"><ele>1028.75</ele><time>2025-12-05T20:46:08.000Z</time></trkpt>
        <trkpt lat="28.262171" lon="105.0365569"><ele>1030.02</ele><time>2025-12-05T20:46:16.000Z</time></trkpt>
        <trkpt lat="28.2622119" lon="105.0364717"><ele>1030.68</ele><time>2025-12-05T20:46:36.000Z</time></trkpt>
        <trkpt lat="28.2623019" lon="105.0364449"><ele>1030.47</ele><time>2025-12-05T20:46:44.000Z</time></trkpt>
        <trkpt lat="28.2624049" lon="105.0364637"><ele>1030.5</ele><time>2025-12-05T20:46:52.000Z</time></trkpt>
        <trkpt lat="28.2625033" lon="105.0364604"><ele>1030.96</ele><time>2025-12-05T20:47:00.000Z</time></trkpt>
        <trkpt lat="28.2625804" lon="105.0363955"><ele>1030.97</ele><time>2025-12-05T20:47:08.000Z</time></trkpt>
        <trkpt lat="28.262618" lon="105.0362938"><ele>1030.28</ele><time>2025-12-05T20:47:16.000Z</time></trkpt>
        <trkpt lat="28.2626143" lon="105.0361797"><ele>1029.79</ele><time>2025-12-05T20:47:24.000Z</time></trkpt>
        <trkpt lat="28.2625963" lon="105.0360546"><ele>1029.49</ele><time>2025-12-05T20:47:34.000Z</time></trkpt>
        <trkpt lat="28.2626311" lon="105.0359611"><ele>1029.12</ele><time>2025-12-05T20:47:44.000Z</time></trkpt>
        <trkpt lat="28.2627192" lon="105.0359775"><ele>1029.39</ele><time>2025-12-05T20:47:54.000Z</time></trkpt>
        <trkpt lat="28.2628158" lon="105.0360382"><ele>1029.97</ele><time>2025-12-05T20:48:04.000Z</time></trkpt>
        <trkpt lat="28.2628988" lon="105.0361122"><ele>1030.12</ele><time>2025-12-05T20:48:12.000Z</time></trkpt>
        <trkpt lat="28.2629738" lon="105.03619"><ele>1030.74</ele><time>2025-12-05T20:48:20.000Z</time></trkpt>
        <trkpt lat="28.2630505" lon="105.0362653"><ele>1031.92</ele><time>2025-12-05T20:48:32.000Z</time></trkpt>
        <trkpt lat="28.263133" lon="105.0363397"><ele>1032.23</ele><time>2025-12-05T20:48:42.000Z</time></trkpt>
        <trkpt lat="28.2632164" lon="105.0363911"><ele>1032.92</ele><time>2025-12-05T20:48:50.000Z</time></trkpt>
        <trkpt lat="28.2633053" lon="105.0364161"><ele>1033.64</ele><time>2025-12-05T20:48:58.000Z</time></trkpt>
        <trkpt lat="28.2634084" lon="105.0364069"><ele>1034.5</ele><time>2025-12-05T20:49:08.000Z</time></trkpt>
        <trkpt lat="28.2634928" lon="105.0363502"><ele>1034.69</ele><time>2025-12-05T20:49:16.000Z</time></trkpt>
        <trkpt lat="28.2635417" lon="105.0362569"><ele>1033.95</ele><time>2025-12-05T20:49:24.000Z</time></trkpt>
        <trkpt lat="28.26354" lon="105.0361344"><ele>1033.08</ele><time>2025-12-05T20:49:34.000Z</time></trkpt>
        <trkpt lat="28.2635152" lon="105.0360203"><ele>1033.11</ele><time>2025-12-05T20:49:42.000Z</time></trkpt>
        <trkpt lat="28.2635099" lon="105.0358967"><ele>1032.55</ele><time>2025-12-05T20:49:52.000Z</time></trkpt>
        <trkpt lat="28.2635477" lon="105.0357809"><ele>1033.02</ele><time>2025-12-05T20:50:02.000Z</time></trkpt>
        <trkpt lat="28.2636146" lon="105.0357035"><ele>1033.9</ele><time>2025-12-05T20:50:10.000Z</time></trkpt>
        <trkpt lat="28.2637113" lon="105.0356839"><ele>1034.94</ele><time>2025-12-05T20:50:18.000Z</time></trkpt>
        <trkpt lat="28.2638159" lon="105.0356634"><ele>1036.02</ele><time>2025-12-05T20:50:28.000Z</time></trkpt>
        <trkpt lat="28.2639321" lon="105.0356517"><ele>1037.14</ele><time>2025-12-05T20:50:38.000Z</time></trkpt>
        <trkpt lat="28.2640384" lon="105.0356501"><ele>1039.32</ele><time>2025-12-05T20:50:46.000Z</time></trkpt>
        <trkpt lat="28.2641385" lon="105.0356588"><ele>1041.3</ele><time>2025-12-05T20:50:54.000Z</time></trkpt>
        <trkpt lat="28.2642372" lon="105.0356358"><ele>1043.49</ele><time>2025-12-05T20:51:04.000Z</time></trkpt>
        <trkpt lat="28.2643061" lon="105.0355618"><ele>1045.56</ele><time>2025-12-05T20:51:12.000Z</time></trkpt>
        <trkpt lat="28.2643633" lon="105.0354551"><ele>1045.47</ele><time>2025-12-05T20:51:22.000Z</time></trkpt>
        <trkpt lat="28.2644077" lon="105.03535"><ele>1045.63</ele><time>2025-12-05T20:51:30.000Z</time></trkpt>
        <trkpt lat="28.2644701" lon="105.0352623"><ele>1044.79</ele><time>2025-12-05T20:51:38.000Z</time></trkpt>
        <trkpt lat="28.2645418" lon="105.0351912"><ele>1043.73</ele><time>2025-12-05T20:51:46.000Z</time></trkpt>
        <trkpt lat="28.2646061" lon="105.0351043"><ele>1043.51</ele><time>2025-12-05T20:51:56.000Z</time></trkpt>
        <trkpt lat="28.2646375" lon="105.0350047"><ele>1043.58</ele><time>2025-12-05T20:52:04.000Z</time></trkpt>
        <trkpt lat="28.2646655" lon="105.034892"><ele>1043.94</ele><time>2025-12-05T20:52:14.000Z</time></trkpt>
        <trkpt lat="28.2646894" lon="105.0347728"><ele>1045.97</ele><time>2025-12-05T20:52:24.000Z</time></trkpt>
        <trkpt lat="28.2646986" lon="105.0346627"><ele>1047.15</ele><time>2025-12-05T20:52:32.000Z</time></trkpt>
        <trkpt lat="28.264736" lon="105.034559"><ele>1048.02</ele><time>2025-12-05T20:52:42.000Z</time></trkpt>
        <trkpt lat="28.2647831" lon="105.0344503"><ele>1048.26</ele><time>2025-12-05T20:52:52.000Z</time></trkpt>
        <trkpt lat="28.2648229" lon="105.0343432"><ele>1049.16</ele><time>2025-12-05T20:53:02.000Z</time></trkpt>
        <trkpt lat="28.2648283" lon="105.0342296"><ele>1050.15</ele><time>2025-12-05T20:53:12.000Z</time></trkpt>
        <trkpt lat="28.2648082" lon="105.0341045"><ele>1051.42</ele><time>2025-12-05T20:53:22.000Z</time></trkpt>
        <trkpt lat="28.2648367" lon="105.0340013"><ele>1052.3</ele><time>2025-12-05T20:53:32.000Z</time></trkpt>
        <trkpt lat="28.2649282" lon="105.0339918"><ele>1054.08</ele><time>2025-12-05T20:53:42.000Z</time></trkpt>
        <trkpt lat="28.2650299" lon="105.0340338"><ele>1055.6</ele><time>2025-12-05T20:53:50.000Z</time></trkpt>
        <trkpt lat="28.2651376" lon="105.0340353"><ele>1056.53</ele><time>2025-12-05T20:54:00.000Z</time></trkpt>
        <trkpt lat="28.2652291" lon="105.0339984"><ele>1056.88</ele><time>2025-12-05T20:54:08.000Z</time></trkpt>
        <trkpt lat="28.2653206" lon="105.0339541"><ele>1057.34</ele><time>2025-12-05T20:54:18.000Z</time></trkpt>
        <trkpt lat="28.2654249" lon="105.0339103"><ele>1058.22</ele><time>2025-12-05T20:54:28.000Z</time></trkpt>
        <trkpt lat="28.2655319" lon="105.0338639"><ele>1058.88</ele><time>2025-12-05T20:54:38.000Z</time></trkpt>
        <trkpt lat="28.2656113" lon="105.0337976"><ele>1060.17</ele><time>2025-12-05T20:54:46.000Z</time></trkpt>
        <trkpt lat="28.2656767" lon="105.0337235"><ele>1061.37</ele><time>2025-12-05T20:54:54.000Z</time></trkpt>
        <trkpt lat="28.2657321" lon="105.0336196"><ele>1063.03</ele><time>2025-12-05T20:55:04.000Z</time></trkpt>
        <trkpt lat="28.2657943" lon="105.0335147"><ele>1064.34</ele><time>2025-12-05T20:55:14.000Z</time></trkpt>
        <trkpt lat="28.2658693" lon="105.0334347"><ele>1065.14</ele><time>2025-12-05T20:55:24.000Z</time></trkpt>
        <trkpt lat="28.2659475" lon="105.0333556"><ele>1066.34</ele><time>2025-12-05T20:55:34.000Z</time></trkpt>
        <trkpt lat="28.2660225" lon="105.0332842"><ele>1067.71</ele><time>2025-12-05T20:55:44.000Z</time></trkpt>
        <trkpt lat="28.2661" lon="105.0332228"><ele>1068.31</ele><time>2025-12-05T20:55:54.000Z</time></trkpt>
        <trkpt lat="28.2661896" lon="105.0331719"><ele>1068.56</ele><time>2025-12-05T20:56:04.000Z</time></trkpt>
        <trkpt lat="28.2662675" lon="105.0331106"><ele>1068.46</ele><time>2025-12-05T20:56:12.000Z</time></trkpt>
        <trkpt lat="28.2663403" lon="105.0330424"><ele>1068.39</ele><time>2025-12-05T20:56:20.000Z</time></trkpt>
        <trkpt lat="28.2664013" lon="105.0329644"><ele>1068.3</ele><time>2025-12-05T20:56:28.000Z</time></trkpt>
        <trkpt lat="28.2664525" lon="105.0328776"><ele>1067.98</ele><time>2025-12-05T20:56:36.000Z</time></trkpt>
        <trkpt lat="28.2665097" lon="105.0327897"><ele>1067.7</ele><time>2025-12-05T20:56:44.000Z</time></trkpt>
        <trkpt lat="28.2665613" lon="105.0326923"><ele>1067.58</ele><time>2025-12-05T20:56:52.000Z</time></trkpt>
        <trkpt lat="28.2666008" lon="105.0325912"><ele>1067.61</ele><time>2025-12-05T20:57:00.000Z</time></trkpt>
        <trkpt lat="28.2666499" lon="105.0324926"><ele>1066.97</ele><time>2025-12-05T20:57:08.000Z</time></trkpt>
        <trkpt lat="28.2667157" lon="105.0324103"><ele>1066.26</ele><time>2025-12-05T20:57:16.000Z</time></trkpt>
        <trkpt lat="28.2667642" lon="105.0323195"><ele>1065.91</ele><time>2025-12-05T20:57:24.000Z</time></trkpt>
        <trkpt lat="28.2667813" lon="105.0322011"><ele>1065.97</ele><time>2025-12-05T20:57:34.000Z</time></trkpt>
        <trkpt lat="28.2667923" lon="105.0320838"><ele>1066.23</ele><time>2025-12-05T20:57:42.000Z</time></trkpt>
        <trkpt lat="28.2668657" lon="105.0320116"><ele>1066.25</ele><time>2025-12-05T20:57:52.000Z</time></trkpt>
        <trkpt lat="28.2669639" lon="105.0320308"><ele>1066.14</ele><time>2025-12-05T20:58:00.000Z</time></trkpt>
        <trkpt lat="28.2670606" lon="105.0320794"><ele>1065.77</ele><time>2025-12-05T20:58:08.000Z</time></trkpt>
        <trkpt lat="28.2671598" lon="105.0321004"><ele>1064.98</ele><time>2025-12-05T20:58:16.000Z</time></trkpt>
        <trkpt lat="28.2672644" lon="105.0320997"><ele>1065.08</ele><time>2025-12-05T20:58:24.000Z</time></trkpt>
        <trkpt lat="28.2673666" lon="105.0320653"><ele>1064.63</ele><time>2025-12-05T20:58:32.000Z</time></trkpt>
        <trkpt lat="28.2674581" lon="105.0319999"><ele>1063.5</ele><time>2025-12-05T20:58:40.000Z</time></trkpt>
        <trkpt lat="28.267525" lon="105.0319104"><ele>1062.08</ele><time>2025-12-05T20:58:48.000Z</time></trkpt>
        <trkpt lat="28.2675737" lon="105.0318061"><ele>1060.31</ele><time>2025-12-05T20:58:56.000Z</time></trkpt>
        <trkpt lat="28.2676196" lon="105.0317014"><ele>1058.71</ele><time>2025-12-05T20:59:04.000Z</time></trkpt>
        <trkpt lat="28.267687" lon="105.0316209"><ele>1057.61</ele><time>2025-12-05T20:59:12.000Z</time></trkpt>
        <trkpt lat="28.2677683" lon="105.0315618"><ele>1057.04</ele><time>2025-12-05T20:59:20.000Z</time></trkpt>
        <trkpt lat="28.26786" lon="105.0315274"><ele>1056.88</ele><time>2025-12-05T20:59:28.000Z</time></trkpt>
        <trkpt lat="28.2679567" lon="105.0315182"><ele>1056.47</ele><time>2025-12-05T20:59:36.000Z</time></trkpt>
        <trkpt lat="28.2680602" lon="105.0315129"><ele>1055.82</ele><time>2025-12-05T20:59:44.000Z</time></trkpt>
        <trkpt lat="28.2681668" lon="105.0315118"><ele>1054.92</ele><time>2025-12-05T20:59:52.000Z</time></trkpt>
        <trkpt lat="28.2682769" lon="105.031518"><ele>1054.83</ele><time>2025-12-05T21:00:00.000Z</time></trkpt>
        <trkpt lat="28.2683795" lon="105.0315072"><ele>1054.25</ele><time>2025-12-05T21:00:08.000Z</time></trkpt>
        <trkpt lat="28.2684589" lon="105.0314487"><ele>1053.46</ele><time>2025-12-05T21:00:16.000Z</time></trkpt>
        <trkpt lat="28.2684821" lon="105.0313414"><ele>1052.68</ele><time>2025-12-05T21:00:24.000Z</time></trkpt>
        <trkpt lat="28.2684541" lon="105.0312242"><ele>1051.4</ele><time>2025-12-05T21:00:32.000Z</time></trkpt>
        <trkpt lat="28.2684088" lon="105.0311045"><ele>1049.58</ele><time>2025-12-05T21:00:40.000Z</time></trkpt>
        <trkpt lat="28.2683824" lon="105.0309793"><ele>1048.42</ele><time>2025-12-05T21:00:48.000Z</time></trkpt>
        <trkpt lat="28.2683829" lon="105.0308592"><ele>1048</ele><time>2025-12-05T21:00:56.000Z</time></trkpt>
        <trkpt lat="28.2683919" lon="105.0307408"><ele>1047.47</ele><time>2025-12-05T21:01:04.000Z</time></trkpt>
        <trkpt lat="28.2683904" lon="105.030625"><ele>1047.16</ele><time>2025-12-05T21:01:12.000Z</time></trkpt>
        <trkpt lat="28.2683938" lon="105.0305148"><ele>1046.64</ele><time>2025-12-05T21:01:20.000Z</time></trkpt>
        <trkpt lat="28.2683763" lon="105.0304025"><ele>1046.09</ele><time>2025-12-05T21:01:28.000Z</time></trkpt>
        <trkpt lat="28.2683109" lon="105.0303203"><ele>1045.07</ele><time>2025-12-05T21:01:36.000Z</time></trkpt>
        <trkpt lat="28.2682321" lon="105.0302377"><ele>1044.31</ele><time>2025-12-05T21:01:44.000Z</time></trkpt>
        <trkpt lat="28.2681615" lon="105.0301442"><ele>1043.89</ele><time>2025-12-05T21:01:52.000Z</time></trkpt>
        <trkpt lat="28.2681112" lon="105.0300429"><ele>1043.69</ele><time>2025-12-05T21:02:00.000Z</time></trkpt>
        <trkpt lat="28.2681675" lon="105.0299585"><ele>1043.13</ele><time>2025-12-05T21:02:10.000Z</time></trkpt>
        <trkpt lat="28.2682501" lon="105.0298775"><ele>1042.48</ele><time>2025-12-05T21:02:18.000Z</time></trkpt>
        <trkpt lat="28.268314" lon="105.029785"><ele>1042.44</ele><time>2025-12-05T21:02:26.000Z</time></trkpt>
        <trkpt lat="28.2683526" lon="105.0296796"><ele>1042.24</ele><time>2025-12-05T21:02:34.000Z</time></trkpt>
        <trkpt lat="28.2683676" lon="105.0295687"><ele>1041.76</ele><time>2025-12-05T21:02:42.000Z</time></trkpt>
        <trkpt lat="28.2684146" lon="105.0294662"><ele>1041.75</ele><time>2025-12-05T21:02:52.000Z</time></trkpt>
        <trkpt lat="28.2684774" lon="105.029387"><ele>1042.13</ele><time>2025-12-05T21:03:00.000Z</time></trkpt>
        <trkpt lat="28.2685092" lon="105.0292887"><ele>1042.22</ele><time>2025-12-05T21:03:08.000Z</time></trkpt>
        <trkpt lat="28.2685228" lon="105.0291771"><ele>1042.3</ele><time>2025-12-05T21:03:16.000Z</time></trkpt>
        <trkpt lat="28.2685463" lon="105.0290687"><ele>1042.38</ele><time>2025-12-05T21:03:24.000Z</time></trkpt>
        <trkpt lat="28.2685891" lon="105.028975"><ele>1042.81</ele><time>2025-12-05T21:03:32.000Z</time></trkpt>
        <trkpt lat="28.2686555" lon="105.0288979"><ele>1042.77</ele><time>2025-12-05T21:03:40.000Z</time></trkpt>
        <trkpt lat="28.2687304" lon="105.0288325"><ele>1042.84</ele><time>2025-12-05T21:03:48.000Z</time></trkpt>
        <trkpt lat="28.2688109" lon="105.0287769"><ele>1042.16</ele><time>2025-12-05T21:03:56.000Z</time></trkpt>
        <trkpt lat="28.2689016" lon="105.0287427"><ele>1041.61</ele><time>2025-12-05T21:04:04.000Z</time></trkpt>
        <trkpt lat="28.2690091" lon="105.0287512"><ele>1041.44</ele><time>2025-12-05T21:04:14.000Z</time></trkpt>
        <trkpt lat="28.2691072" lon="105.0287841"><ele>1041.26</ele><time>2025-12-05T21:04:22.000Z</time></trkpt>
        <trkpt lat="28.2692032" lon="105.0288258"><ele>1041.23</ele><time>2025-12-05T21:04:30.000Z</time></trkpt>
        <trkpt lat="28.2693036" lon="105.0288277"><ele>1040.83</ele><time>2025-12-05T21:04:38.000Z</time></trkpt>
        <trkpt lat="28.2694057" lon="105.0288038"><ele>1040.21</ele><time>2025-12-05T21:04:46.000Z</time></trkpt>
        <trkpt lat="28.2694824" lon="105.0287316"><ele>1039.65</ele><time>2025-12-05T21:04:54.000Z</time></trkpt>
        <trkpt lat="28.2695133" lon="105.0286238"><ele>1039.15</ele><time>2025-12-05T21:05:02.000Z</time></trkpt>
        <trkpt lat="28.2695216" lon="105.0285058"><ele>1038.59</ele><time>2025-12-05T21:05:10.000Z</time></trkpt>
        <trkpt lat="28.2694889" lon="105.0283927"><ele>1038.31</ele><time>2025-12-05T21:05:18.000Z</time></trkpt>
        <trkpt lat="28.2694214" lon="105.0282992"><ele>1037.94</ele><time>2025-12-05T21:05:26.000Z</time></trkpt>
        <trkpt lat="28.269376" lon="105.028192"><ele>1037.92</ele><time>2025-12-05T21:05:34.000Z</time></trkpt>
        <trkpt lat="28.2693838" lon="105.0280812"><ele>1037.71</ele><time>2025-12-05T21:05:42.000Z</time></trkpt>
        <trkpt lat="28.2694027" lon="105.0279651"><ele>1037.13</ele><time>2025-12-05T21:05:50.000Z</time></trkpt>
        <trkpt lat="28.2693779" lon="105.0278539"><ele>1036.34</ele><time>2025-12-05T21:05:58.000Z</time></trkpt>
        <trkpt lat="28.2693285" lon="105.0277486"><ele>1035.19</ele><time>2025-12-05T21:06:06.000Z</time></trkpt>
        <trkpt lat="28.2693101" lon="105.0276306"><ele>1034.56</ele><time>2025-12-05T21:06:14.000Z</time></trkpt>
        <trkpt lat="28.2693607" lon="105.0275285"><ele>1034.14</ele><time>2025-12-05T21:06:24.000Z</time></trkpt>
        <trkpt lat="28.2694351" lon="105.0274432"><ele>1034.02</ele><time>2025-12-05T21:06:32.000Z</time></trkpt>
        <trkpt lat="28.2694945" lon="105.0273405"><ele>1034.34</ele><time>2025-12-05T21:06:42.000Z</time></trkpt>
        <trkpt lat="28.2695088" lon="105.0272331"><ele>1034.25</ele><time>2025-12-05T21:06:50.000Z</time></trkpt>
        <trkpt lat="28.2694938" lon="105.0271259"><ele>1033.91</ele><time>2025-12-05T21:06:58.000Z</time></trkpt>
        <trkpt lat="28.2694733" lon="105.027015"><ele>1033.44</ele><time>2025-12-05T21:07:06.000Z</time></trkpt>
        <trkpt lat="28.2694496" lon="105.0269056"><ele>1032.89</ele><time>2025-12-05T21:07:14.000Z</time></trkpt>
        <trkpt lat="28.2694263" lon="105.0267977"><ele>1032.61</ele><time>2025-12-05T21:07:22.000Z</time></trkpt>
        <trkpt lat="28.2694125" lon="105.0266888"><ele>1032.25</ele><time>2025-12-05T21:07:30.000Z</time></trkpt>
        <trkpt lat="28.2694143" lon="105.0265827"><ele>1031.89</ele><time>2025-12-05T21:07:38.000Z</time></trkpt>
        <trkpt lat="28.2694327" lon="105.0264797"><ele>1031.44</ele><time>2025-12-05T21:07:46.000Z</time></trkpt>
        <trkpt lat="28.2694602" lon="105.0263801"><ele>1030.91</ele><time>2025-12-05T21:07:54.000Z</time></trkpt>
        <trkpt lat="28.2694885" lon="105.0262772"><ele>1030.57</ele><time>2025-12-05T21:08:02.000Z</time></trkpt>
        <trkpt lat="28.2695087" lon="105.0261667"><ele>1030.17</ele><time>2025-12-05T21:08:10.000Z</time></trkpt>
        <trkpt lat="28.2695042" lon="105.0260525"><ele>1029.9</ele><time>2025-12-05T21:08:18.000Z</time></trkpt>
        <trkpt lat="28.2694618" lon="105.0259413"><ele>1029.11</ele><time>2025-12-05T21:08:26.000Z</time></trkpt>
        <trkpt lat="28.2693991" lon="105.0258509"><ele>1027.89</ele><time>2025-12-05T21:08:34.000Z</time></trkpt>
        <trkpt lat="28.2693352" lon="105.0257704"><ele>1027.56</ele><time>2025-12-05T21:08:42.000Z</time></trkpt>
        <trkpt lat="28.2692697" lon="105.0256842"><ele>1027.2</ele><time>2025-12-05T21:08:50.000Z</time></trkpt>
        <trkpt lat="28.2692036" lon="105.0255953"><ele>1026.68</ele><time>2025-12-05T21:08:58.000Z</time></trkpt>
        <trkpt lat="28.2691448" lon="105.0254911"><ele>1026.45</ele><time>2025-12-05T21:09:08.000Z</time></trkpt>
        <trkpt lat="28.2690965" lon="105.0253868"><ele>1026.38</ele><time>2025-12-05T21:09:16.000Z</time></trkpt>
        <trkpt lat="28.2690653" lon="105.0252743"><ele>1025.93</ele><time>2025-12-05T21:09:24.000Z</time></trkpt>
        <trkpt lat="28.269104" lon="105.0251668"><ele>1025.37</ele><time>2025-12-05T21:09:34.000Z</time></trkpt>
        <trkpt lat="28.269164" lon="105.0250731"><ele>1024.69</ele><time>2025-12-05T21:09:42.000Z</time></trkpt>
        <trkpt lat="28.2692293" lon="105.0249834"><ele>1024.86</ele><time>2025-12-05T21:09:50.000Z</time></trkpt>
        <trkpt lat="28.2693086" lon="105.0248922"><ele>1024.36</ele><time>2025-12-05T21:09:58.000Z</time></trkpt>
        <trkpt lat="28.2693812" lon="105.0248044"><ele>1023.67</ele><time>2025-12-05T21:10:06.000Z</time></trkpt>
        <trkpt lat="28.2694376" lon="105.0247106"><ele>1022.91</ele><time>2025-12-05T21:10:14.000Z</time></trkpt>
        <trkpt lat="28.2694871" lon="105.0246221"><ele>1022.14</ele><time>2025-12-05T21:10:22.000Z</time></trkpt>
        <trkpt lat="28.2695408" lon="105.0245366"><ele>1021.65</ele><time>2025-12-05T21:10:30.000Z</time></trkpt>
        <trkpt lat="28.2695995" lon="105.0244481"><ele>1020.82</ele><time>2025-12-05T21:10:40.000Z</time></trkpt>
        <trkpt lat="28.2696517" lon="105.0243474"><ele>1021.41</ele><time>2025-12-05T21:10:50.000Z</time></trkpt>
        <trkpt lat="28.2697147" lon="105.0242457"><ele>1021.48</ele><time>2025-12-05T21:11:00.000Z</time></trkpt>
        <trkpt lat="28.2697588" lon="105.0241429"><ele>1020.42</ele><time>2025-12-05T21:11:08.000Z</time></trkpt>
        <trkpt lat="28.2698292" lon="105.0241153"><ele>1019.42</ele><time>2025-12-05T21:11:18.000Z</time></trkpt>
        <trkpt lat="28.269801" lon="105.0241807"><ele>1017.38</ele><time>2025-12-05T21:12:14.000Z</time></trkpt>
        <trkpt lat="28.26975" lon="105.0242873"><ele>1014.83</ele><time>2025-12-05T21:12:22.000Z</time></trkpt>
        <trkpt lat="28.2696923" lon="105.0244152"><ele>1012.88</ele><time>2025-12-05T21:12:30.000Z</time></trkpt>
        <trkpt lat="28.2696444" lon="105.0245433"><ele>1011.68</ele><time>2025-12-05T21:12:38.000Z</time></trkpt>
        <trkpt lat="28.2696173" lon="105.0246685"><ele>1011.16</ele><time>2025-12-05T21:12:46.000Z</time></trkpt>
        <trkpt lat="28.2696387" lon="105.0247811"><ele>1011.11</ele><time>2025-12-05T21:12:56.000Z</time></trkpt>
        <trkpt lat="28.2696966" lon="105.0248696"><ele>1009.59</ele><time>2025-12-05T21:13:04.000Z</time></trkpt>
        <trkpt lat="28.2697884" lon="105.0249207"><ele>1008.5</ele><time>2025-12-05T21:13:12.000Z</time></trkpt>
        <trkpt lat="28.2698927" lon="105.0249673"><ele>1007.31</ele><time>2025-12-05T21:13:20.000Z</time></trkpt>
        <trkpt lat="28.2699953" lon="105.0250157"><ele>1006.08</ele><time>2025-12-05T21:13:28.000Z</time></trkpt>
        <trkpt lat="28.2700946" lon="105.0250691"><ele>1005.07</ele><time>2025-12-05T21:13:36.000Z</time></trkpt>
        <trkpt lat="28.2701898" lon="105.025111"><ele>1003.82</ele><time>2025-12-05T21:13:44.000Z</time></trkpt>
        <trkpt lat="28.2702869" lon="105.0251644"><ele>1002.16</ele><time>2025-12-05T21:13:52.000Z</time></trkpt>
        <trkpt lat="28.2703738" lon="105.0252091"><ele>1000.98</ele><time>2025-12-05T21:14:00.000Z</time></trkpt>
        <trkpt lat="28.2704738" lon="105.0252562"><ele>999.44</ele><time>2025-12-05T21:14:08.000Z</time></trkpt>
        <trkpt lat="28.2705648" lon="105.02532"><ele>998.37</ele><time>2025-12-05T21:14:16.000Z</time></trkpt>
        <trkpt lat="28.2706362" lon="105.0254101"><ele>997.2</ele><time>2025-12-05T21:14:24.000Z</time></trkpt>
        <trkpt lat="28.2706686" lon="105.0255259"><ele>996.11</ele><time>2025-12-05T21:14:32.000Z</time></trkpt>
        <trkpt lat="28.2706968" lon="105.0256426"><ele>994.97</ele><time>2025-12-05T21:14:40.000Z</time></trkpt>
        <trkpt lat="28.2707276" lon="105.0257627"><ele>994.01</ele><time>2025-12-05T21:14:48.000Z</time></trkpt>
        <trkpt lat="28.2707604" lon="105.0258867"><ele>992.7</ele><time>2025-12-05T21:14:56.000Z</time></trkpt>
        <trkpt lat="28.2707951" lon="105.0260071"><ele>991.51</ele><time>2025-12-05T21:15:04.000Z</time></trkpt>
        <trkpt lat="28.2708555" lon="105.0261151"><ele>990.14</ele><time>2025-12-05T21:15:12.000Z</time></trkpt>
        <trkpt lat="28.2709509" lon="105.0261669"><ele>988.5</ele><time>2025-12-05T21:15:20.000Z</time></trkpt>
        <trkpt lat="28.271046" lon="105.0261213"><ele>987.02</ele><time>2025-12-05T21:15:28.000Z</time></trkpt>
        <trkpt lat="28.271106" lon="105.0260136"><ele>985.54</ele><time>2025-12-05T21:15:36.000Z</time></trkpt>
        <trkpt lat="28.2711216" lon="105.0258891"><ele>984.27</ele><time>2025-12-05T21:15:44.000Z</time></trkpt>
        <trkpt lat="28.271073" lon="105.025784"><ele>983.64</ele><time>2025-12-05T21:15:54.000Z</time></trkpt>
        <trkpt lat="28.2710574" lon="105.0256646"><ele>983.65</ele><time>2025-12-05T21:16:04.000Z</time></trkpt>
        <trkpt lat="28.2710602" lon="105.025532"><ele>983.73</ele><time>2025-12-05T21:16:14.000Z</time></trkpt>
        <trkpt lat="28.271067" lon="105.0254914"><ele>981.75</ele><time>2025-12-05T21:16:16.000Z</time></trkpt>
        <trkpt lat="28.2711575" lon="105.0255401"><ele>980.39</ele><time>2025-12-05T21:21:12.000Z</time></trkpt>
        <trkpt lat="28.2710813" lon="105.0256061"><ele>976.87</ele><time>2025-12-05T21:54:30.000Z</time></trkpt>
        <trkpt lat="28.2711487" lon="105.0256864"><ele>974.72</ele><time>2025-12-05T21:54:46.000Z</time></trkpt>
        <trkpt lat="28.2711739" lon="105.0256069"><ele>974.46</ele><time>2025-12-05T21:54:56.000Z</time></trkpt>
        <trkpt lat="28.2711872" lon="105.0254956"><ele>974.92</ele><time>2025-12-05T21:55:10.000Z</time></trkpt>
        <trkpt lat="28.2712102" lon="105.0253823"><ele>974.72</ele><time>2025-12-05T21:55:20.000Z</time></trkpt>
        <trkpt lat="28.2712388" lon="105.0252736"><ele>974.55</ele><time>2025-12-05T21:55:30.000Z</time></trkpt>
        <trkpt lat="28.2712658" lon="105.0251683"><ele>973.83</ele><time>2025-12-05T21:55:40.000Z</time></trkpt>
        <trkpt lat="28.2712922" lon="105.0250619"><ele>972.84</ele><time>2025-12-05T21:55:50.000Z</time></trkpt>
        <trkpt lat="28.2713173" lon="105.024944"><ele>971.73</ele><time>2025-12-05T21:56:00.000Z</time></trkpt>
        <trkpt lat="28.2713365" lon="105.0248353"><ele>970.62</ele><time>2025-12-05T21:56:08.000Z</time></trkpt>
        <trkpt lat="28.2713445" lon="105.0247211"><ele>970.15</ele><time>2025-12-05T21:56:16.000Z</time></trkpt>
        <trkpt lat="28.2713523" lon="105.0246092"><ele>969.76</ele><time>2025-12-05T21:56:24.000Z</time></trkpt>
        <trkpt lat="28.271355" lon="105.0245"><ele>969.11</ele><time>2025-12-05T21:56:32.000Z</time></trkpt>
        <trkpt lat="28.271364" lon="105.0243918"><ele>968.35</ele><time>2025-12-05T21:56:40.000Z</time></trkpt>
        <trkpt lat="28.2713753" lon="105.0242863"><ele>967.33</ele><time>2025-12-05T21:56:48.000Z</time></trkpt>
        <trkpt lat="28.2713914" lon="105.024172"><ele>966.57</ele><time>2025-12-05T21:56:56.000Z</time></trkpt>
        <trkpt lat="28.2714187" lon="105.0240581"><ele>965.92</ele><time>2025-12-05T21:57:04.000Z</time></trkpt>
        <trkpt lat="28.271452" lon="105.0239503"><ele>965.21</ele><time>2025-12-05T21:57:12.000Z</time></trkpt>
        <trkpt lat="28.2714929" lon="105.023845"><ele>963.87</ele><time>2025-12-05T21:57:18.000Z</time></trkpt>
        <trkpt lat="28.2715359" lon="105.0237418"><ele>963</ele><time>2025-12-05T21:57:24.000Z</time></trkpt>
        <trkpt lat="28.2715804" lon="105.023649"><ele>962.57</ele><time>2025-12-05T21:57:32.000Z</time></trkpt>
        <trkpt lat="28.2716278" lon="105.0235387"><ele>962.37</ele><time>2025-12-05T21:57:42.000Z</time></trkpt>
        <trkpt lat="28.2716722" lon="105.0234289"><ele>962.01</ele><time>2025-12-05T21:57:50.000Z</time></trkpt>
        <trkpt lat="28.2717122" lon="105.0233218"><ele>962.1</ele><time>2025-12-05T21:57:58.000Z</time></trkpt>
        <trkpt lat="28.2717537" lon="105.0232166"><ele>961.84</ele><time>2025-12-05T21:58:06.000Z</time></trkpt>
        <trkpt lat="28.2717947" lon="105.0231128"><ele>961.29</ele><time>2025-12-05T21:58:14.000Z</time></trkpt>
        <trkpt lat="28.2718306" lon="105.0230158"><ele>960.99</ele><time>2025-12-05T21:58:22.000Z</time></trkpt>
        <trkpt lat="28.2718745" lon="105.0229055"><ele>960.62</ele><time>2025-12-05T21:58:32.000Z</time></trkpt>
        <trkpt lat="28.2719109" lon="105.0228018"><ele>960.16</ele><time>2025-12-05T21:58:40.000Z</time></trkpt>
        <trkpt lat="28.2719369" lon="105.022696"><ele>959.38</ele><time>2025-12-05T21:58:48.000Z</time></trkpt>
        <trkpt lat="28.2719559" lon="105.0225881"><ele>958.45</ele><time>2025-12-05T21:58:56.000Z</time></trkpt>
        <trkpt lat="28.2719539" lon="105.0224753"><ele>957.32</ele><time>2025-12-05T21:59:04.000Z</time></trkpt>
        <trkpt lat="28.2719513" lon="105.0223614"><ele>955.7</ele><time>2025-12-05T21:59:12.000Z</time></trkpt>
        <trkpt lat="28.2719659" lon="105.0222386"><ele>954.1</ele><time>2025-12-05T21:59:20.000Z</time></trkpt>
        <trkpt lat="28.2720015" lon="105.0221218"><ele>952.71</ele><time>2025-12-05T21:59:28.000Z</time></trkpt>
        <trkpt lat="28.2720526" lon="105.0220146"><ele>951.2</ele><time>2025-12-05T21:59:36.000Z</time></trkpt>
        <trkpt lat="28.2721163" lon="105.0219204"><ele>949.56</ele><time>2025-12-05T21:59:44.000Z</time></trkpt>
        <trkpt lat="28.2721889" lon="105.0218397"><ele>947.78</ele><time>2025-12-05T21:59:52.000Z</time></trkpt>
        <trkpt lat="28.2722654" lon="105.0217647"><ele>945.64</ele><time>2025-12-05T22:00:00.000Z</time></trkpt>
        <trkpt lat="28.272348" lon="105.0216971"><ele>943.49</ele><time>2025-12-05T22:00:08.000Z</time></trkpt>
        <trkpt lat="28.272435" lon="105.0216384"><ele>941.03</ele><time>2025-12-05T22:00:16.000Z</time></trkpt>
        <trkpt lat="28.2725249" lon="105.0215792"><ele>939.04</ele><time>2025-12-05T22:00:24.000Z</time></trkpt>
        <trkpt lat="28.2726163" lon="105.0215272"><ele>937.05</ele><time>2025-12-05T22:00:32.000Z</time></trkpt>
        <trkpt lat="28.2727066" lon="105.0214737"><ele>935.04</ele><time>2025-12-05T22:00:40.000Z</time></trkpt>
        <trkpt lat="28.2727959" lon="105.0214171"><ele>933.17</ele><time>2025-12-05T22:00:48.000Z</time></trkpt>
        <trkpt lat="28.2728831" lon="105.0213626"><ele>931.87</ele><time>2025-12-05T22:00:56.000Z</time></trkpt>
        <trkpt lat="28.2729782" lon="105.0213191"><ele>930.51</ele><time>2025-12-05T22:01:04.000Z</time></trkpt>
        <trkpt lat="28.2730743" lon="105.0212758"><ele>929.53</ele><time>2025-12-05T22:01:12.000Z</time></trkpt>
        <trkpt lat="28.2731713" lon="105.021232"><ele>929.19</ele><time>2025-12-05T22:01:20.000Z</time></trkpt>
        <trkpt lat="28.2732703" lon="105.0211923"><ele>929.22</ele><time>2025-12-05T22:01:28.000Z</time></trkpt>
        <trkpt lat="28.2733694" lon="105.0211501"><ele>929.29</ele><time>2025-12-05T22:01:36.000Z</time></trkpt>
        <trkpt lat="28.273469" lon="105.0211066"><ele>929.28</ele><time>2025-12-05T22:01:44.000Z</time></trkpt>
        <trkpt lat="28.2735653" lon="105.0210634"><ele>929.18</ele><time>2025-12-05T22:01:52.000Z</time></trkpt>
        <trkpt lat="28.273662" lon="105.0210163"><ele>929.21</ele><time>2025-12-05T22:02:00.000Z</time></trkpt>
        <trkpt lat="28.2737562" lon="105.0209703"><ele>929.04</ele><time>2025-12-05T22:02:08.000Z</time></trkpt>
        <trkpt lat="28.2738527" lon="105.0209259"><ele>928.65</ele><time>2025-12-05T22:02:16.000Z</time></trkpt>
        <trkpt lat="28.2739536" lon="105.0208807"><ele>928.45</ele><time>2025-12-05T22:02:24.000Z</time></trkpt>
        <trkpt lat="28.2740523" lon="105.0208372"><ele>928.47</ele><time>2025-12-05T22:02:32.000Z</time></trkpt>
        <trkpt lat="28.2741448" lon="105.0207944"><ele>928.24</ele><time>2025-12-05T22:02:40.000Z</time></trkpt>
        <trkpt lat="28.2742385" lon="105.0207519"><ele>927.82</ele><time>2025-12-05T22:02:48.000Z</time></trkpt>
        <trkpt lat="28.274344" lon="105.0207206"><ele>927.07</ele><time>2025-12-05T22:02:56.000Z</time></trkpt>
        <trkpt lat="28.274452" lon="105.0207043"><ele>926.86</ele><time>2025-12-05T22:03:04.000Z</time></trkpt>
        <trkpt lat="28.274549" lon="105.0206905"><ele>927.59</ele><time>2025-12-05T22:03:12.000Z</time></trkpt>
        <trkpt lat="28.274642" lon="105.0206937"><ele>928.63</ele><time>2025-12-05T22:03:20.000Z</time></trkpt>
        <trkpt lat="28.2747397" lon="105.0207049"><ele>929.56</ele><time>2025-12-05T22:03:28.000Z</time></trkpt>
        <trkpt lat="28.2748442" lon="105.0207159"><ele>930.1</ele><time>2025-12-05T22:03:36.000Z</time></trkpt>
        <trkpt lat="28.2749576" lon="105.0207182"><ele>930.53</ele><time>2025-12-05T22:03:44.000Z</time></trkpt>
        <trkpt lat="28.2750665" lon="105.020713"><ele>930.87</ele><time>2025-12-05T22:03:52.000Z</time></trkpt>
        <trkpt lat="28.2751678" lon="105.0206989"><ele>930.79</ele><time>2025-12-05T22:04:00.000Z</time></trkpt>
        <trkpt lat="28.2752656" lon="105.0206821"><ele>930.54</ele><time>2025-12-05T22:04:08.000Z</time></trkpt>
        <trkpt lat="28.2753618" lon="105.0206559"><ele>929.47</ele><time>2025-12-05T22:04:16.000Z</time></trkpt>
        <trkpt lat="28.2754636" lon="105.0206253"><ele>928.63</ele><time>2025-12-05T22:04:24.000Z</time></trkpt>
        <trkpt lat="28.2755651" lon="105.0206022"><ele>927.93</ele><time>2025-12-05T22:04:32.000Z</time></trkpt>
        <trkpt lat="28.2756668" lon="105.0205807"><ele>926.39</ele><time>2025-12-05T22:04:40.000Z</time></trkpt>
        <trkpt lat="28.2757733" lon="105.0205623"><ele>925.05</ele><time>2025-12-05T22:04:48.000Z</time></trkpt>
        <trkpt lat="28.2758771" lon="105.0205454"><ele>923.8</ele><time>2025-12-05T22:04:56.000Z</time></trkpt>
        <trkpt lat="28.2759805" lon="105.0205442"><ele>923.06</ele><time>2025-12-05T22:05:04.000Z</time></trkpt>
        <trkpt lat="28.2760875" lon="105.0205601"><ele>922.32</ele><time>2025-12-05T22:05:12.000Z</time></trkpt>
        <trkpt lat="28.276194" lon="105.0205857"><ele>921.26</ele><time>2025-12-05T22:05:20.000Z</time></trkpt>
        <trkpt lat="28.2762944" lon="105.02061"><ele>920.44</ele><time>2025-12-05T22:05:28.000Z</time></trkpt>
        <trkpt lat="28.2763914" lon="105.020634"><ele>919.39</ele><time>2025-12-05T22:05:36.000Z</time></trkpt>
        <trkpt lat="28.2764961" lon="105.0206506"><ele>918.54</ele><time>2025-12-05T22:05:44.000Z</time></trkpt>
        <trkpt lat="28.2766046" lon="105.0206729"><ele>917.69</ele><time>2025-12-05T22:05:52.000Z</time></trkpt>
        <trkpt lat="28.2767116" lon="105.0206994"><ele>917</ele><time>2025-12-05T22:06:00.000Z</time></trkpt>
        <trkpt lat="28.2768189" lon="105.0207199"><ele>916.39</ele><time>2025-12-05T22:06:08.000Z</time></trkpt>
        <trkpt lat="28.276924" lon="105.0207447"><ele>915.71</ele><time>2025-12-05T22:06:16.000Z</time></trkpt>
        <trkpt lat="28.2770313" lon="105.0207688"><ele>915.14</ele><time>2025-12-05T22:06:24.000Z</time></trkpt>
        <trkpt lat="28.2771366" lon="105.0207859"><ele>914.49</ele><time>2025-12-05T22:06:32.000Z</time></trkpt>
        <trkpt lat="28.2772413" lon="105.0208124"><ele>913.71</ele><time>2025-12-05T22:06:40.000Z</time></trkpt>
        <trkpt lat="28.2773458" lon="105.0208492"><ele>912.64</ele><time>2025-12-05T22:06:48.000Z</time></trkpt>
        <trkpt lat="28.2774362" lon="105.0209015"><ele>911.51</ele><time>2025-12-05T22:06:56.000Z</time></trkpt>
        <trkpt lat="28.277511" lon="105.0209693"><ele>910.52</ele><time>2025-12-05T22:07:04.000Z</time></trkpt>
        <trkpt lat="28.2775765" lon="105.021065"><ele>909.23</ele><time>2025-12-05T22:07:14.000Z</time></trkpt>
        <trkpt lat="28.2776318" lon="105.0211678"><ele>907.38</ele><time>2025-12-05T22:07:22.000Z</time></trkpt>
        <trkpt lat="28.2776929" lon="105.0212675"><ele>905.93</ele><time>2025-12-05T22:07:30.000Z</time></trkpt>
        <trkpt lat="28.2777533" lon="105.0213649"><ele>904.77</ele><time>2025-12-05T22:07:38.000Z</time></trkpt>
        <trkpt lat="28.2778175" lon="105.0214532"><ele>903.94</ele><time>2025-12-05T22:07:46.000Z</time></trkpt>
        <trkpt lat="28.2778889" lon="105.0215356"><ele>903.11</ele><time>2025-12-05T22:07:54.000Z</time></trkpt>
        <trkpt lat="28.2779598" lon="105.0216306"><ele>902.04</ele><time>2025-12-05T22:08:02.000Z</time></trkpt>
        <trkpt lat="28.2780334" lon="105.0217173"><ele>901.67</ele><time>2025-12-05T22:08:10.000Z</time></trkpt>
        <trkpt lat="28.2781072" lon="105.0218168"><ele>901.14</ele><time>2025-12-05T22:08:18.000Z</time></trkpt>
        <trkpt lat="28.2781741" lon="105.021911"><ele>901.08</ele><time>2025-12-05T22:08:26.000Z</time></trkpt>
        <trkpt lat="28.2782273" lon="105.0220095"><ele>900.57</ele><time>2025-12-05T22:08:34.000Z</time></trkpt>
        <trkpt lat="28.2782576" lon="105.022121"><ele>900.28</ele><time>2025-12-05T22:08:42.000Z</time></trkpt>
        <trkpt lat="28.2783328" lon="105.0221741"><ele>899.44</ele><time>2025-12-05T22:08:54.000Z</time></trkpt>
        <trkpt lat="28.2783652" lon="105.0221416"><ele>898.79</ele><time>2025-12-05T22:09:00.000Z</time></trkpt>
        <trkpt lat="28.2783939" lon="105.022033"><ele>899.18</ele><time>2025-12-05T22:09:30.000Z</time></trkpt>
        <trkpt lat="28.278456" lon="105.0220381"><ele>897.94</ele><time>2025-12-05T22:09:44.000Z</time></trkpt>
        <trkpt lat="28.2784976" lon="105.0221249"><ele>898.38</ele><time>2025-12-05T22:09:52.000Z</time></trkpt>
        <trkpt lat="28.2785684" lon="105.0221234"><ele>898.36</ele><time>2025-12-05T22:10:02.000Z</time></trkpt>
        <trkpt lat="28.2786438" lon="105.0220703"><ele>900.3</ele><time>2025-12-05T22:10:12.000Z</time></trkpt>
        <trkpt lat="28.2787277" lon="105.0221035"><ele>901.73</ele><time>2025-12-05T22:10:22.000Z</time></trkpt>
        <trkpt lat="28.2788188" lon="105.0221551"><ele>903.01</ele><time>2025-12-05T22:10:32.000Z</time></trkpt>
        <trkpt lat="28.2789112" lon="105.022228"><ele>904.02</ele><time>2025-12-05T22:10:42.000Z</time></trkpt>
        <trkpt lat="28.2789954" lon="105.022299"><ele>904.65</ele><time>2025-12-05T22:10:50.000Z</time></trkpt>
        <trkpt lat="28.2790827" lon="105.0223472"><ele>904.87</ele><time>2025-12-05T22:10:58.000Z</time></trkpt>
        <trkpt lat="28.2791736" lon="105.0223534"><ele>905.16</ele><time>2025-12-05T22:11:06.000Z</time></trkpt>
        <trkpt lat="28.2792669" lon="105.0223543"><ele>905.36</ele><time>2025-12-05T22:11:14.000Z</time></trkpt>
        <trkpt lat="28.2793639" lon="105.022354"><ele>905.51</ele><time>2025-12-05T22:11:22.000Z</time></trkpt>
        <trkpt lat="28.2794592" lon="105.0223683"><ele>905.76</ele><time>2025-12-05T22:11:30.000Z</time></trkpt>
        <trkpt lat="28.2795651" lon="105.0223684"><ele>906.72</ele><time>2025-12-05T22:11:40.000Z</time></trkpt>
        <trkpt lat="28.2796553" lon="105.0223303"><ele>908.22</ele><time>2025-12-05T22:11:48.000Z</time></trkpt>
        <trkpt lat="28.2797372" lon="105.0222699"><ele>909.33</ele><time>2025-12-05T22:11:56.000Z</time></trkpt>
        <trkpt lat="28.2798102" lon="105.022197"><ele>910.01</ele><time>2025-12-05T22:12:04.000Z</time></trkpt>
        <trkpt lat="28.2798799" lon="105.0221225"><ele>910.32</ele><time>2025-12-05T22:12:12.000Z</time></trkpt>
        <trkpt lat="28.2799705" lon="105.0220994"><ele>910.5</ele><time>2025-12-05T22:12:20.000Z</time></trkpt>
        <trkpt lat="28.2800678" lon="105.0221244"><ele>910.56</ele><time>2025-12-05T22:12:28.000Z</time></trkpt>
        <trkpt lat="28.2801637" lon="105.0221528"><ele>911.03</ele><time>2025-12-05T22:12:36.000Z</time></trkpt>
        <trkpt lat="28.2802664" lon="105.0221716"><ele>911.97</ele><time>2025-12-05T22:12:46.000Z</time></trkpt>
        <trkpt lat="28.2803731" lon="105.0221965"><ele>913.56</ele><time>2025-12-05T22:12:56.000Z</time></trkpt>
        <trkpt lat="28.2804842" lon="105.0222018"><ele>915.39</ele><time>2025-12-05T22:13:06.000Z</time></trkpt>
        <trkpt lat="28.2805744" lon="105.0221397"><ele>916.77</ele><time>2025-12-05T22:13:16.000Z</time></trkpt>
        <trkpt lat="28.2806345" lon="105.0220348"><ele>917.95</ele><time>2025-12-05T22:13:26.000Z</time></trkpt>
        <trkpt lat="28.2807161" lon="105.0219566"><ele>918.75</ele><time>2025-12-05T22:13:36.000Z</time></trkpt>
        <trkpt lat="28.2807843" lon="105.0218721"><ele>919.38</ele><time>2025-12-05T22:13:46.000Z</time></trkpt>
        <trkpt lat="28.2808668" lon="105.0218107"><ele>920.23</ele><time>2025-12-05T22:13:56.000Z</time></trkpt>
        <trkpt lat="28.2809635" lon="105.0217987"><ele>921.54</ele><time>2025-12-05T22:14:06.000Z</time></trkpt>
        <trkpt lat="28.281064" lon="105.0218438"><ele>922.38</ele><time>2025-12-05T22:14:16.000Z</time></trkpt>
        <trkpt lat="28.2811488" lon="105.0219065"><ele>922.88</ele><time>2025-12-05T22:14:32.000Z</time></trkpt>
        <trkpt lat="28.2812087" lon="105.0219922"><ele>923.03</ele><time>2025-12-05T22:14:50.000Z</time></trkpt>
        <trkpt lat="28.2812767" lon="105.0220735"><ele>923.28</ele><time>2025-12-05T22:15:10.000Z</time></trkpt>
        <trkpt lat="28.2813368" lon="105.0221696"><ele>921.95</ele><time>2025-12-05T22:15:24.000Z</time></trkpt>
        <trkpt lat="28.2813854" lon="105.0222673"><ele>921.56</ele><time>2025-12-05T22:15:40.000Z</time></trkpt>
        <trkpt lat="28.2814782" lon="105.0222897"><ele>921.38</ele><time>2025-12-05T22:15:50.000Z</time></trkpt>
        <trkpt lat="28.2815349" lon="105.0222105"><ele>920.74</ele><time>2025-12-05T22:16:04.000Z</time></trkpt>
        <trkpt lat="28.2816196" lon="105.0221674"><ele>918.31</ele><time>2025-12-05T22:16:40.000Z</time></trkpt>
        <trkpt lat="28.2817098" lon="105.0221917"><ele>920.43</ele><time>2025-12-05T22:17:20.000Z</time></trkpt>
        <trkpt lat="28.2817485" lon="105.0222788"><ele>925.19</ele><time>2025-12-05T22:18:02.000Z</time></trkpt>
        <trkpt lat="28.2816596" lon="105.0223679"><ele>927.21</ele><time>2025-12-05T22:19:48.000Z</time></trkpt>
        <trkpt lat="28.281653" lon="105.0223424"><ele>931.54</ele><time>2025-12-05T22:19:56.000Z</time></trkpt>
        <trkpt lat="28.2817527" lon="105.0223314"><ele>934.93</ele><time>2025-12-05T22:26:28.000Z</time></trkpt>
        <trkpt lat="28.2818493" lon="105.0223212"><ele>934.85</ele><time>2025-12-05T22:27:18.000Z</time></trkpt>
        <trkpt lat="28.2819563" lon="105.0223253"><ele>933.86</ele><time>2025-12-05T22:27:30.000Z</time></trkpt>
        <trkpt lat="28.2819987" lon="105.0224037"><ele>932.63</ele><time>2025-12-05T22:27:42.000Z</time></trkpt>
        <trkpt lat="28.2820407" lon="105.0224989"><ele>934.79</ele><time>2025-12-05T22:27:54.000Z</time></trkpt>
        <trkpt lat="28.282078" lon="105.0226025"><ele>936.26</ele><time>2025-12-05T22:28:04.000Z</time></trkpt>
        <trkpt lat="28.2821309" lon="105.0227003"><ele>938.04</ele><time>2025-12-05T22:28:14.000Z</time></trkpt>
        <trkpt lat="28.2822143" lon="105.0227558"><ele>940.87</ele><time>2025-12-05T22:28:26.000Z</time></trkpt>
        <trkpt lat="28.2823076" lon="105.0227656"><ele>942.88</ele><time>2025-12-05T22:28:38.000Z</time></trkpt>
        <trkpt lat="28.2824051" lon="105.022808"><ele>942.84</ele><time>2025-12-05T22:28:48.000Z</time></trkpt>
        <trkpt lat="28.2825064" lon="105.0228239"><ele>943.92</ele><time>2025-12-05T22:28:58.000Z</time></trkpt>
        <trkpt lat="28.2826013" lon="105.022813"><ele>943.62</ele><time>2025-12-05T22:29:08.000Z</time></trkpt>
        <trkpt lat="28.2827058" lon="105.0227993"><ele>942.84</ele><time>2025-12-05T22:29:24.000Z</time></trkpt>
        <trkpt lat="28.2828074" lon="105.0228113"><ele>941.46</ele><time>2025-12-05T22:29:32.000Z</time></trkpt>
        <trkpt lat="28.2829038" lon="105.0228403"><ele>942.42</ele><time>2025-12-05T22:29:40.000Z</time></trkpt>
        <trkpt lat="28.2830103" lon="105.0228654"><ele>944.77</ele><time>2025-12-05T22:29:50.000Z</time></trkpt>
        <trkpt lat="28.2831098" lon="105.0228833"><ele>946.09</ele><time>2025-12-05T22:29:58.000Z</time></trkpt>
        <trkpt lat="28.2832035" lon="105.0228934"><ele>946.96</ele><time>2025-12-05T22:30:06.000Z</time></trkpt>
        <trkpt lat="28.2833037" lon="105.0229081"><ele>947.32</ele><time>2025-12-05T22:30:16.000Z</time></trkpt>
        <trkpt lat="28.2834017" lon="105.0229269"><ele>947.6</ele><time>2025-12-05T22:30:26.000Z</time></trkpt>
        <trkpt lat="28.2835013" lon="105.0229339"><ele>948.74</ele><time>2025-12-05T22:30:40.000Z</time></trkpt>
        <trkpt lat="28.2835447" lon="105.0229966"><ele>949.38</ele><time>2025-12-05T22:30:50.000Z</time></trkpt>
        <trkpt lat="28.2836012" lon="105.0230859"><ele>949.81</ele><time>2025-12-05T22:31:10.000Z</time></trkpt>
        <trkpt lat="28.2836571" lon="105.0231841"><ele>949.92</ele><time>2025-12-05T22:31:28.000Z</time></trkpt>
        <trkpt lat="28.2836547" lon="105.0232943"><ele>949.89</ele><time>2025-12-05T22:31:38.000Z</time></trkpt>
        <trkpt lat="28.2836409" lon="105.0234069"><ele>948.61</ele><time>2025-12-05T22:31:46.000Z</time></trkpt>
        <trkpt lat="28.2836272" lon="105.0235152"><ele>948.17</ele><time>2025-12-05T22:31:54.000Z</time></trkpt>
        <trkpt lat="28.2836082" lon="105.0236247"><ele>948.1</ele><time>2025-12-05T22:32:04.000Z</time></trkpt>
        <trkpt lat="28.2835318" lon="105.0236911"><ele>948.13</ele><time>2025-12-05T22:32:16.000Z</time></trkpt>
        <trkpt lat="28.2834859" lon="105.0237782"><ele>948.06</ele><time>2025-12-05T22:32:26.000Z</time></trkpt>
        <trkpt lat="28.2834593" lon="105.0238819"><ele>948.06</ele><time>2025-12-05T22:32:38.000Z</time></trkpt>
        <trkpt lat="28.283449" lon="105.0239997"><ele>947.9</ele><time>2025-12-05T22:32:52.000Z</time></trkpt>
        <trkpt lat="28.2834864" lon="105.0241044"><ele>947.21</ele><time>2025-12-05T22:33:08.000Z</time></trkpt>
        <trkpt lat="28.283501" lon="105.0242128"><ele>945.94</ele><time>2025-12-05T22:33:22.000Z</time></trkpt>
        <trkpt lat="28.2835016" lon="105.0243228"><ele>945.37</ele><time>2025-12-05T22:33:32.000Z</time></trkpt>
        <trkpt lat="28.2835172" lon="105.0244275"><ele>945.52</ele><time>2025-12-05T22:33:56.000Z</time></trkpt>
        <trkpt lat="28.2835907" lon="105.0244738"><ele>946.21</ele><time>2025-12-05T22:34:32.000Z</time></trkpt>
        <trkpt lat="28.2836843" lon="105.0244656"><ele>945.37</ele><time>2025-12-05T22:34:42.000Z</time></trkpt>
        <trkpt lat="28.2837841" lon="105.0244453"><ele>945.08</ele><time>2025-12-05T22:34:54.000Z</time></trkpt>
        <trkpt lat="28.2838354" lon="105.0243536"><ele>945.24</ele><time>2025-12-05T22:35:08.000Z</time></trkpt>
        <trkpt lat="28.2838806" lon="105.024235"><ele>945.53</ele><time>2025-12-05T22:35:20.000Z</time></trkpt>
        <trkpt lat="28.2839201" lon="105.0241197"><ele>946.42</ele><time>2025-12-05T22:35:30.000Z</time></trkpt>
        <trkpt lat="28.2839279" lon="105.0239978"><ele>947.86</ele><time>2025-12-05T22:35:44.000Z</time></trkpt>
        <trkpt lat="28.2839219" lon="105.023887"><ele>949.27</ele><time>2025-12-05T22:36:00.000Z</time></trkpt>
        <trkpt lat="28.2838706" lon="105.0237912"><ele>950.41</ele><time>2025-12-05T22:36:10.000Z</time></trkpt>
        <trkpt lat="28.2837997" lon="105.0236973"><ele>951.09</ele><time>2025-12-05T22:36:20.000Z</time></trkpt>
        <trkpt lat="28.283725" lon="105.0236144"><ele>951.09</ele><time>2025-12-05T22:36:32.000Z</time></trkpt>
        <trkpt lat="28.2836897" lon="105.0235118"><ele>950.83</ele><time>2025-12-05T22:36:54.000Z</time></trkpt>
        <trkpt lat="28.2836845" lon="105.0234721"><ele>949.17</ele><time>2025-12-05T22:36:58.000Z</time></trkpt>
        <trkpt lat="28.283658" lon="105.0233947"><ele>948.13</ele><time>2025-12-05T22:37:16.000Z</time></trkpt>
        <trkpt lat="28.2836344" lon="105.0232899"><ele>947.43</ele><time>2025-12-05T22:37:38.000Z</time></trkpt>
        <trkpt lat="28.2836342" lon="105.0231815"><ele>946.78</ele><time>2025-12-05T22:37:48.000Z</time></trkpt>
        <trkpt lat="28.2836362" lon="105.0231049"><ele>944.87</ele><time>2025-12-05T22:37:56.000Z</time></trkpt>
        <trkpt lat="28.2836671" lon="105.0230023"><ele>943.55</ele><time>2025-12-05T22:40:32.000Z</time></trkpt>
        <trkpt lat="28.2837023" lon="105.0229064"><ele>940.71</ele><time>2025-12-05T22:41:10.000Z</time></trkpt>
        <trkpt lat="28.2837415" lon="105.022802"><ele>938.62</ele><time>2025-12-05T22:42:14.000Z</time></trkpt>
        <trkpt lat="28.2836994" lon="105.0227073"><ele>934.87</ele><time>2025-12-05T22:44:06.000Z</time></trkpt>
        <trkpt lat="28.2837749" lon="105.0226447"><ele>928.73</ele><time>2025-12-05T22:44:40.000Z</time></trkpt>
        <trkpt lat="28.2838642" lon="105.0226544"><ele>923.02</ele><time>2025-12-05T22:45:14.000Z</time></trkpt>
        <trkpt lat="28.283949" lon="105.0226232"><ele>918.58</ele><time>2025-12-05T22:45:38.000Z</time></trkpt>
        <trkpt lat="28.2838648" lon="105.0225832"><ele>914.87</ele><time>2025-12-05T22:46:42.000Z</time></trkpt>
        <trkpt lat="28.2838256" lon="105.0225896"><ele>910.65</ele><time>2025-12-05T22:46:52.000Z</time></trkpt>
        <trkpt lat="28.2837631" lon="105.0225271"><ele>906.4</ele><time>2025-12-05T22:47:08.000Z</time></trkpt>
        <trkpt lat="28.2837316" lon="105.0224965"><ele>904.77</ele><time>2025-12-05T22:47:16.000Z</time></trkpt>
        <trkpt lat="28.2837736" lon="105.0223898"><ele>904.41</ele><time>2025-12-05T22:48:42.000Z</time></trkpt>
        <trkpt lat="28.2838645" lon="105.0224069"><ele>902.22</ele><time>2025-12-05T22:49:32.000Z</time></trkpt>
        <trkpt lat="28.2837725" lon="105.022372"><ele>898.49</ele><time>2025-12-05T22:50:52.000Z</time></trkpt>
        <trkpt lat="28.2838117" lon="105.022279"><ele>891.34</ele><time>2025-12-05T22:52:16.000Z</time></trkpt>
        <trkpt lat="28.2839025" lon="105.0222532"><ele>883.52</ele><time>2025-12-05T22:52:34.000Z</time></trkpt>
        <trkpt lat="28.283865" lon="105.0221837"><ele>878.66</ele><time>2025-12-05T22:52:56.000Z</time></trkpt>
        <trkpt lat="28.2838243" lon="105.022158"><ele>873.71</ele><time>2025-12-05T22:53:02.000Z</time></trkpt>
        <trkpt lat="28.2838656" lon="105.0221075"><ele>870.36</ele><time>2025-12-05T22:54:00.000Z</time></trkpt>
        <trkpt lat="28.2838418" lon="105.0220248"><ele>865.85</ele><time>2025-12-05T22:54:26.000Z</time></trkpt>
        <trkpt lat="28.2839001" lon="105.021996"><ele>862.47</ele><time>2025-12-05T22:54:42.000Z</time></trkpt>
        <trkpt lat="28.2839348" lon="105.0219109"><ele>859.65</ele><time>2025-12-05T22:55:26.000Z</time></trkpt>
        <trkpt lat="28.2839479" lon="105.0218798"><ele>856.71</ele><time>2025-12-05T22:55:28.000Z</time></trkpt>
        <trkpt lat="28.283897" lon="105.0218177"><ele>854.83</ele><time>2025-12-05T22:56:10.000Z</time></trkpt>
        <trkpt lat="28.2839131" lon="105.0217344"><ele>851.32</ele><time>2025-12-05T22:56:32.000Z</time></trkpt>
        <trkpt lat="28.2839911" lon="105.02169"><ele>848.25</ele><time>2025-12-05T22:56:48.000Z</time></trkpt>
        <trkpt lat="28.2840448" lon="105.021607"><ele>844.5</ele><time>2025-12-05T22:57:40.000Z</time></trkpt>
        <trkpt lat="28.283993" lon="105.0215636"><ele>842.08</ele><time>2025-12-05T22:58:02.000Z</time></trkpt>
        <trkpt lat="28.2840326" lon="105.0215117"><ele>838.48</ele><time>2025-12-05T22:58:20.000Z</time></trkpt>
        <trkpt lat="28.2840172" lon="105.021422"><ele>833.88</ele><time>2025-12-05T22:58:52.000Z</time></trkpt>
        <trkpt lat="28.2840525" lon="105.0213178"><ele>828.4</ele><time>2025-12-05T22:59:30.000Z</time></trkpt>
        <trkpt lat="28.2841315" lon="105.0213333"><ele>822.76</ele><time>2025-12-05T22:59:46.000Z</time></trkpt>
        <trkpt lat="28.2841089" lon="105.0212871"><ele>818.89</ele><time>2025-12-05T23:00:06.000Z</time></trkpt>
        <trkpt lat="28.2840872" lon="105.021194"><ele>815.3</ele><time>2025-12-05T23:00:54.000Z</time></trkpt>
        <trkpt lat="28.2840234" lon="105.0211188"><ele>810.75</ele><time>2025-12-05T23:01:22.000Z</time></trkpt>
        <trkpt lat="28.2840607" lon="105.0210609"><ele>806.1</ele><time>2025-12-05T23:02:00.000Z</time></trkpt>
        <trkpt lat="28.2840173" lon="105.0210144"><ele>802.02</ele><time>2025-12-05T23:02:36.000Z</time></trkpt>
        <trkpt lat="28.2839965" lon="105.0209905"><ele>798.93</ele><time>2025-12-05T23:02:40.000Z</time></trkpt>
        <trkpt lat="28.2840638" lon="105.020974"><ele>796.75</ele><time>2025-12-05T23:03:12.000Z</time></trkpt>
        <trkpt lat="28.2841597" lon="105.0209914"><ele>793.35</ele><time>2025-12-05T23:03:28.000Z</time></trkpt>
        <trkpt lat="28.2841427" lon="105.0209412"><ele>789.46</ele><time>2025-12-05T23:04:02.000Z</time></trkpt>
        <trkpt lat="28.2841044" lon="105.0208495"><ele>785.01</ele><time>2025-12-05T23:04:32.000Z</time></trkpt>
        <trkpt lat="28.2841606" lon="105.0208428"><ele>780.95</ele><time>2025-12-05T23:05:06.000Z</time></trkpt>
        <trkpt lat="28.2842466" lon="105.0208724"><ele>776.97</ele><time>2025-12-05T23:05:54.000Z</time></trkpt>
        <trkpt lat="28.2843342" lon="105.020842"><ele>772.57</ele><time>2025-12-05T23:06:30.000Z</time></trkpt>
        <trkpt lat="28.2844308" lon="105.0207957"><ele>765.7</ele><time>2025-12-05T23:06:44.000Z</time></trkpt>
        <trkpt lat="28.2843688" lon="105.0207107"><ele>763.46</ele><time>2025-12-05T23:08:40.000Z</time></trkpt>
        <trkpt lat="28.2844563" lon="105.0206836"><ele>757.11</ele><time>2025-12-05T23:09:36.000Z</time></trkpt>
        <trkpt lat="28.2845461" lon="105.0206572"><ele>751.77</ele><time>2025-12-05T23:11:00.000Z</time></trkpt>
        <trkpt lat="28.2846311" lon="105.0206193"><ele>743.08</ele><time>2025-12-05T23:11:10.000Z</time></trkpt>
        <trkpt lat="28.2847083" lon="105.0205617"><ele>737.51</ele><time>2025-12-05T23:11:26.000Z</time></trkpt>
        <trkpt lat="28.284778" lon="105.0204869"><ele>732.45</ele><time>2025-12-05T23:11:42.000Z</time></trkpt>
        <trkpt lat="28.2848162" lon="105.0203933"><ele>727.99</ele><time>2025-12-05T23:12:30.000Z</time></trkpt>
        <trkpt lat="28.2848729" lon="105.020313"><ele>721.29</ele><time>2025-12-05T23:13:04.000Z</time></trkpt>
        <trkpt lat="28.2849404" lon="105.0202422"><ele>715.91</ele><time>2025-12-05T23:13:28.000Z</time></trkpt>
        <trkpt lat="28.2850084" lon="105.0201709"><ele>710.56</ele><time>2025-12-05T23:13:48.000Z</time></trkpt>
        <trkpt lat="28.2849265" lon="105.0201114"><ele>706.16</ele><time>2025-12-05T23:15:22.000Z</time></trkpt>
        <trkpt lat="28.2849531" lon="105.0202209"><ele>702.21</ele><time>2025-12-05T23:15:38.000Z</time></trkpt>
        <trkpt lat="28.2850177" lon="105.0201777"><ele>698.85</ele><time>2025-12-05T23:15:54.000Z</time></trkpt>
        <trkpt lat="28.2851015" lon="105.0201849"><ele>696.09</ele><time>2025-12-05T23:16:12.000Z</time></trkpt>
        <trkpt lat="28.2851904" lon="105.0201373"><ele>692.73</ele><time>2025-12-05T23:16:24.000Z</time></trkpt>
        <trkpt lat="28.2852797" lon="105.0200804"><ele>690.97</ele><time>2025-12-05T23:16:32.000Z</time></trkpt>
        <trkpt lat="28.2853095" lon="105.0200575"><ele>688.55</ele><time>2025-12-05T23:16:34.000Z</time></trkpt>
        <trkpt lat="28.2853656" lon="105.0200082"><ele>687.28</ele><time>2025-12-05T23:17:16.000Z</time></trkpt>
        <trkpt lat="28.2853691" lon="105.0199889"><ele>687.49</ele><time>2025-12-05T23:17:26.000Z</time></trkpt>
        <trkpt lat="28.2853961" lon="105.0199089"><ele>688.47</ele><time>2025-12-05T23:18:02.000Z</time></trkpt>
        <trkpt lat="28.2853913" lon="105.0197982"><ele>687.91</ele><time>2025-12-05T23:18:12.000Z</time></trkpt>
        <trkpt lat="28.2854571" lon="105.0197819"><ele>686.49</ele><time>2025-12-05T23:18:20.000Z</time></trkpt>
        <trkpt lat="28.285519" lon="105.0198629"><ele>684.11</ele><time>2025-12-05T23:18:28.000Z</time></trkpt>
        <trkpt lat="28.2856038" lon="105.0199283"><ele>681.2</ele><time>2025-12-05T23:18:38.000Z</time></trkpt>
        <trkpt lat="28.2856676" lon="105.0198877"><ele>678.89</ele><time>2025-12-05T23:18:50.000Z</time></trkpt>
        <trkpt lat="28.2856842" lon="105.0197875"><ele>677.28</ele><time>2025-12-05T23:19:14.000Z</time></trkpt>
        <trkpt lat="28.2856447" lon="105.0196807"><ele>675.72</ele><time>2025-12-05T23:19:22.000Z</time></trkpt>
        <trkpt lat="28.2855858" lon="105.0195786"><ele>673.9</ele><time>2025-12-05T23:19:30.000Z</time></trkpt>
        <trkpt lat="28.2855557" lon="105.0195386"><ele>672.07</ele><time>2025-12-05T23:19:32.000Z</time></trkpt>
        <trkpt lat="28.2855226" lon="105.0194571"><ele>671.14</ele><time>2025-12-05T23:19:48.000Z</time></trkpt>
        <trkpt lat="28.2856098" lon="105.0195138"><ele>670.36</ele><time>2025-12-05T23:20:58.000Z</time></trkpt>
        <trkpt lat="28.285698" lon="105.019454"><ele>669.16</ele><time>2025-12-05T23:21:10.000Z</time></trkpt>
        <trkpt lat="28.2857805" lon="105.0193829"><ele>668.33</ele><time>2025-12-05T23:21:26.000Z</time></trkpt>
        <trkpt lat="28.285848" lon="105.0192926"><ele>667.78</ele><time>2025-12-05T23:21:36.000Z</time></trkpt>
        <trkpt lat="28.2859242" lon="105.0192107"><ele>667.96</ele><time>2025-12-05T23:21:50.000Z</time></trkpt>
        <trkpt lat="28.2859933" lon="105.0191372"><ele>666.84</ele><time>2025-12-05T23:22:02.000Z</time></trkpt>
        <trkpt lat="28.2860746" lon="105.0190932"><ele>665.41</ele><time>2025-12-05T23:22:20.000Z</time></trkpt>
        <trkpt lat="28.2861563" lon="105.0190432"><ele>662.5</ele><time>2025-12-05T23:22:40.000Z</time></trkpt>
        <trkpt lat="28.2862454" lon="105.0190325"><ele>658.71</ele><time>2025-12-05T23:22:58.000Z</time></trkpt>
        <trkpt lat="28.2863236" lon="105.0189828"><ele>655.27</ele><time>2025-12-05T23:23:18.000Z</time></trkpt>
        <trkpt lat="28.2864201" lon="105.0189528"><ele>650.99</ele><time>2025-12-05T23:23:34.000Z</time></trkpt>
        <trkpt lat="28.2865148" lon="105.0189222"><ele>647.69</ele><time>2025-12-05T23:24:02.000Z</time></trkpt>
        <trkpt lat="28.2866009" lon="105.0189491"><ele>645.66</ele><time>2025-12-05T23:24:42.000Z</time></trkpt>
        <trkpt lat="28.2866019" lon="105.0190507"><ele>642.34</ele><time>2025-12-05T23:24:56.000Z</time></trkpt>
        <trkpt lat="28.2866483" lon="105.0190445"><ele>638.72</ele><time>2025-12-05T23:25:20.000Z</time></trkpt>
        <trkpt lat="28.2866818" lon="105.0189581"><ele>633.38</ele><time>2025-12-05T23:25:30.000Z</time></trkpt>
        <trkpt lat="28.286753" lon="105.0188776"><ele>630.39</ele><time>2025-12-05T23:25:58.000Z</time></trkpt>
        <trkpt lat="28.286843" lon="105.0188505"><ele>627.05</ele><time>2025-12-05T23:26:10.000Z</time></trkpt>
        <trkpt lat="28.2869295" lon="105.0188005"><ele>624.15</ele><time>2025-12-05T23:26:26.000Z</time></trkpt>
        <trkpt lat="28.2870078" lon="105.0187273"><ele>621.4</ele><time>2025-12-05T23:26:38.000Z</time></trkpt>
        <trkpt lat="28.2870781" lon="105.0186396"><ele>619.69</ele><time>2025-12-05T23:27:00.000Z</time></trkpt>
        <trkpt lat="28.2871473" lon="105.0185455"><ele>619.05</ele><time>2025-12-05T23:27:12.000Z</time></trkpt>
        <trkpt lat="28.2872163" lon="105.0184688"><ele>618.51</ele><time>2025-12-05T23:27:22.000Z</time></trkpt>
        <trkpt lat="28.2872955" lon="105.0184111"><ele>618.57</ele><time>2025-12-05T23:27:38.000Z</time></trkpt>
        <trkpt lat="28.2872955" lon="105.0184111"><ele>618.57</ele><time>2025-12-05T23:27:38.000Z</time></trkpt>
        <trkpt lat="28.288106" lon="105.0180001"><ele>591.66</ele><time>2025-12-05T23:32:05.000Z</time></trkpt>
        <trkpt lat="28.288106" lon="105.0180001"><ele>591.66</ele><time>2025-12-05T23:32:06.000Z</time></trkpt>
        <trkpt lat="28.2881046" lon="105.0178949"><ele>591.66</ele><time>2025-12-05T23:32:16.000Z</time></trkpt>
        <trkpt lat="28.2880728" lon="105.0177958"><ele>591.57</ele><time>2025-12-05T23:32:26.000Z</time></trkpt>
        <trkpt lat="28.2880289" lon="105.0177018"><ele>591.72</ele><time>2025-12-05T23:32:36.000Z</time></trkpt>
        <trkpt lat="28.2879689" lon="105.0176104"><ele>591.99</ele><time>2025-12-05T23:32:46.000Z</time></trkpt>
        <trkpt lat="28.2878939" lon="105.0175321"><ele>592.21</ele><time>2025-12-05T23:32:56.000Z</time></trkpt>
        <trkpt lat="28.2878015" lon="105.017491"><ele>592.28</ele><time>2025-12-05T23:33:08.000Z</time></trkpt>
        <trkpt lat="28.2876995" lon="105.0175197"><ele>592.37</ele><time>2025-12-05T23:33:38.000Z</time></trkpt>
        <trkpt lat="28.2876025" lon="105.0175596"><ele>592.55</ele><time>2025-12-05T23:33:48.000Z</time></trkpt>
        <trkpt lat="28.287502" lon="105.01758"><ele>592.8</ele><time>2025-12-05T23:33:58.000Z</time></trkpt>
        <trkpt lat="28.2874078" lon="105.0175976"><ele>592.48</ele><time>2025-12-05T23:34:06.000Z</time></trkpt>
        <trkpt lat="28.2873046" lon="105.0175968"><ele>591.88</ele><time>2025-12-05T23:34:16.000Z</time></trkpt>
        <trkpt lat="28.287205" lon="105.0175692"><ele>591.39</ele><time>2025-12-05T23:34:26.000Z</time></trkpt>
        <trkpt lat="28.2871072" lon="105.0175165"><ele>590.4</ele><time>2025-12-05T23:34:36.000Z</time></trkpt>
        <trkpt lat="28.2870175" lon="105.0174772"><ele>589.12</ele><time>2025-12-05T23:34:44.000Z</time></trkpt>
        <trkpt lat="28.2869284" lon="105.0174735"><ele>588.14</ele><time>2025-12-05T23:34:52.000Z</time></trkpt>
        <trkpt lat="28.2868325" lon="105.0174761"><ele>586.81</ele><time>2025-12-05T23:35:02.000Z</time></trkpt>
        <trkpt lat="28.286736" lon="105.0174746"><ele>585.87</ele><time>2025-12-05T23:35:10.000Z</time></trkpt>
        <trkpt lat="28.2866393" lon="105.017457"><ele>584.69</ele><time>2025-12-05T23:35:18.000Z</time></trkpt>
        <trkpt lat="28.2865494" lon="105.0174102"><ele>583.87</ele><time>2025-12-05T23:35:26.000Z</time></trkpt>
        <trkpt lat="28.2864921" lon="105.0173206"><ele>583.4</ele><time>2025-12-05T23:35:34.000Z</time></trkpt>
        <trkpt lat="28.2864442" lon="105.0172029"><ele>583.07</ele><time>2025-12-05T23:35:44.000Z</time></trkpt>
        <trkpt lat="28.2863823" lon="105.0171167"><ele>582.97</ele><time>2025-12-05T23:35:52.000Z</time></trkpt>
        <trkpt lat="28.2863017" lon="105.0170658"><ele>583.17</ele><time>2025-12-05T23:36:00.000Z</time></trkpt>
        <trkpt lat="28.2862106" lon="105.0170232"><ele>583.38</ele><time>2025-12-05T23:36:08.000Z</time></trkpt>
        <trkpt lat="28.2861029" lon="105.0169912"><ele>583.48</ele><time>2025-12-05T23:36:18.000Z</time></trkpt>
        <trkpt lat="28.2859981" lon="105.0169828"><ele>583.01</ele><time>2025-12-05T23:36:26.000Z</time></trkpt>
        <trkpt lat="28.2858988" lon="105.0170015"><ele>582.27</ele><time>2025-12-05T23:36:34.000Z</time></trkpt>
        <trkpt lat="28.2857973" lon="105.0170259"><ele>580.97</ele><time>2025-12-05T23:36:42.000Z</time></trkpt>
        <trkpt lat="28.2856953" lon="105.0170493"><ele>579.46</ele><time>2025-12-05T23:36:50.000Z</time></trkpt>
        <trkpt lat="28.2856084" lon="105.0170901"><ele>579.04</ele><time>2025-12-05T23:37:08.000Z</time></trkpt>
        <trkpt lat="28.2856303" lon="105.0171671"><ele>578.44</ele><time>2025-12-05T23:37:44.000Z</time></trkpt>
        <trkpt lat="28.2851552" lon="105.016979"><ele>577.65</ele><time>2025-12-05T23:39:35.000Z</time></trkpt>
        <trkpt lat="28.2852114" lon="105.0170099"><ele>576.43</ele><time>2025-12-05T23:39:37.000Z</time></trkpt>
        <trkpt lat="28.2852829" lon="105.0172787"><ele>576.42</ele><time>2025-12-05T23:39:43.000Z</time></trkpt>
        <trkpt lat="28.2852211" lon="105.0173708"><ele>575.98</ele><time>2025-12-05T23:40:29.000Z</time></trkpt>
        <trkpt lat="28.2852025" lon="105.0174586"><ele>574.58</ele><time>2025-12-05T23:47:08.000Z</time></trkpt>
        <trkpt lat="28.2853096" lon="105.0174503"><ele>575.19</ele><time>2025-12-05T23:47:20.000Z</time></trkpt>
        <trkpt lat="28.2853416" lon="105.0174448"><ele>570.83</ele><time>2025-12-05T23:47:24.000Z</time></trkpt>
        <trkpt lat="28.2854004" lon="105.0173666"><ele>565.21</ele><time>2025-12-05T23:47:40.000Z</time></trkpt>
        <trkpt lat="28.2854525" lon="105.0172632"><ele>560.1</ele><time>2025-12-05T23:47:48.000Z</time></trkpt>
        <trkpt lat="28.2855127" lon="105.0171679"><ele>556.22</ele><time>2025-12-05T23:47:56.000Z</time></trkpt>
        <trkpt lat="28.2856015" lon="105.0171384"><ele>554.64</ele><time>2025-12-05T23:48:08.000Z</time></trkpt>
        <trkpt lat="28.2857073" lon="105.0171673"><ele>554.61</ele><time>2025-12-05T23:49:14.000Z</time></trkpt>
        <trkpt lat="28.2857778" lon="105.0171003"><ele>555.06</ele><time>2025-12-05T23:49:28.000Z</time></trkpt>
        <trkpt lat="28.2858609" lon="105.0170434"><ele>558.82</ele><time>2025-12-05T23:49:42.000Z</time></trkpt>
        <trkpt lat="28.2859547" lon="105.0170042"><ele>563.43</ele><time>2025-12-05T23:49:56.000Z</time></trkpt>
        <trkpt lat="28.2860475" lon="105.016983"><ele>568.61</ele><time>2025-12-05T23:50:08.000Z</time></trkpt>
        <trkpt lat="28.2861395" lon="105.0169965"><ele>573.39</ele><time>2025-12-05T23:50:18.000Z</time></trkpt>
        <trkpt lat="28.2862309" lon="105.0170408"><ele>577.45</ele><time>2025-12-05T23:50:30.000Z</time></trkpt>
        <trkpt lat="28.2863273" lon="105.0171105"><ele>579.83</ele><time>2025-12-05T23:50:40.000Z</time></trkpt>
        <trkpt lat="28.2864124" lon="105.0171869"><ele>580.09</ele><time>2025-12-05T23:50:50.000Z</time></trkpt>
        <trkpt lat="28.2864823" lon="105.0172713"><ele>579.89</ele><time>2025-12-05T23:51:00.000Z</time></trkpt>
        <trkpt lat="28.2865341" lon="105.0173601"><ele>579.68</ele><time>2025-12-05T23:51:12.000Z</time></trkpt>
        <trkpt lat="28.2865954" lon="105.0174456"><ele>581.16</ele><time>2025-12-05T23:51:24.000Z</time></trkpt>
        <trkpt lat="28.2866769" lon="105.0175024"><ele>582.82</ele><time>2025-12-05T23:51:36.000Z</time></trkpt>
        <trkpt lat="28.2867691" lon="105.0175253"><ele>584.4</ele><time>2025-12-05T23:51:46.000Z</time></trkpt>
        <trkpt lat="28.286874" lon="105.0175158"><ele>586.43</ele><time>2025-12-05T23:51:58.000Z</time></trkpt>
        <trkpt lat="28.2869764" lon="105.0174951"><ele>588.12</ele><time>2025-12-05T23:52:08.000Z</time></trkpt>
        <trkpt lat="28.2870741" lon="105.0175028"><ele>589.12</ele><time>2025-12-05T23:52:36.000Z</time></trkpt>
        <trkpt lat="28.2871692" lon="105.0175283"><ele>589.83</ele><time>2025-12-05T23:52:44.000Z</time></trkpt>
        <trkpt lat="28.2872696" lon="105.017572"><ele>590.47</ele><time>2025-12-05T23:52:54.000Z</time></trkpt>
        <trkpt lat="28.2873658" lon="105.017612"><ele>591.33</ele><time>2025-12-05T23:53:02.000Z</time></trkpt>
        <trkpt lat="28.2874736" lon="105.0176157"><ele>590.53</ele><time>2025-12-05T23:53:10.000Z</time></trkpt>
        <trkpt lat="28.2875799" lon="105.0176028"><ele>590.21</ele><time>2025-12-05T23:53:18.000Z</time></trkpt>
        <trkpt lat="28.2876739" lon="105.0175801"><ele>590.96</ele><time>2025-12-05T23:53:26.000Z</time></trkpt>
        <trkpt lat="28.2877624" lon="105.0175511"><ele>591.78</ele><time>2025-12-05T23:53:34.000Z</time></trkpt>
        <trkpt lat="28.2878522" lon="105.0175324"><ele>592.34</ele><time>2025-12-05T23:53:42.000Z</time></trkpt>
        <trkpt lat="28.2879448" lon="105.0175738"><ele>592.38</ele><time>2025-12-05T23:53:52.000Z</time></trkpt>
        <trkpt lat="28.2880109" lon="105.0176625"><ele>592.25</ele><time>2025-12-05T23:54:02.000Z</time></trkpt>
        <trkpt lat="28.2880651" lon="105.0177634"><ele>591.88</ele><time>2025-12-05T23:54:12.000Z</time></trkpt>
        <trkpt lat="28.2881036" lon="105.0178826"><ele>591.35</ele><time>2025-12-05T23:54:22.000Z</time></trkpt>
        <trkpt lat="28.2881144" lon="105.0180009"><ele>590.64</ele><time>2025-12-05T23:54:32.000Z</time></trkpt>
        <trkpt lat="28.2881073" lon="105.0181144"><ele>589.75</ele><time>2025-12-05T23:54:42.000Z</time></trkpt>
        <trkpt lat="28.2880782" lon="105.0182266"><ele>588.94</ele><time>2025-12-05T23:54:52.000Z</time></trkpt>
        <trkpt lat="28.2880212" lon="105.0183194"><ele>588.48</ele><time>2025-12-05T23:55:02.000Z</time></trkpt>
        <trkpt lat="28.2879402" lon="105.0183955"><ele>588.34</ele><time>2025-12-05T23:55:12.000Z</time></trkpt>
        <trkpt lat="28.2878487" lon="105.0184631"><ele>587.78</ele><time>2025-12-05T23:55:22.000Z</time></trkpt>
        <trkpt lat="28.2877587" lon="105.0185273"><ele>587.68</ele><time>2025-12-05T23:55:32.000Z</time></trkpt>
        <trkpt lat="28.2876681" lon="105.0185846"><ele>587.54</ele><time>2025-12-05T23:55:42.000Z</time></trkpt>
        <trkpt lat="28.2875736" lon="105.0186413"><ele>587.58</ele><time>2025-12-05T23:55:52.000Z</time></trkpt>
        <trkpt lat="28.2874762" lon="105.0186898"><ele>587.8</ele><time>2025-12-05T23:56:00.000Z</time></trkpt>
        <trkpt lat="28.2873869" lon="105.018762"><ele>588.84</ele><time>2025-12-05T23:56:10.000Z</time></trkpt>
        <trkpt lat="28.2873139" lon="105.0188579"><ele>590.24</ele><time>2025-12-05T23:56:20.000Z</time></trkpt>
        <trkpt lat="28.2872713" lon="105.0189759"><ele>590.51</ele><time>2025-12-05T23:56:30.000Z</time></trkpt>
        <trkpt lat="28.287245" lon="105.0190851"><ele>589.05</ele><time>2025-12-05T23:56:38.000Z</time></trkpt>
        <trkpt lat="28.287222" lon="105.0191898"><ele>587.4</ele><time>2025-12-05T23:56:46.000Z</time></trkpt>
        <trkpt lat="28.2872047" lon="105.0192932"><ele>586.43</ele><time>2025-12-05T23:56:54.000Z</time></trkpt>
        <trkpt lat="28.2871992" lon="105.0193964"><ele>585.44</ele><time>2025-12-05T23:57:02.000Z</time></trkpt>
        <trkpt lat="28.2872039" lon="105.0195185"><ele>584.56</ele><time>2025-12-05T23:57:12.000Z</time></trkpt>
        <trkpt lat="28.2872302" lon="105.0196268"><ele>583.39</ele><time>2025-12-05T23:57:20.000Z</time></trkpt>
        <trkpt lat="28.2872866" lon="105.0197279"><ele>582.28</ele><time>2025-12-05T23:57:30.000Z</time></trkpt>
        <trkpt lat="28.2873405" lon="105.0198339"><ele>580.84</ele><time>2025-12-05T23:57:40.000Z</time></trkpt>
        <trkpt lat="28.2873706" lon="105.019946"><ele>580.91</ele><time>2025-12-05T23:57:50.000Z</time></trkpt>
        <trkpt lat="28.287401" lon="105.0200517"><ele>581.45</ele><time>2025-12-05T23:58:00.000Z</time></trkpt>
        <trkpt lat="28.2874457" lon="105.020154"><ele>581.32</ele><time>2025-12-05T23:58:10.000Z</time></trkpt>
        <trkpt lat="28.287479" lon="105.0202537"><ele>581.1</ele><time>2025-12-05T23:58:18.000Z</time></trkpt>
        <trkpt lat="28.2875143" lon="105.0203543"><ele>580.65</ele><time>2025-12-05T23:58:28.000Z</time></trkpt>
        <trkpt lat="28.287598" lon="105.020361"><ele>580.25</ele><time>2025-12-05T23:58:38.000Z</time></trkpt>
        <trkpt lat="28.2876996" lon="105.0203291"><ele>580.67</ele><time>2025-12-05T23:58:48.000Z</time></trkpt>
        <trkpt lat="28.2878136" lon="105.020305"><ele>580.58</ele><time>2025-12-05T23:58:58.000Z</time></trkpt>
        <trkpt lat="28.2879263" lon="105.0202819"><ele>580.25</ele><time>2025-12-05T23:59:08.000Z</time></trkpt>
        <trkpt lat="28.2880361" lon="105.0202647"><ele>579.95</ele><time>2025-12-05T23:59:18.000Z</time></trkpt>
        <trkpt lat="28.2881452" lon="105.0202512"><ele>579.76</ele><time>2025-12-05T23:59:28.000Z</time></trkpt>
        <trkpt lat="28.2882536" lon="105.0202266"><ele>579.46</ele><time>2025-12-05T23:59:38.000Z</time></trkpt>
        <trkpt lat="28.2883596" lon="105.020201"><ele>579.55</ele><time>2025-12-05T23:59:48.000Z</time></trkpt>
        <trkpt lat="28.2884626" lon="105.0201846"><ele>579.63</ele><time>2025-12-05T23:59:58.000Z</time></trkpt>
        <trkpt lat="28.2885679" lon="105.0201962"><ele>579.18</ele><time>2025-12-06T00:00:08.000Z</time></trkpt>
        <trkpt lat="28.288667" lon="105.02024"><ele>578.02</ele><time>2025-12-06T00:00:18.000Z</time></trkpt>
        <trkpt lat="28.288759" lon="105.0203023"><ele>576.37</ele><time>2025-12-06T00:00:28.000Z</time></trkpt>
        <trkpt lat="28.2888485" lon="105.0203645"><ele>574.96</ele><time>2025-12-06T00:00:38.000Z</time></trkpt>
        <trkpt lat="28.2889368" lon="105.0204232"><ele>573.68</ele><time>2025-12-06T00:00:48.000Z</time></trkpt>
        <trkpt lat="28.2890237" lon="105.0204776"><ele>572.7</ele><time>2025-12-06T00:00:58.000Z</time></trkpt>
        <trkpt lat="28.2891192" lon="105.020529"><ele>571.91</ele><time>2025-12-06T00:01:08.000Z</time></trkpt>
        <trkpt lat="28.2892193" lon="105.0205814"><ele>571.29</ele><time>2025-12-06T00:01:18.000Z</time></trkpt>
        <trkpt lat="28.2893188" lon="105.0206277"><ele>570.94</ele><time>2025-12-06T00:01:28.000Z</time></trkpt>
        <trkpt lat="28.2894211" lon="105.0206663"><ele>570.01</ele><time>2025-12-06T00:01:38.000Z</time></trkpt>
        <trkpt lat="28.2895252" lon="105.0206923"><ele>568.83</ele><time>2025-12-06T00:01:48.000Z</time></trkpt>
        <trkpt lat="28.2896261" lon="105.020682"><ele>567.77</ele><time>2025-12-06T00:01:58.000Z</time></trkpt>
        <trkpt lat="28.2897198" lon="105.0206441"><ele>567.37</ele><time>2025-12-06T00:02:08.000Z</time></trkpt>
        <trkpt lat="28.2898018" lon="105.0205849"><ele>566.64</ele><time>2025-12-06T00:02:16.000Z</time></trkpt>
        <trkpt lat="28.2898706" lon="105.0204904"><ele>566.22</ele><time>2025-12-06T00:02:26.000Z</time></trkpt>
        <trkpt lat="28.2899285" lon="105.020399"><ele>565.85</ele><time>2025-12-06T00:02:34.000Z</time></trkpt>
        <trkpt lat="28.289994" lon="105.0203023"><ele>565.57</ele><time>2025-12-06T00:02:44.000Z</time></trkpt>
        <trkpt lat="28.2900701" lon="105.0202404"><ele>564.91</ele><time>2025-12-06T00:02:52.000Z</time></trkpt>
        <trkpt lat="28.2901529" lon="105.0201996"><ele>563.89</ele><time>2025-12-06T00:03:00.000Z</time></trkpt>
        <trkpt lat="28.2902453" lon="105.0201539"><ele>562.35</ele><time>2025-12-06T00:03:10.000Z</time></trkpt>
        <trkpt lat="28.290327" lon="105.0200962"><ele>560.31</ele><time>2025-12-06T00:03:18.000Z</time></trkpt>
        <trkpt lat="28.2904086" lon="105.0200304"><ele>558.44</ele><time>2025-12-06T00:03:26.000Z</time></trkpt>
        <trkpt lat="28.2904897" lon="105.0199721"><ele>557.07</ele><time>2025-12-06T00:03:34.000Z</time></trkpt>
        <trkpt lat="28.2905728" lon="105.0199217"><ele>556.52</ele><time>2025-12-06T00:03:42.000Z</time></trkpt>
        <trkpt lat="28.2906755" lon="105.0198834"><ele>556.22</ele><time>2025-12-06T00:03:52.000Z</time></trkpt>
        <trkpt lat="28.2907704" lon="105.0198947"><ele>555.75</ele><time>2025-12-06T00:04:00.000Z</time></trkpt>
        <trkpt lat="28.2908609" lon="105.0199391"><ele>555.03</ele><time>2025-12-06T00:04:08.000Z</time></trkpt>
        <trkpt lat="28.2909544" lon="105.0199912"><ele>553.72</ele><time>2025-12-06T00:04:16.000Z</time></trkpt>
        <trkpt lat="28.2910394" lon="105.020055"><ele>552.42</ele><time>2025-12-06T00:04:24.000Z</time></trkpt>
        <trkpt lat="28.2911086" lon="105.0201427"><ele>551.54</ele><time>2025-12-06T00:04:32.000Z</time></trkpt>
        <trkpt lat="28.2911663" lon="105.0202332"><ele>550.72</ele><time>2025-12-06T00:04:40.000Z</time></trkpt>
        <trkpt lat="28.2912293" lon="105.0203115"><ele>550.01</ele><time>2025-12-06T00:04:48.000Z</time></trkpt>
        <trkpt lat="28.2913163" lon="105.0203344"><ele>549.71</ele><time>2025-12-06T00:04:56.000Z</time></trkpt>
        <trkpt lat="28.2914057" lon="105.0202932"><ele>548.58</ele><time>2025-12-06T00:05:04.000Z</time></trkpt>
        <trkpt lat="28.2914766" lon="105.0202117"><ele>547.35</ele><time>2025-12-06T00:05:12.000Z</time></trkpt>
        <trkpt lat="28.2915295" lon="105.0201087"><ele>546.11</ele><time>2025-12-06T00:05:20.000Z</time></trkpt>
        <trkpt lat="28.2915809" lon="105.0200076"><ele>545.05</ele><time>2025-12-06T00:05:28.000Z</time></trkpt>
        <trkpt lat="28.2916522" lon="105.0199367"><ele>544.11</ele><time>2025-12-06T00:05:36.000Z</time></trkpt>
        <trkpt lat="28.2917438" lon="105.0199333"><ele>542.79</ele><time>2025-12-06T00:05:44.000Z</time></trkpt>
        <trkpt lat="28.2918374" lon="105.0199726"><ele>541.57</ele><time>2025-12-06T00:05:52.000Z</time></trkpt>
        <trkpt lat="28.2919252" lon="105.0200354"><ele>540.59</ele><time>2025-12-06T00:06:00.000Z</time></trkpt>
        <trkpt lat="28.2920055" lon="105.0201122"><ele>539.97</ele><time>2025-12-06T00:06:08.000Z</time></trkpt>
        <trkpt lat="28.292083" lon="105.0201878"><ele>539.87</ele><time>2025-12-06T00:06:16.000Z</time></trkpt>
        <trkpt lat="28.2921659" lon="105.0202493"><ele>539.83</ele><time>2025-12-06T00:06:24.000Z</time></trkpt>
        <trkpt lat="28.2922554" lon="105.0202431"><ele>539.08</ele><time>2025-12-06T00:06:32.000Z</time></trkpt>
        <trkpt lat="28.2923072" lon="105.0201524"><ele>538.75</ele><time>2025-12-06T00:06:40.000Z</time></trkpt>
        <trkpt lat="28.2923392" lon="105.0200278"><ele>538.47</ele><time>2025-12-06T00:06:48.000Z</time></trkpt>
        <trkpt lat="28.2923524" lon="105.0198999"><ele>538.38</ele><time>2025-12-06T00:06:56.000Z</time></trkpt>
        <trkpt lat="28.292374" lon="105.0197861"><ele>539.02</ele><time>2025-12-06T00:07:04.000Z</time></trkpt>
        <trkpt lat="28.292402" lon="105.0196814"><ele>539.61</ele><time>2025-12-06T00:07:12.000Z</time></trkpt>
        <trkpt lat="28.2924492" lon="105.019592"><ele>540.46</ele><time>2025-12-06T00:07:20.000Z</time></trkpt>
        <trkpt lat="28.2925294" lon="105.0195546"><ele>540.72</ele><time>2025-12-06T00:07:28.000Z</time></trkpt>
        <trkpt lat="28.2926224" lon="105.0195739"><ele>540.23</ele><time>2025-12-06T00:07:36.000Z</time></trkpt>
        <trkpt lat="28.2927173" lon="105.0196082"><ele>539.95</ele><time>2025-12-06T00:07:44.000Z</time></trkpt>
        <trkpt lat="28.2928195" lon="105.0196245"><ele>539.25</ele><time>2025-12-06T00:07:52.000Z</time></trkpt>
        <trkpt lat="28.2929197" lon="105.0196457"><ele>538.58</ele><time>2025-12-06T00:08:00.000Z</time></trkpt>
        <trkpt lat="28.2930173" lon="105.0196658"><ele>537.63</ele><time>2025-12-06T00:08:08.000Z</time></trkpt>
        <trkpt lat="28.2931123" lon="105.0196985"><ele>536.75</ele><time>2025-12-06T00:08:16.000Z</time></trkpt>
        <trkpt lat="28.2931984" lon="105.0197503"><ele>535.84</ele><time>2025-12-06T00:08:24.000Z</time></trkpt>
        <trkpt lat="28.293276" lon="105.0198143"><ele>535.07</ele><time>2025-12-06T00:08:32.000Z</time></trkpt>
        <trkpt lat="28.2933294" lon="105.019904"><ele>534.66</ele><time>2025-12-06T00:08:40.000Z</time></trkpt>
        <trkpt lat="28.2933566" lon="105.0200111"><ele>534.32</ele><time>2025-12-06T00:08:48.000Z</time></trkpt>
        <trkpt lat="28.2933683" lon="105.0201188"><ele>534.17</ele><time>2025-12-06T00:08:56.000Z</time></trkpt>
        <trkpt lat="28.2933896" lon="105.0202394"><ele>534.4</ele><time>2025-12-06T00:09:06.000Z</time></trkpt>
        <trkpt lat="28.2934175" lon="105.0203643"><ele>534.73</ele><time>2025-12-06T00:09:16.000Z</time></trkpt>
        <trkpt lat="28.2934576" lon="105.0204686"><ele>534.9</ele><time>2025-12-06T00:09:24.000Z</time></trkpt>
        <trkpt lat="28.2935147" lon="105.0205591"><ele>535.21</ele><time>2025-12-06T00:09:32.000Z</time></trkpt>
        <trkpt lat="28.2935623" lon="105.0206535"><ele>534.99</ele><time>2025-12-06T00:09:40.000Z</time></trkpt>
        <trkpt lat="28.2935849" lon="105.0207573"><ele>535</ele><time>2025-12-06T00:09:48.000Z</time></trkpt>
        <trkpt lat="28.2936101" lon="105.0208681"><ele>535.56</ele><time>2025-12-06T00:09:56.000Z</time></trkpt>
        <trkpt lat="28.2936565" lon="105.020978"><ele>535.28</ele><time>2025-12-06T00:10:04.000Z</time></trkpt>
        <trkpt lat="28.2937311" lon="105.0210608"><ele>535.13</ele><time>2025-12-06T00:10:12.000Z</time></trkpt>
        <trkpt lat="28.2938016" lon="105.0211571"><ele>535.14</ele><time>2025-12-06T00:10:22.000Z</time></trkpt>
        <trkpt lat="28.2938917" lon="105.0212334"><ele>535.08</ele><time>2025-12-06T00:10:30.000Z</time></trkpt>
        <trkpt lat="28.29398" lon="105.0213014"><ele>534.66</ele><time>2025-12-06T00:10:38.000Z</time></trkpt>
        <trkpt lat="28.2940706" lon="105.0213626"><ele>534.46</ele><time>2025-12-06T00:10:46.000Z</time></trkpt>
        <trkpt lat="28.2941624" lon="105.0214177"><ele>534.03</ele><time>2025-12-06T00:10:54.000Z</time></trkpt>
        <trkpt lat="28.2940992" lon="105.0214458"><ele>533</ele><time>2025-12-06T00:11:08.000Z</time></trkpt>
        <trkpt lat="28.2939811" lon="105.021453"><ele>529.36</ele><time>2025-12-06T00:11:16.000Z</time></trkpt>
        <trkpt lat="28.2938654" lon="105.0214893"><ele>526.15</ele><time>2025-12-06T00:11:24.000Z</time></trkpt>
        <trkpt lat="28.2938128" lon="105.0215838"><ele>522.9</ele><time>2025-12-06T00:11:32.000Z</time></trkpt>
        <trkpt lat="28.2937924" lon="105.0217004"><ele>520.34</ele><time>2025-12-06T00:11:40.000Z</time></trkpt>
        <trkpt lat="28.2937849" lon="105.0218215"><ele>518.04</ele><time>2025-12-06T00:11:48.000Z</time></trkpt>
        <trkpt lat="28.2938095" lon="105.0219363"><ele>516.15</ele><time>2025-12-06T00:11:56.000Z</time></trkpt>
        <trkpt lat="28.2938986" lon="105.0220064"><ele>514.75</ele><time>2025-12-06T00:12:06.000Z</time></trkpt>
        <trkpt lat="28.2940035" lon="105.0220233"><ele>512.78</ele><time>2025-12-06T00:12:14.000Z</time></trkpt>
        <trkpt lat="28.2941062" lon="105.0220339"><ele>511.51</ele><time>2025-12-06T00:12:22.000Z</time></trkpt>
        <trkpt lat="28.2941795" lon="105.0220898"><ele>510.95</ele><time>2025-12-06T00:12:30.000Z</time></trkpt>
        <trkpt lat="28.2942165" lon="105.022187"><ele>510.46</ele><time>2025-12-06T00:12:40.000Z</time></trkpt>
        <trkpt lat="28.2942344" lon="105.0222977"><ele>510.89</ele><time>2025-12-06T00:12:58.000Z</time></trkpt>
        <trkpt lat="28.2942771" lon="105.0223983"><ele>511.99</ele><time>2025-12-06T00:13:08.000Z</time></trkpt>
        <trkpt lat="28.2943242" lon="105.0224955"><ele>514.08</ele><time>2025-12-06T00:13:22.000Z</time></trkpt>
        <trkpt lat="28.294349" lon="105.0225956"><ele>515.65</ele><time>2025-12-06T00:13:34.000Z</time></trkpt>
        <trkpt lat="28.29434" lon="105.0226994"><ele>515.97</ele><time>2025-12-06T00:13:44.000Z</time></trkpt>
        <trkpt lat="28.2942866" lon="105.0227915"><ele>516.36</ele><time>2025-12-06T00:13:54.000Z</time></trkpt>
        <trkpt lat="28.2942165" lon="105.0228798"><ele>516.36</ele><time>2025-12-06T00:14:04.000Z</time></trkpt>
        <trkpt lat="28.2941477" lon="105.0229682"><ele>516.42</ele><time>2025-12-06T00:14:14.000Z</time></trkpt>
        <trkpt lat="28.2940847" lon="105.0230681"><ele>517.38</ele><time>2025-12-06T00:14:24.000Z</time></trkpt>
        <trkpt lat="28.294017" lon="105.023152"><ele>518.42</ele><time>2025-12-06T00:14:34.000Z</time></trkpt>
        <trkpt lat="28.2939396" lon="105.0232247"><ele>519.02</ele><time>2025-12-06T00:14:44.000Z</time></trkpt>
        <trkpt lat="28.2938538" lon="105.0232926"><ele>518.49</ele><time>2025-12-06T00:14:54.000Z</time></trkpt>
        <trkpt lat="28.2937975" lon="105.0233962"><ele>517.49</ele><time>2025-12-06T00:15:04.000Z</time></trkpt>
        <trkpt lat="28.2937943" lon="105.023508"><ele>516.01</ele><time>2025-12-06T00:15:12.000Z</time></trkpt>
        <trkpt lat="28.2938356" lon="105.0236156"><ele>514.87</ele><time>2025-12-06T00:15:20.000Z</time></trkpt>
        <trkpt lat="28.2939153" lon="105.0237033"><ele>513.74</ele><time>2025-12-06T00:15:28.000Z</time></trkpt>
        <trkpt lat="28.2940032" lon="105.0237829"><ele>512.28</ele><time>2025-12-06T00:15:36.000Z</time></trkpt>
        <trkpt lat="28.2940848" lon="105.0238674"><ele>511.13</ele><time>2025-12-06T00:15:44.000Z</time></trkpt>
        <trkpt lat="28.2941492" lon="105.0239625"><ele>510.75</ele><time>2025-12-06T00:15:52.000Z</time></trkpt>
        <trkpt lat="28.2941805" lon="105.0240666"><ele>510.86</ele><time>2025-12-06T00:16:00.000Z</time></trkpt>
        <trkpt lat="28.2941834" lon="105.0241707"><ele>511.34</ele><time>2025-12-06T00:16:08.000Z</time></trkpt>
        <trkpt lat="28.2941486" lon="105.0242735"><ele>512.02</ele><time>2025-12-06T00:16:16.000Z</time></trkpt>
        <trkpt lat="28.2940815" lon="105.0243615"><ele>512.95</ele><time>2025-12-06T00:16:26.000Z</time></trkpt>
        <trkpt lat="28.2940087" lon="105.0244502"><ele>511.53</ele><time>2025-12-06T00:16:36.000Z</time></trkpt>
        <trkpt lat="28.2939341" lon="105.0245468"><ele>509.26</ele><time>2025-12-06T00:16:46.000Z</time></trkpt>
        <trkpt lat="28.293909" lon="105.0246596"><ele>507.81</ele><time>2025-12-06T00:16:54.000Z</time></trkpt>
        <trkpt lat="28.2939357" lon="105.0247733"><ele>508.05</ele><time>2025-12-06T00:17:04.000Z</time></trkpt>
        <trkpt lat="28.2939853" lon="105.0248786"><ele>509.14</ele><time>2025-12-06T00:17:14.000Z</time></trkpt>
        <trkpt lat="28.2939577" lon="105.0249688"><ele>510.19</ele><time>2025-12-06T00:17:26.000Z</time></trkpt>
        <trkpt lat="28.2938729" lon="105.0249929"><ele>511.42</ele><time>2025-12-06T00:17:36.000Z</time></trkpt>
        <trkpt lat="28.2937735" lon="105.0249988"><ele>513.27</ele><time>2025-12-06T00:17:46.000Z</time></trkpt>
        <trkpt lat="28.2936715" lon="105.0250307"><ele>514.92</ele><time>2025-12-06T00:17:56.000Z</time></trkpt>
        <trkpt lat="28.2935696" lon="105.025063"><ele>516.66</ele><time>2025-12-06T00:18:06.000Z</time></trkpt>
        <trkpt lat="28.2934613" lon="105.0250772"><ele>517.53</ele><time>2025-12-06T00:18:16.000Z</time></trkpt>
        <trkpt lat="28.2933521" lon="105.0250774"><ele>517.89</ele><time>2025-12-06T00:18:26.000Z</time></trkpt>
        <trkpt lat="28.2932435" lon="105.0250618"><ele>517.78</ele><time>2025-12-06T00:18:36.000Z</time></trkpt>
        <trkpt lat="28.2931396" lon="105.025025"><ele>517.02</ele><time>2025-12-06T00:18:46.000Z</time></trkpt>
        <trkpt lat="28.2930525" lon="105.0249782"><ele>516.39</ele><time>2025-12-06T00:18:54.000Z</time></trkpt>
        <trkpt lat="28.2929613" lon="105.0249296"><ele>516.1</ele><time>2025-12-06T00:19:04.000Z</time></trkpt>
        <trkpt lat="28.2928684" lon="105.0249271"><ele>516.39</ele><time>2025-12-06T00:19:14.000Z</time></trkpt>
        <trkpt lat="28.2928096" lon="105.0250015"><ele>516.93</ele><time>2025-12-06T00:19:26.000Z</time></trkpt>
        <trkpt lat="28.2927662" lon="105.0251088"><ele>518.63</ele><time>2025-12-06T00:19:38.000Z</time></trkpt>
        <trkpt lat="28.2927298" lon="105.0252187"><ele>520.46</ele><time>2025-12-06T00:19:48.000Z</time></trkpt>
        <trkpt lat="28.2927433" lon="105.0253411"><ele>522.66</ele><time>2025-12-06T00:20:00.000Z</time></trkpt>
        <trkpt lat="28.2927875" lon="105.0254613"><ele>525.48</ele><time>2025-12-06T00:20:12.000Z</time></trkpt>
        <trkpt lat="28.2928335" lon="105.0255724"><ele>527.8</ele><time>2025-12-06T00:20:22.000Z</time></trkpt>
        <trkpt lat="28.2928595" lon="105.02569"><ele>528.44</ele><time>2025-12-06T00:20:32.000Z</time></trkpt>
        <trkpt lat="28.292831" lon="105.0258039"><ele>528.94</ele><time>2025-12-06T00:20:44.000Z</time></trkpt>
        <trkpt lat="28.2927467" lon="105.0258634"><ele>530.1</ele><time>2025-12-06T00:20:54.000Z</time></trkpt>
        <trkpt lat="28.2926385" lon="105.0259072"><ele>531.09</ele><time>2025-12-06T00:21:04.000Z</time></trkpt>
        <trkpt lat="28.2925355" lon="105.0259303"><ele>531.46</ele><time>2025-12-06T00:21:12.000Z</time></trkpt>
        <trkpt lat="28.2924333" lon="105.0259255"><ele>531.64</ele><time>2025-12-06T00:21:20.000Z</time></trkpt>
        <trkpt lat="28.2923251" lon="105.0258969"><ele>531.69</ele><time>2025-12-06T00:21:28.000Z</time></trkpt>
        <trkpt lat="28.292222" lon="105.025884"><ele>531.21</ele><time>2025-12-06T00:21:36.000Z</time></trkpt>
        <trkpt lat="28.2921577" lon="105.0259565"><ele>530.78</ele><time>2025-12-06T00:21:44.000Z</time></trkpt>
        <trkpt lat="28.292139" lon="105.0260657"><ele>529.89</ele><time>2025-12-06T00:21:52.000Z</time></trkpt>
        <trkpt lat="28.292123" lon="105.0261804"><ele>528.95</ele><time>2025-12-06T00:22:00.000Z</time></trkpt>
        <trkpt lat="28.292145" lon="105.0262973"><ele>528.53</ele><time>2025-12-06T00:22:08.000Z</time></trkpt>
        <trkpt lat="28.2922203" lon="105.0263757"><ele>528.41</ele><time>2025-12-06T00:22:16.000Z</time></trkpt>
        <trkpt lat="28.2923038" lon="105.0264479"><ele>527.71</ele><time>2025-12-06T00:22:24.000Z</time></trkpt>
        <trkpt lat="28.2923594" lon="105.0265387"><ele>526.96</ele><time>2025-12-06T00:22:32.000Z</time></trkpt>
        <trkpt lat="28.292374" lon="105.0266445"><ele>526.59</ele><time>2025-12-06T00:22:42.000Z</time></trkpt>
        <trkpt lat="28.292344" lon="105.0267643"><ele>526.97</ele><time>2025-12-06T00:22:52.000Z</time></trkpt>
        <trkpt lat="28.2922982" lon="105.0268817"><ele>527.67</ele><time>2025-12-06T00:23:02.000Z</time></trkpt>
        <trkpt lat="28.2922332" lon="105.0269846"><ele>528.59</ele><time>2025-12-06T00:23:12.000Z</time></trkpt>
        <trkpt lat="28.2921594" lon="105.0270704"><ele>528.85</ele><time>2025-12-06T00:23:22.000Z</time></trkpt>
        <trkpt lat="28.2920695" lon="105.0271277"><ele>528.54</ele><time>2025-12-06T00:23:32.000Z</time></trkpt>
        <trkpt lat="28.2919729" lon="105.0271583"><ele>528.3</ele><time>2025-12-06T00:23:40.000Z</time></trkpt>
        <trkpt lat="28.2918796" lon="105.0271952"><ele>527.34</ele><time>2025-12-06T00:23:48.000Z</time></trkpt>
        <trkpt lat="28.2918465" lon="105.0272801"><ele>526.78</ele><time>2025-12-06T00:23:56.000Z</time></trkpt>
        <trkpt lat="28.2918839" lon="105.0273787"><ele>525.93</ele><time>2025-12-06T00:24:04.000Z</time></trkpt>
        <trkpt lat="28.2919584" lon="105.0274662"><ele>524.73</ele><time>2025-12-06T00:24:12.000Z</time></trkpt>
        <trkpt lat="28.2920398" lon="105.0275438"><ele>524.06</ele><time>2025-12-06T00:24:20.000Z</time></trkpt>
        <trkpt lat="28.2921102" lon="105.0276213"><ele>523.96</ele><time>2025-12-06T00:24:28.000Z</time></trkpt>
        <trkpt lat="28.2921687" lon="105.0277138"><ele>524.33</ele><time>2025-12-06T00:24:38.000Z</time></trkpt>
        <trkpt lat="28.2921887" lon="105.0278342"><ele>525.01</ele><time>2025-12-06T00:24:48.000Z</time></trkpt>
        <trkpt lat="28.2921652" lon="105.0279421"><ele>525.93</ele><time>2025-12-06T00:24:58.000Z</time></trkpt>
        <trkpt lat="28.2921829" lon="105.0278942"><ele>526.75</ele><time>2025-12-06T00:25:10.000Z</time></trkpt>
        <trkpt lat="28.2921825" lon="105.0277848"><ele>526.76</ele><time>2025-12-06T00:25:18.000Z</time></trkpt>
        <trkpt lat="28.2921609" lon="105.0276571"><ele>526.88</ele><time>2025-12-06T00:25:26.000Z</time></trkpt>
        <trkpt lat="28.2921086" lon="105.0275488"><ele>527.11</ele><time>2025-12-06T00:25:34.000Z</time></trkpt>
        <trkpt lat="28.2920612" lon="105.0274851"><ele>527.46</ele><time>2025-12-06T00:25:40.000Z</time></trkpt>
        <trkpt lat="28.2919956" lon="105.0274092"><ele>527.47</ele><time>2025-12-06T00:25:56.000Z</time></trkpt>
        <trkpt lat="28.2919168" lon="105.0273341"><ele>527.01</ele><time>2025-12-06T00:26:08.000Z</time></trkpt>
        <trkpt lat="28.2918584" lon="105.0272405"><ele>526.33</ele><time>2025-12-06T00:26:18.000Z</time></trkpt>
        <trkpt lat="28.2919009" lon="105.0271537"><ele>525.68</ele><time>2025-12-06T00:26:28.000Z</time></trkpt>
        <trkpt lat="28.2919787" lon="105.0271359"><ele>524.87</ele><time>2025-12-06T00:26:40.000Z</time></trkpt>
        <trkpt lat="28.2920787" lon="105.0271371"><ele>523.39</ele><time>2025-12-06T00:26:52.000Z</time></trkpt>
        <trkpt lat="28.2921868" lon="105.0271384"><ele>522.06</ele><time>2025-12-06T00:27:00.000Z</time></trkpt>
        <trkpt lat="28.2922879" lon="105.0271279"><ele>520.46</ele><time>2025-12-06T00:27:08.000Z</time></trkpt>
        <trkpt lat="28.2923944" lon="105.0271425"><ele>519.37</ele><time>2025-12-06T00:27:18.000Z</time></trkpt>
        <trkpt lat="28.2924858" lon="105.0271961"><ele>518.51</ele><time>2025-12-06T00:27:28.000Z</time></trkpt>
        <trkpt lat="28.2925545" lon="105.0272749"><ele>517.82</ele><time>2025-12-06T00:27:36.000Z</time></trkpt>
        <trkpt lat="28.2925886" lon="105.0273208"><ele>517.66</ele><time>2025-12-06T00:27:40.000Z</time></trkpt>
        <trkpt lat="28.29264" lon="105.0274036"><ele>517.37</ele><time>2025-12-06T00:28:28.000Z</time></trkpt>
        <trkpt lat="28.2927049" lon="105.0274879"><ele>517</ele><time>2025-12-06T00:28:38.000Z</time></trkpt>
        <trkpt lat="28.2927859" lon="105.0275707"><ele>516.55</ele><time>2025-12-06T00:28:48.000Z</time></trkpt>
        <trkpt lat="28.2928726" lon="105.027635"><ele>516</ele><time>2025-12-06T00:28:58.000Z</time></trkpt>
        <trkpt lat="28.2929684" lon="105.0276813"><ele>515.4</ele><time>2025-12-06T00:29:10.000Z</time></trkpt>
        <trkpt lat="28.2930196" lon="105.0277675"><ele>515.03</ele><time>2025-12-06T00:29:24.000Z</time></trkpt>
        <trkpt lat="28.2929998" lon="105.0278793"><ele>514.17</ele><time>2025-12-06T00:30:54.000Z</time></trkpt>
        <trkpt lat="28.2930813" lon="105.0279341"><ele>513.19</ele><time>2025-12-06T00:31:12.000Z</time></trkpt>
        <trkpt lat="28.2931431" lon="105.0279909"><ele>511.05</ele><time>2025-12-06T00:31:24.000Z</time></trkpt>
        <trkpt lat="28.2932286" lon="105.0279787"><ele>508.88</ele><time>2025-12-06T00:31:48.000Z</time></trkpt>
        <trkpt lat="28.293321" lon="105.0279541"><ele>507.23</ele><time>2025-12-06T00:32:00.000Z</time></trkpt>
        <trkpt lat="28.2933426" lon="105.0280201"><ele>507.16</ele><time>2025-12-06T00:32:08.000Z</time></trkpt>
        <trkpt lat="28.2933316" lon="105.0281252"><ele>507.31</ele><time>2025-12-06T00:32:20.000Z</time></trkpt>
        <trkpt lat="28.2933089" lon="105.0282438"><ele>506.66</ele><time>2025-12-06T00:32:38.000Z</time></trkpt>
        <trkpt lat="28.2932617" lon="105.0283458"><ele>505.11</ele><time>2025-12-06T00:32:54.000Z</time></trkpt>
        <trkpt lat="28.2932237" lon="105.028459"><ele>503.05</ele><time>2025-12-06T00:33:10.000Z</time></trkpt>
        <trkpt lat="28.2932378" lon="105.0285689"><ele>500.32</ele><time>2025-12-06T00:34:04.000Z</time></trkpt>
        <trkpt lat="28.2932344" lon="105.0286794"><ele>496.36</ele><time>2025-12-06T00:34:18.000Z</time></trkpt>
        <trkpt lat="28.293272" lon="105.0287709"><ele>494.02</ele><time>2025-12-06T00:34:30.000Z</time></trkpt>
        <trkpt lat="28.2933523" lon="105.028817"><ele>491.19</ele><time>2025-12-06T00:34:48.000Z</time></trkpt>
        <trkpt lat="28.2933735" lon="105.0288427"><ele>489.15</ele><time>2025-12-06T00:34:56.000Z</time></trkpt>
        <trkpt lat="28.2934489" lon="105.0288663"><ele>486.89</ele><time>2025-12-06T00:35:42.000Z</time></trkpt>
        <trkpt lat="28.2934926" lon="105.028888"><ele>482.46</ele><time>2025-12-06T00:35:56.000Z</time></trkpt>
        <trkpt lat="28.2935575" lon="105.0289466"><ele>479.09</ele><time>2025-12-06T00:36:10.000Z</time></trkpt>
        <trkpt lat="28.2935778" lon="105.0289636"><ele>477.56</ele><time>2025-12-06T00:36:12.000Z</time></trkpt>
        <trkpt lat="28.2936448" lon="105.0289458"><ele>476.42</ele><time>2025-12-06T00:36:26.000Z</time></trkpt>
        <trkpt lat="28.293738" lon="105.0289226"><ele>475.99</ele><time>2025-12-06T00:36:56.000Z</time></trkpt>
        <trkpt lat="28.2938392" lon="105.0289233"><ele>474.21</ele><time>2025-12-06T00:37:10.000Z</time></trkpt>
        <trkpt lat="28.2939494" lon="105.0289396"><ele>472.13</ele><time>2025-12-06T00:37:22.000Z</time></trkpt>
        <trkpt lat="28.2940394" lon="105.0289693"><ele>471.62</ele><time>2025-12-06T00:37:32.000Z</time></trkpt>
        <trkpt lat="28.2939878" lon="105.0289889"><ele>472.4</ele><time>2025-12-06T00:37:54.000Z</time></trkpt>
        <trkpt lat="28.2938965" lon="105.0290468"><ele>468.82</ele><time>2025-12-06T00:38:02.000Z</time></trkpt>
        <trkpt lat="28.2938366" lon="105.029139"><ele>466.8</ele><time>2025-12-06T00:38:08.000Z</time></trkpt>
        <trkpt lat="28.2938017" lon="105.0292457"><ele>466.01</ele><time>2025-12-06T00:38:16.000Z</time></trkpt>
        <trkpt lat="28.2937814" lon="105.0293628"><ele>467.6</ele><time>2025-12-06T00:38:26.000Z</time></trkpt>
        <trkpt lat="28.29374" lon="105.0294265"><ele>470.18</ele><time>2025-12-06T00:38:40.000Z</time></trkpt>
        <trkpt lat="28.293766" lon="105.0295077"><ele>469.22</ele><time>2025-12-06T00:39:24.000Z</time></trkpt>
        <trkpt lat="28.2938527" lon="105.0295479"><ele>464.22</ele><time>2025-12-06T00:39:34.000Z</time></trkpt>
        <trkpt lat="28.2939275" lon="105.0295508"><ele>460.04</ele><time>2025-12-06T00:39:42.000Z</time></trkpt>
        <trkpt lat="28.29401" lon="105.0295946"><ele>457.41</ele><time>2025-12-06T00:40:00.000Z</time></trkpt>
        <trkpt lat="28.2940987" lon="105.0296439"><ele>455.37</ele><time>2025-12-06T00:40:18.000Z</time></trkpt>
        <trkpt lat="28.2941436" lon="105.0297379"><ele>454.46</ele><time>2025-12-06T00:40:46.000Z</time></trkpt>
        <trkpt lat="28.2941214" lon="105.0298635"><ele>451.41</ele><time>2025-12-06T00:41:54.000Z</time></trkpt>
        <trkpt lat="28.2941759" lon="105.0299456"><ele>443.1</ele><time>2025-12-06T00:42:48.000Z</time></trkpt>
        <trkpt lat="28.2942211" lon="105.030038"><ele>438.2</ele><time>2025-12-06T00:43:12.000Z</time></trkpt>
        <trkpt lat="28.2941596" lon="105.0300814"><ele>433.94</ele><time>2025-12-06T00:43:28.000Z</time></trkpt>
        <trkpt lat="28.2940623" lon="105.0300742"><ele>428.2</ele><time>2025-12-06T00:43:40.000Z</time></trkpt>
        <trkpt lat="28.2939857" lon="105.0301273"><ele>424.78</ele><time>2025-12-06T00:44:14.000Z</time></trkpt>
        <trkpt lat="28.2939824" lon="105.0302171"><ele>420.13</ele><time>2025-12-06T00:44:36.000Z</time></trkpt>
        <trkpt lat="28.2940282" lon="105.0303101"><ele>416.64</ele><time>2025-12-06T00:45:14.000Z</time></trkpt>
        <trkpt lat="28.2940955" lon="105.0304039"><ele>411.87</ele><time>2025-12-06T00:45:36.000Z</time></trkpt>
        <trkpt lat="28.2941307" lon="105.0304544"><ele>410.98</ele><time>2025-12-06T00:45:48.000Z</time></trkpt>
        <trkpt lat="28.2941983" lon="105.0305107"><ele>409.41</ele><time>2025-12-06T00:46:24.000Z</time></trkpt>
        <trkpt lat="28.2942422" lon="105.0305387"><ele>403.5</ele><time>2025-12-06T00:46:32.000Z</time></trkpt>
        <trkpt lat="28.2943015" lon="105.0305984"><ele>399.38</ele><time>2025-12-06T00:46:54.000Z</time></trkpt>
        <trkpt lat="28.2943353" lon="105.0306526"><ele>395.83</ele><time>2025-12-06T00:47:02.000Z</time></trkpt>
        <trkpt lat="28.2944013" lon="105.0307035"><ele>392.8</ele><time>2025-12-06T00:47:26.000Z</time></trkpt>
        <trkpt lat="28.29449" lon="105.0307625"><ele>389.81</ele><time>2025-12-06T00:47:50.000Z</time></trkpt>
        <trkpt lat="28.2945591" lon="105.030841"><ele>386.71</ele><time>2025-12-06T00:48:06.000Z</time></trkpt>
        <trkpt lat="28.2945767" lon="105.0309122"><ele>384.85</ele><time>2025-12-06T00:48:18.000Z</time></trkpt>
        <trkpt lat="28.2946345" lon="105.0309795"><ele>383.29</ele><time>2025-12-06T00:48:46.000Z</time></trkpt>
        <trkpt lat="28.294716" lon="105.0309644"><ele>381.5</ele><time>2025-12-06T00:49:02.000Z</time></trkpt>
        <trkpt lat="28.2947717" lon="105.031001"><ele>375.76</ele><time>2025-12-06T00:49:24.000Z</time></trkpt>
        <trkpt lat="28.294753" lon="105.0310827"><ele>371.85</ele><time>2025-12-06T00:49:50.000Z</time></trkpt>
        <trkpt lat="28.2947888" lon="105.0311639"><ele>368.64</ele><time>2025-12-06T00:50:04.000Z</time></trkpt>
        <trkpt lat="28.294868" lon="105.0311855"><ele>365.38</ele><time>2025-12-06T00:50:16.000Z</time></trkpt>
        <trkpt lat="28.2949419" lon="105.0312409"><ele>363.29</ele><time>2025-12-06T00:50:32.000Z</time></trkpt>
        <trkpt lat="28.2950055" lon="105.0313284"><ele>362.59</ele><time>2025-12-06T00:50:48.000Z</time></trkpt>
        <trkpt lat="28.29508" lon="105.031297"><ele>363.09</ele><time>2025-12-06T00:51:00.000Z</time></trkpt>
        <trkpt lat="28.2951714" lon="105.0312321"><ele>363.92</ele><time>2025-12-06T00:51:12.000Z</time></trkpt>
        <trkpt lat="28.295264" lon="105.031164"><ele>364.09</ele><time>2025-12-06T00:51:22.000Z</time></trkpt>
        <trkpt lat="28.2953591" lon="105.0311148"><ele>363.37</ele><time>2025-12-06T00:51:30.000Z</time></trkpt>
        <trkpt lat="28.2954389" lon="105.0311617"><ele>361.9</ele><time>2025-12-06T00:51:38.000Z</time></trkpt>
        <trkpt lat="28.2954723" lon="105.0312657"><ele>360.9</ele><time>2025-12-06T00:51:46.000Z</time></trkpt>
        <trkpt lat="28.2955009" lon="105.0313853"><ele>359.64</ele><time>2025-12-06T00:51:54.000Z</time></trkpt>
        <trkpt lat="28.29553" lon="105.0314994"><ele>359.18</ele><time>2025-12-06T00:52:02.000Z</time></trkpt>
        <trkpt lat="28.2955475" lon="105.0316217"><ele>358.87</ele><time>2025-12-06T00:52:12.000Z</time></trkpt>
        <trkpt lat="28.2955824" lon="105.0317292"><ele>359.63</ele><time>2025-12-06T00:52:26.000Z</time></trkpt>
        <trkpt lat="28.2956169" lon="105.0318288"><ele>361.11</ele><time>2025-12-06T00:52:52.000Z</time></trkpt>
        <trkpt lat="28.2955907" lon="105.0319388"><ele>359.74</ele><time>2025-12-06T00:53:02.000Z</time></trkpt>
        <trkpt lat="28.295539" lon="105.0320416"><ele>360.33</ele><time>2025-12-06T00:53:10.000Z</time></trkpt>
        <trkpt lat="28.2955304" lon="105.0321571"><ele>361.3</ele><time>2025-12-06T00:53:18.000Z</time></trkpt>
        <trkpt lat="28.2955719" lon="105.0322596"><ele>362.15</ele><time>2025-12-06T00:53:26.000Z</time></trkpt>
        <trkpt lat="28.2956254" lon="105.0323583"><ele>362.99</ele><time>2025-12-06T00:53:34.000Z</time></trkpt>
        <trkpt lat="28.2956803" lon="105.0324529"><ele>364.23</ele><time>2025-12-06T00:53:42.000Z</time></trkpt>
        <trkpt lat="28.2957354" lon="105.0325525"><ele>365.15</ele><time>2025-12-06T00:53:52.000Z</time></trkpt>
        <trkpt lat="28.2957704" lon="105.0326533"><ele>366.5</ele><time>2025-12-06T00:54:00.000Z</time></trkpt>
        <trkpt lat="28.2957701" lon="105.0327727"><ele>367.65</ele><time>2025-12-06T00:54:10.000Z</time></trkpt>
        <trkpt lat="28.2957913" lon="105.0328931"><ele>368.95</ele><time>2025-12-06T00:54:20.000Z</time></trkpt>
        <trkpt lat="28.2958402" lon="105.0330075"><ele>370.12</ele><time>2025-12-06T00:54:30.000Z</time></trkpt>
        <trkpt lat="28.2959231" lon="105.03305"><ele>370.72</ele><time>2025-12-06T00:54:38.000Z</time></trkpt>
        <trkpt lat="28.2959743" lon="105.0330511"><ele>371.64</ele><time>2025-12-06T00:54:42.000Z</time></trkpt>
        <trkpt lat="28.296016" lon="105.0329716"><ele>372.38</ele><time>2025-12-06T00:54:52.000Z</time></trkpt>
        <trkpt lat="28.2960602" lon="105.0328703"><ele>372.73</ele><time>2025-12-06T00:55:00.000Z</time></trkpt>
        <trkpt lat="28.2960824" lon="105.0328208"><ele>373.7</ele><time>2025-12-06T00:55:04.000Z</time></trkpt>
        <trkpt lat="28.2960787" lon="105.0327087"><ele>373.52</ele><time>2025-12-06T00:57:28.000Z</time></trkpt>
        <trkpt lat="28.2961153" lon="105.032668"><ele>374.38</ele><time>2025-12-06T00:57:40.000Z</time></trkpt>
        <trkpt lat="28.2960352" lon="105.0327306"><ele>375.09</ele><time>2025-12-06T01:01:40.000Z</time></trkpt>
        <trkpt lat="28.2959979" lon="105.0328288"><ele>375.78</ele><time>2025-12-06T01:02:10.000Z</time></trkpt>
        <trkpt lat="28.2959157" lon="105.0328277"><ele>375.36</ele><time>2025-12-06T01:02:14.000Z</time></trkpt>
        <trkpt lat="28.2958057" lon="105.0327916"><ele>373.94</ele><time>2025-12-06T01:02:18.000Z</time></trkpt>
        <trkpt lat="28.2957751" lon="105.0326832"><ele>372.25</ele><time>2025-12-06T01:02:22.000Z</time></trkpt>
        <trkpt lat="28.2957609" lon="105.0325118"><ele>370.74</ele><time>2025-12-06T01:02:30.000Z</time></trkpt>
        <trkpt lat="28.2956997" lon="105.0323528"><ele>369.15</ele><time>2025-12-06T01:02:34.000Z</time></trkpt>
        <trkpt lat="28.2956207" lon="105.0322088"><ele>369.47</ele><time>2025-12-06T01:02:38.000Z</time></trkpt>
        <trkpt lat="28.2955667" lon="105.0320911"><ele>368.64</ele><time>2025-12-06T01:02:42.000Z</time></trkpt>
        <trkpt lat="28.2955697" lon="105.0319621"><ele>367.81</ele><time>2025-12-06T01:02:46.000Z</time></trkpt>
        <trkpt lat="28.2956317" lon="105.0318678"><ele>366.26</ele><time>2025-12-06T01:02:52.000Z</time></trkpt>
        <trkpt lat="28.2956287" lon="105.0317223"><ele>365.04</ele><time>2025-12-06T01:02:58.000Z</time></trkpt>
        <trkpt lat="28.2956041" lon="105.0316022"><ele>363.47</ele><time>2025-12-06T01:03:00.000Z</time></trkpt>
        <trkpt lat="28.295562" lon="105.0314382"><ele>362.27</ele><time>2025-12-06T01:03:04.000Z</time></trkpt>
        <trkpt lat="28.2955402" lon="105.0313746"><ele>361.9</ele><time>2025-12-06T01:03:08.000Z</time></trkpt>
        <trkpt lat="28.2954984" lon="105.0312722"><ele>361.58</ele><time>2025-12-06T01:03:30.000Z</time></trkpt>
        <trkpt lat="28.2954562" lon="105.031139"><ele>360.94</ele><time>2025-12-06T01:03:34.000Z</time></trkpt>
        <trkpt lat="28.2954853" lon="105.0310285"><ele>360.81</ele><time>2025-12-06T01:03:36.000Z</time></trkpt>
        <trkpt lat="28.2955659" lon="105.0309097"><ele>361.44</ele><time>2025-12-06T01:03:38.000Z</time></trkpt>
        <trkpt lat="28.2956124" lon="105.0307821"><ele>361.98</ele><time>2025-12-06T01:03:40.000Z</time></trkpt>
        <trkpt lat="28.295655" lon="105.0306541"><ele>362.34</ele><time>2025-12-06T01:03:42.000Z</time></trkpt>
        <trkpt lat="28.2956883" lon="105.0305197"><ele>361.83</ele><time>2025-12-06T01:03:44.000Z</time></trkpt>
        <trkpt lat="28.2957392" lon="105.030412"><ele>361.53</ele><time>2025-12-06T01:03:46.000Z</time></trkpt>
        <trkpt lat="28.2958245" lon="105.0302935"><ele>361.76</ele><time>2025-12-06T01:03:48.000Z</time></trkpt>
        <trkpt lat="28.2959474" lon="105.0301676"><ele>361.59</ele><time>2025-12-06T01:03:50.000Z</time></trkpt>
        <trkpt lat="28.2960974" lon="105.0300492"><ele>361.05</ele><time>2025-12-06T01:03:52.000Z</time></trkpt>
        <trkpt lat="28.2962628" lon="105.0299361"><ele>360.16</ele><time>2025-12-06T01:03:54.000Z</time></trkpt>
        <trkpt lat="28.2964174" lon="105.0298296"><ele>359.87</ele><time>2025-12-06T01:03:56.000Z</time></trkpt>
        <trkpt lat="28.2965698" lon="105.029725"><ele>359.81</ele><time>2025-12-06T01:03:58.000Z</time></trkpt>
        <trkpt lat="28.2967358" lon="105.0296254"><ele>360</ele><time>2025-12-06T01:04:00.000Z</time></trkpt>
        <trkpt lat="28.2968747" lon="105.0295328"><ele>359.52</ele><time>2025-12-06T01:04:02.000Z</time></trkpt>
        <trkpt lat="28.296994" lon="105.029431"><ele>359.44</ele><time>2025-12-06T01:04:04.000Z</time></trkpt>
        <trkpt lat="28.2971066" lon="105.0293006"><ele>358.82</ele><time>2025-12-06T01:04:06.000Z</time></trkpt>
        <trkpt lat="28.297213" lon="105.0291601"><ele>357.92</ele><time>2025-12-06T01:04:08.000Z</time></trkpt>
        <trkpt lat="28.2973259" lon="105.0290115"><ele>357.45</ele><time>2025-12-06T01:04:10.000Z</time></trkpt>
        <trkpt lat="28.2973259" lon="105.0290115"><ele>357.45</ele><time>2025-12-06T01:04:10.000Z</time></trkpt>
      </trkseg>
  </trk>
</gpx>